[[{"header":{"parameterUnit":"m.s-1","parameterCategory":1,"la1":31.0,"la2":29.5877,"lo1":-88.7671,"lo2":-86.6584,"dy":0.0162,"dx":0.0185,"nx":115,"ny":88,"refTime":"2024-07-06T12:00:00:Z","depth":0,"parameterNumber":2,"parameterNumberName":"U-component_of_WINDS"},"data":[0.0,0.0,0.0,0.0,0.0,0.0,0.0,0.0,0.0,0.0,0.0,0.0,0.0,0.0,0.0,0.0,0.0,0.0,0.0,0.0,0.0,0.0,0.0,0.0,0.0,0.0,0.0,0.0,0.0,0.0,0.0,0.0,0.0,0.0,0.0,0.0,0.0,0.0,0.0,0.0,0.0,0.0,0.0,0.0,0.0,0.0,0.0,0.0,0.0,0.0,0.0,0.0,0.0,0.0,0.0,0.0,0.0,0.0,0.0,0.0,0.0,0.0,0.0,0.0,0.0,0.0,0.0,0.0,0.0,0.0,0.0,0.0,0.0,0.0,0.0,0.0,0.0,0.0,0.0,0.0,0.0,0.0,0.0,0.0,0.0,0.0,0.0,0.0,0.0,0.0,0.0,0.0,0.0,0.0,0.0,0.0,0.0,0.0,0.0,0.0,0.0,0.0,0.0,0.0,0.0,0.0,0.0,0.0,0.0,0.0,0.0,0.0,0.0,0.0,0.0,0.0,0.0,0.0,0.0,0.0,0.0,0.0,0.0,0.0,0.0,0.0,0.0,0.0,0.0,0.0,0.0,0.0,0.0,0.0,0.0,0.0,0.0,0.0,0.0,0.0,0.0,0.0,0.0,0.0,0.0,0.0,0.0,0.0,0.0,0.0,0.0,0.0,0.0,0.0,0.0,0.0,0.0,0.0,0.0,0.0,0.0,0.0,0.0,0.0,0.0,0.0,0.0,0.0,0.0,0.0,0.0,0.0,0.0,0.0,0.0,0.0,0.0,0.0,0.0,0.0,0.0,0.0,0.0,0.0,0.0,0.0,0.0,0.0,0.0,0.0,0.0,0.0,0.0,0.0,0.0,0.0,0.0,0.0,0.0,0.0,0.0,0.0,0.0,0.0,0.0,0.0,0.0,0.0,0.0,0.0,0.0,0.0,0.0,0.0,0.0,0.0,0.0,0.0,0.0,0.0,0.0,0.0,0.0,0.0,0.0,0.0,0.0,0.0,0.0,0.0,0.0,0.0,0.0,0.0,0.0,0.0,0.0,0.0,0.0,0.0,0.0,0.0,0.0,0.0,0.0,0.0,0.0,0.0,0.0,0.0,0.0,0.0,0.0,0.0,0.0,0.0,0.0,0.0,0.0,0.0,0.0,0.0,0.0,0.0,0.0,0.0,0.0,0.0,0.0,0.0,0.0,0.0,0.0,0.0,0.0,0.0,0.0,0.0,0.0,0.0,0.0,0.0,0.0,0.0,0.0,0.0,0.0,0.0,0.0,0.0,0.0,0.0,0.0,0.0,0.0,0.0,0.0,0.0,0.0,0.0,0.0,0.0,0.0,0.0,0.0,0.0,0.0,0.0,0.0,0.0,0.0,0.0,0.0,0.0,0.0,0.0,0.0,0.0,0.0,0.0,0.0,0.0,0.0,0.0,0.0,0.0,0.0,0.0,0.0,0.0,0.0,0.0,0.0,0.0,0.0,0.0,0.0,0.0,0.0,0.0,0.0,0.0,0.0,0.0,0.0,0.0,0.0,0.0,0.0,0.0,0.0,0.0,0.0,0.0,0.0,0.0,0.0,0.0,0.0,0.0,0.0,0.0,0.0,0.0,0.0,0.0,0.0,0.0,0.0,0.0,0.0,0.0,0.0,0.0,0.0,0.0,0.0,0.0,0.0,0.0,0.0,0.0,0.0,0.0,0.0,0.0,0.0,0.0,0.0,0.0,0.0,0.0,0.0,0.0,0.0,0.0,0.0,0.0,0.0,0.0,0.0,0.0,0.0,0.0,0.0,0.0,0.0,0.0,0.0,0.0,0.0,0.0,0.0,0.0,0.0,0.0,0.0,0.0,0.0,0.0,0.0,0.0,0.0,0.0,0.0,0.0,0.0,0.0,0.0,0.0,0.0,0.0,0.0,0.0,0.0,0.0,0.0,0.0,0.0,0.0,0.0,0.0,0.0,0.0,0.0,0.0,0.0,0.0,0.0,0.0,0.0,0.0,0.0,0.0,0.0,0.0,0.0,0.0,0.0,0.0,0.0,0.0,0.0,0.0,0.0,0.0,0.0,0.0,0.0,0.0,0.0,0.0,0.0,0.0,0.0,0.0,0.0,0.0,0.0,0.0,0.0,0.0,0.0,0.0,0.0,0.0,0.0,0.0,0.0,0.0,0.0,0.0,0.0,0.0,0.0,0.0,0.0,0.0,0.0,0.0,0.0,0.0,0.0,0.0,0.0,0.0,0.0,0.0,0.0,0.0,0.0,0.0,0.0,0.0,0.0,0.0,0.0,0.0,0.0,0.0,0.0,0.0,0.0,0.0,0.0,0.0,0.0,0.0,0.0,0.0,0.0,0.0,0.0,0.0,0.0,0.0,0.0,0.0,0.0,0.0,0.0,0.0,0.0,0.0,0.0,0.0,0.0,0.0,0.0,0.0,0.0,0.0,0.0,0.0,0.0,0.0,0.0,0.0,0.0,0.0,0.0,0.0,0.0,0.0,0.0,0.0,0.0,0.0,0.0,0.0,0.0,0.0,0.0,0.0,0.0,0.0,0.0,0.0,0.0,0.0,0.0,0.0,0.0,0.0,0.0,0.0,0.0,0.0,0.0,0.0,0.0,0.0,0.0,0.0,0.0,0.0,0.0,0.0,0.0,0.0,0.0,0.0,0.0,0.0,0.0,0.0,0.0,0.0,0.0,0.0,0.0,0.0,0.0,0.0,0.0,0.0,0.0,0.0,0.0,0.0,0.0,0.0,0.0,0.0,0.0,0.0,0.0,0.0,0.0,0.0,0.0,0.0,0.0,0.0,0.0,0.0,0.0,0.0,0.0,0.0,0.0,0.0,0.0,0.0,0.0,0.0,0.0,0.0,0.0,0.0,0.0,0.0,0.0,0.0,0.0,0.0,0.0,0.0,0.0,0.0,0.0,0.0,0.0,0.0,0.0,0.0,0.0,0.0,0.0,0.0,0.0,0.0,0.0,0.0,0.0,0.0,0.0,0.0,0.0,0.0,0.0,0.0,0.0,0.0,0.0,0.0,0.0,0.0,0.0,0.0,0.0,0.0,0.0,0.0,0.0,0.0,0.0,0.0,0.0,0.0,0.0,0.0,0.0,0.0,0.0,0.0,0.0,0.0,0.0,0.0,0.0,0.0,0.0,0.0,0.0,0.0,0.0,0.0,0.0,0.0,0.0,0.0,0.0,0.0,0.0,0.0,0.0,0.0,0.0,0.0,0.0,0.0,0.0,0.0,0.0,0.0,0.0,0.0,0.0,0.0,0.0,0.0,0.0,0.0,0.0,0.0,0.0,0.0,0.0,0.0,0.0,0.0,0.0,0.0,0.0,0.0,0.0,0.0,0.0,0.0,0.0,0.0,0.0,0.0,0.0,0.0,0.0,0.0,0.0,0.0,0.0,0.0,0.0,0.0,0.0,0.0,0.0,0.0,0.0,0.0,0.0,0.0,0.0,0.0,0.0,0.0,0.0,0.0,0.0,0.0,0.0,0.0,0.0,0.0,0.0,0.0,0.0,0.0,0.0,0.0,0.0,0.0,0.0,0.0,0.0,0.0,0.0,0.0,0.0,0.0,0.0,0.0,0.0,0.0,0.0,0.0,0.0,0.0,0.0,0.0,0.0,0.0,0.0,0.0,0.0,0.0,0.0,0.0,0.0,0.0,0.0,0.0,0.0,0.0,0.0,0.0,0.0,0.0,0.0,0.0,0.0,0.0,0.0,0.0,0.0,0.0,0.0,0.0,0.0,0.0,0.0,0.0,0.0,0.0,0.0,0.0,0.0,0.0,0.0,0.0,0.0,0.0,0.0,0.0,0.0,0.0,0.0,0.0,0.0,0.0,0.0,0.0,0.0,0.0,0.0,0.0,0.0,0.0,0.0,0.0,0.0,0.0,0.0,0.0,0.0,0.0,0.0,0.0,0.0,0.0,0.0,0.0,0.0,0.0,0.0,0.0,0.0,0.0,0.0,0.0,0.0,0.0,0.0,0.0,0.0,0.0,0.0,0.0,0.0,0.0,0.0,0.0,0.0,0.0,0.0,0.0,0.0,0.0,0.0,0.0,0.0,0.0,0.0,0.0,0.0,0.0,0.0,0.0,0.0,0.0,0.0,0.0,0.0,0.0,0.0,0.0,0.0,0.0,0.0,0.0,0.0,0.0,0.0,0.0,0.0,0.0,0.0,0.0,0.0,0.0,0.0,0.0,0.0,0.0,0.0,0.0,0.0,0.0,0.0,0.0,0.0,0.0,0.0,0.0,0.0,0.0,-1.8714,0.0,0.0,0.0,0.0,0.0,0.0,0.0,0.0,0.0,0.0,0.0,0.0,0.0,0.0,0.0,0.0,0.0,0.0,0.0,0.0,0.0,0.0,0.0,0.0,0.0,0.0,0.0,0.0,0.0,0.0,0.0,0.0,0.0,0.0,0.0,0.0,0.0,0.0,0.0,0.0,0.0,0.0,0.0,0.0,0.0,0.0,0.0,0.0,0.0,0.0,0.0,0.0,0.0,0.0,0.0,0.0,0.0,0.0,0.0,0.0,0.0,0.0,0.0,0.0,0.0,0.0,0.0,0.0,0.0,0.0,0.0,0.0,0.0,0.0,0.0,0.0,0.0,0.0,0.0,0.0,0.0,0.0,0.0,0.0,0.0,0.0,0.0,0.0,0.0,0.0,0.0,0.0,0.0,0.0,0.0,0.0,0.0,0.0,0.0,0.0,0.0,0.0,0.0,0.0,0.0,0.0,0.0,0.0,0.0,0.0,-2.0764,-2.0329,-1.9675,-1.9213,-1.8897,0.0,0.0,0.0,0.0,0.0,0.0,0.0,0.0,0.0,0.0,0.0,0.0,0.0,0.0,0.0,0.0,0.0,0.0,0.0,0.0,0.0,0.0,0.0,0.0,0.0,0.0,0.0,0.0,0.0,0.0,0.0,0.0,0.0,0.0,0.0,0.0,0.0,0.0,0.0,0.0,0.0,0.0,0.0,0.0,0.0,0.0,0.0,0.0,0.0,0.0,0.0,0.0,0.0,0.0,0.0,0.0,0.0,0.0,0.0,0.0,0.0,0.0,0.0,0.0,0.0,0.0,0.0,0.0,0.0,0.0,0.0,0.0,0.0,0.0,0.0,0.0,0.0,0.0,0.0,0.0,0.0,0.0,0.0,0.0,0.0,0.0,0.0,0.0,0.0,0.0,0.0,0.0,0.0,0.0,0.0,0.0,0.0,0.0,0.0,0.0,0.0,0.0,0.0,0.0,0.0,0.0,0.0,0.0,0.0,0.0,0.0,0.0,-2.0381,-1.9716,-1.9396,0.0,0.0,0.0,0.0,0.0,0.0,0.0,0.0,0.0,0.0,0.0,0.0,0.0,0.0,0.0,0.0,0.0,0.0,0.0,0.0,0.0,0.0,0.0,0.0,0.0,0.0,0.0,0.0,0.0,0.0,0.0,0.0,0.0,0.0,0.0,0.0,0.0,0.0,0.0,0.0,0.0,0.0,0.0,0.0,0.0,0.0,0.0,0.0,0.0,0.0,0.0,0.0,0.0,0.0,0.0,0.0,0.0,0.0,0.0,0.0,0.0,0.0,0.0,0.0,0.0,0.0,0.0,0.0,0.0,0.0,0.0,0.0,0.0,0.0,0.0,0.0,0.0,0.0,0.0,0.0,0.0,0.0,0.0,0.0,0.0,0.0,0.0,0.0,0.0,0.0,0.0,0.0,0.0,0.0,0.0,0.0,0.0,0.0,0.0,0.0,0.0,0.0,0.0,0.0,0.0,0.0,0.0,0.0,0.0,0.0,-2.1613,-2.4446,-2.3259,0.0,-2.0658,0.0,0.0,0.0,0.0,0.0,0.0,0.0,0.0,0.0,0.0,0.0,0.0,0.0,0.0,0.0,0.0,0.0,0.0,0.0,0.0,0.0,0.0,0.0,0.0,0.0,0.0,0.0,0.0,0.0,0.0,0.0,0.0,0.0,0.0,0.0,0.0,0.0,0.0,0.0,0.0,0.0,0.0,0.0,0.0,0.0,0.0,0.0,0.0,0.0,0.0,0.0,0.0,0.0,0.0,0.0,0.0,0.0,0.0,0.0,0.0,0.0,0.0,0.0,0.0,0.0,0.0,0.0,0.0,0.0,0.0,0.0,0.0,0.0,0.0,0.0,0.0,0.0,0.0,0.0,0.0,0.0,0.0,0.0,0.0,0.0,0.0,0.0,0.0,0.0,0.0,0.0,0.0,0.0,0.0,0.0,0.0,0.0,0.0,0.0,0.0,0.0,0.0,0.0,0.0,0.0,0.0,0.0,0.0,0.0,0.0,0.0,-2.3666,-2.2548,-2.1342,0.0,0.0,0.0,0.0,0.0,0.0,0.0,0.0,0.0,0.0,0.0,0.0,0.0,0.0,0.0,0.0,0.0,0.0,0.0,0.0,0.0,0.0,0.0,0.0,0.0,0.0,0.0,0.0,0.0,0.0,0.0,0.0,0.0,0.0,0.0,0.0,0.0,0.0,0.0,0.0,0.0,0.0,0.0,0.0,0.0,0.0,0.0,0.0,0.0,0.0,0.0,0.0,0.0,0.0,0.0,0.0,0.0,0.0,0.0,0.0,0.0,0.0,0.0,0.0,0.0,0.0,0.0,0.0,0.0,0.0,0.0,0.0,0.0,0.0,0.0,0.0,0.0,0.0,0.0,0.0,0.0,0.0,0.0,0.0,0.0,0.0,0.0,0.0,0.0,0.0,0.0,0.0,0.0,0.0,0.0,0.0,0.0,0.0,0.0,0.0,0.0,0.0,0.0,0.0,0.0,0.0,0.0,0.0,0.0,0.0,-2.1043,0.0,-2.3195,-2.249,-2.1424,-2.0128,0.0,0.0,0.0,0.0,0.0,0.0,0.0,0.0,0.0,0.0,0.0,0.0,0.0,0.0,0.0,0.0,0.0,0.0,0.0,0.0,0.0,0.0,0.0,0.0,0.0,0.0,0.0,0.0,0.0,0.0,0.0,0.0,0.0,0.0,0.0,0.0,0.0,0.0,0.0,0.0,0.0,0.0,0.0,0.0,0.0,0.0,0.0,0.0,0.0,0.0,0.0,0.0,0.0,0.0,0.0,0.0,0.0,0.0,0.0,0.0,0.0,0.0,0.0,0.0,0.0,0.0,0.0,0.0,0.0,0.0,0.0,0.0,0.0,0.0,0.0,0.0,0.0,0.0,0.0,0.0,0.0,0.0,0.0,0.0,0.0,0.0,0.0,0.0,0.0,0.0,0.0,0.0,0.0,0.0,0.0,0.0,0.0,0.0,0.0,0.0,0.0,0.0,0.0,0.0,0.0,0.0,0.0,0.0,0.0,-2.235,-2.226,-2.453,-2.4235,-2.3094,0.0,0.0,0.0,0.0,0.0,0.0,0.0,0.0,0.0,0.0,0.0,0.0,0.0,0.0,0.0,0.0,0.0,0.0,0.0,0.0,0.0,0.0,0.0,0.0,0.0,0.0,0.0,0.0,0.0,0.0,0.0,0.0,0.0,0.0,0.0,0.0,0.0,0.0,0.0,0.0,0.0,0.0,0.0,0.0,0.0,0.0,0.0,0.0,0.0,0.0,0.0,0.0,0.0,0.0,0.0,0.0,0.0,0.0,0.0,0.0,0.0,0.0,0.0,0.0,0.0,0.0,0.0,0.0,0.0,0.0,0.0,0.0,0.0,0.0,0.0,0.0,0.0,0.0,0.0,0.0,0.0,0.0,0.0,0.0,0.0,0.0,0.0,0.0,0.0,0.0,0.0,0.0,0.0,0.0,0.0,0.0,0.0,0.0,0.0,0.0,0.0,0.0,0.0,0.0,0.0,0.0,0.0,0.0,0.0,-1.9638,-2.1161,-2.3207,-2.5697,-2.341,-2.1935,0.0,0.0,0.0,0.0,0.0,0.0,0.0,0.0,0.0,0.0,0.0,0.0,0.0,0.0,0.0,0.0,0.0,0.0,0.0,0.0,0.0,0.0,0.0,0.0,0.0,0.0,0.0,0.0,0.0,0.0,0.0,0.0,0.0,0.0,0.0,0.0,0.0,0.0,0.0,0.0,0.0,0.0,0.0,0.0,0.0,0.0,0.0,0.0,0.0,0.0,0.0,0.0,0.0,0.0,0.0,0.0,0.0,0.0,0.0,0.0,0.0,0.0,0.0,0.0,0.0,0.0,0.0,0.0,0.0,0.0,0.0,0.0,0.0,0.0,0.0,0.0,0.0,0.0,0.0,0.0,0.0,0.0,0.0,0.0,0.0,0.0,0.0,0.0,0.0,0.0,0.0,0.0,0.0,0.0,0.0,0.0,0.0,0.0,0.0,0.0,0.0,0.0,0.0,0.0,0.0,0.0,0.0,0.0,0.0,-1.919,0.0,-2.4632,0.0,-2.302,-2.1251,0.0,0.0,0.0,0.0,0.0,0.0,0.0,0.0,0.0,0.0,0.0,0.0,0.0,0.0,0.0,0.0,0.0,0.0,0.0,0.0,0.0,0.0,0.0,0.0,0.0,0.0,0.0,0.0,0.0,0.0,0.0,0.0,0.0,0.0,0.0,0.0,0.0,0.0,0.0,0.0,0.0,0.0,0.0,0.0,0.0,0.0,0.0,0.0,0.0,0.0,0.0,0.0,0.0,0.0,0.0,0.0,0.0,0.0,0.0,0.0,0.0,0.0,0.0,0.0,0.0,0.0,0.0,0.0,0.0,0.0,0.0,0.0,0.0,0.0,0.0,0.0,0.0,0.0,0.0,0.0,0.0,0.0,0.0,0.0,0.0,0.0,0.0,0.0,0.0,0.0,0.0,0.0,0.0,0.0,0.0,0.0,0.0,0.0,0.0,0.0,0.0,0.0,0.0,0.0,0.0,0.0,0.0,0.0,-1.9675,-2.4065,-2.6131,-2.6334,-2.4522,-2.3388,-2.1357,0.0,0.0,0.0,0.0,0.0,0.0,0.0,0.0,0.0,0.0,0.0,0.0,0.0,0.0,0.0,0.0,0.0,0.0,0.0,0.0,0.0,0.0,0.0,0.0,0.0,0.0,0.0,0.0,0.0,0.0,0.0,0.0,0.0,0.0,0.0,0.0,0.0,0.0,0.0,0.0,0.0,0.0,0.0,0.0,0.0,0.0,0.0,0.0,0.0,0.0,0.0,0.0,0.0,0.0,0.0,0.0,0.0,0.0,0.0,0.0,0.0,0.0,0.0,0.0,0.0,0.0,0.0,0.0,0.0,0.0,0.0,0.0,0.0,0.0,0.0,0.0,0.0,0.0,0.0,0.0,0.0,0.0,0.0,0.0,0.0,0.0,0.0,0.0,0.0,0.0,0.0,0.0,0.0,0.0,0.0,0.0,0.0,0.0,0.0,0.0,0.0,0.0,0.0,0.0,0.0,0.0,0.0,0.0,0.0,-2.1106,-2.4996,-2.7198,-2.732,-2.4268,-2.2849,0.0,0.0,0.0,0.0,0.0,0.0,0.0,0.0,0.0,0.0,0.0,0.0,0.0,0.0,0.0,0.0,0.0,0.0,0.0,0.0,0.0,0.0,0.0,0.0,0.0,0.0,0.0,0.0,0.0,0.0,0.0,0.0,0.0,0.0,0.0,0.0,0.0,0.0,0.0,0.0,0.0,0.0,0.0,0.0,0.0,0.0,0.0,0.0,0.0,0.0,0.0,0.0,0.0,0.0,0.0,0.0,0.0,0.0,0.0,0.0,0.0,0.0,0.0,0.0,0.0,0.0,0.0,0.0,0.0,0.0,0.0,0.0,0.0,0.0,0.0,0.0,0.0,0.0,0.0,0.0,0.0,0.0,0.0,0.0,0.0,0.0,0.0,0.0,0.0,0.0,0.0,0.0,0.0,0.0,0.0,0.0,0.0,0.0,0.0,0.0,0.0,0.0,0.0,0.0,0.0,0.0,0.0,0.0,0.0,-2.228,-2.6401,-2.8585,-2.8331,-2.5089,-2.3674,-2.4195,0.0,0.0,0.0,0.0,0.0,0.0,0.0,0.0,0.0,0.0,0.0,0.0,0.0,0.0,0.0,0.0,0.0,0.0,0.0,0.0,0.0,0.0,0.0,0.0,0.0,0.0,0.0,0.0,0.0,0.0,0.0,0.0,0.0,0.0,0.0,0.0,0.0,0.0,0.0,0.0,0.0,0.0,0.0,0.0,0.0,0.0,0.0,0.0,0.0,0.0,0.0,0.0,0.0,0.0,0.0,0.0,0.0,0.0,0.0,0.0,0.0,0.0,0.0,0.0,0.0,0.0,0.0,0.0,0.0,0.0,0.0,0.0,0.0,0.0,0.0,0.0,0.0,0.0,0.0,0.0,0.0,0.0,0.0,0.0,0.0,0.0,0.0,0.0,0.0,0.0,0.0,0.0,0.0,0.0,0.0,0.0,0.0,0.0,0.0,0.0,0.0,0.0,0.0,0.0,0.0,0.0,0.0,0.0,-2.6262,-2.9712,-3.0285,-2.7801,-2.6002,-2.4062,0.0,0.0,0.0,0.0,0.0,0.0,0.0,0.0,0.0,0.0,0.0,0.0,0.0,0.0,0.0,0.0,0.0,0.0,0.0,0.0,0.0,0.0,0.0,0.0,0.0,0.0,0.0,0.0,0.0,0.0,0.0,0.0,0.0,0.0,0.0,0.0,0.0,0.0,0.0,0.0,0.0,0.0,0.0,0.0,0.0,0.0,0.0,0.0,0.0,0.0,0.0,0.0,0.0,0.0,0.0,0.0,0.0,0.0,0.0,0.0,0.0,0.0,0.0,0.0,0.0,0.0,0.0,0.0,0.0,0.0,0.0,0.0,0.0,0.0,0.0,0.0,0.0,0.0,0.0,0.0,0.0,0.0,0.0,0.0,0.0,0.0,0.0,0.0,0.0,0.0,0.0,0.0,0.0,0.0,0.0,0.0,0.0,0.0,0.0,0.0,0.0,0.0,0.0,0.0,0.0,0.0,0.0,0.0,0.0,-2.5961,-2.9041,-3.0424,-2.9745,-2.7493,-2.5989,0.0,0.0,0.0,0.0,0.0,0.0,0.0,0.0,0.0,0.0,0.0,0.0,0.0,0.0,0.0,0.0,0.0,0.0,0.0,0.0,0.0,0.0,0.0,0.0,0.0,0.0,0.0,0.0,0.0,0.0,0.0,0.0,0.0,0.0,0.0,0.0,0.0,0.0,0.0,0.0,0.0,0.0,0.0,0.0,0.0,0.0,0.0,0.0,0.0,0.0,0.0,0.0,0.0,0.0,0.0,0.0,0.0,0.0,0.0,0.0,0.0,0.0,0.0,0.0,0.0,0.0,0.0,0.0,0.0,0.0,0.0,0.0,0.0,0.0,0.0,0.0,0.0,0.0,0.0,0.0,0.0,0.0,0.0,0.0,0.0,0.0,0.0,0.0,0.0,0.0,0.0,0.0,0.0,0.0,0.0,0.0,0.0,0.0,0.0,0.0,0.0,0.0,0.0,0.0,0.0,0.0,0.0,0.0,-2.5856,-2.8228,-2.9581,-3.0301,-3.0407,-2.9155,-2.7683,0.0,0.0,0.0,0.0,0.0,0.0,0.0,0.0,0.0,0.0,0.0,0.0,0.0,0.0,0.0,0.0,0.0,0.0,0.0,0.0,0.0,0.0,0.0,0.0,0.0,0.0,0.0,0.0,0.0,0.0,0.0,0.0,0.0,0.0,0.0,0.0,0.0,0.0,0.0,0.0,0.0,0.0,0.0,0.0,0.0,0.0,0.0,0.0,0.0,0.0,0.0,0.0,0.0,0.0,0.0,0.0,0.0,0.0,0.0,0.0,0.0,0.0,0.0,0.0,0.0,0.0,0.0,0.0,0.0,0.0,0.0,0.0,0.0,0.0,0.0,0.0,0.0,0.0,0.0,0.0,0.0,0.0,0.0,0.0,0.0,0.0,0.0,0.0,0.0,0.0,0.0,0.0,0.0,0.0,0.0,0.0,0.0,0.0,0.0,0.0,0.0,0.0,0.0,0.0,0.0,0.0,0.0,0.0,-2.6656,-3.1289,-3.0557,-3.01,-3.0113,-3.062,-2.9074,0.0,0.0,0.0,0.0,0.0,0.0,0.0,0.0,0.0,0.0,0.0,0.0,0.0,0.0,0.0,0.0,0.0,0.0,0.0,0.0,0.0,0.0,0.0,0.0,0.0,0.0,0.0,0.0,0.0,0.0,0.0,0.0,0.0,0.0,0.0,0.0,0.0,0.0,0.0,0.0,0.0,0.0,0.0,0.0,0.0,0.0,0.0,0.0,0.0,0.0,0.0,0.0,0.0,0.0,0.0,0.0,0.0,0.0,0.0,0.0,0.0,0.0,0.0,0.0,0.0,0.0,0.0,0.0,0.0,0.0,0.0,0.0,0.0,0.0,0.0,0.0,0.0,0.0,0.0,0.0,0.0,0.0,0.0,0.0,0.0,0.0,0.0,0.0,0.0,0.0,0.0,0.0,0.0,0.0,0.0,0.0,0.0,0.0,0.0,0.0,0.0,0.0,0.0,0.0,0.0,0.0,0.0,0.0,-2.7456,-2.9056,-2.9748,-3.01,-3.01,-3.0218,-2.8825,0.0,0.0,0.0,0.0,0.0,0.0,0.0,0.0,0.0,0.0,0.0,0.0,0.0,0.0,0.0,0.0,0.0,0.0,0.0,0.0,0.0,0.0,0.0,0.0,0.0,0.0,0.0,0.0,0.0,0.0,0.0,0.0,0.0,0.0,0.0,0.0,0.0,0.0,0.0,0.0,0.0,0.0,0.0,0.0,0.0,0.0,0.0,0.0,-1.7461,0.0,0.0,0.0,0.0,0.0,0.0,0.0,0.0,0.0,0.0,0.0,0.0,0.0,0.0,0.0,0.0,0.0,0.0,0.0,0.0,0.0,0.0,0.0,0.0,0.0,0.0,0.0,0.0,0.0,0.0,0.0,0.0,0.0,0.0,0.0,0.0,0.0,0.0,0.0,0.0,0.0,0.0,0.0,0.0,0.0,0.0,0.0,0.0,0.0,0.0,0.0,0.0,0.0,0.0,0.0,0.0,0.0,0.0,0.0,-2.8643,-2.9601,-3.0215,-3.0542,-3.0542,-3.0529,-2.9183,0.0,0.0,0.0,0.0,0.0,0.0,0.0,0.0,0.0,0.0,0.0,0.0,0.0,0.0,0.0,0.0,0.0,0.0,0.0,0.0,0.0,0.0,0.0,0.0,0.0,0.0,0.0,0.0,0.0,0.0,0.0,0.0,0.0,0.0,0.0,0.0,0.0,0.0,0.0,0.0,0.0,0.0,0.0,0.0,0.0,0.0,0.0,0.0,0.0,0.0,0.0,0.0,0.0,0.0,0.0,0.0,0.0,0.0,0.0,0.0,0.0,0.0,0.0,0.0,0.0,0.0,0.0,0.0,0.0,0.0,0.0,0.0,0.0,0.0,0.0,0.0,0.0,0.0,0.0,0.0,0.0,0.0,0.0,0.0,0.0,0.0,0.0,0.0,0.0,0.0,0.0,0.0,0.0,0.0,0.0,0.0,0.0,0.0,0.0,0.0,0.0,0.0,0.0,0.0,0.0,0.0,0.0,-2.7686,-2.9562,-3.0699,-3.0895,-3.1024,-3.1024,-3.1065,-2.9758,-2.6948,0.0,0.0,0.0,0.0,0.0,0.0,0.0,0.0,0.0,0.0,0.0,0.0,0.0,0.0,0.0,0.0,0.0,0.0,0.0,0.0,0.0,0.0,0.0,0.0,0.0,0.0,0.0,0.0,0.0,0.0,0.0,0.0,0.0,0.0,0.0,0.0,0.0,0.0,-1.773,-1.8785,0.0,0.0,0.0,0.0,0.0,0.0,0.0,0.0,-1.8773,0.0,0.0,0.0,0.0,0.0,0.0,0.0,0.0,0.0,0.0,0.0,0.0,0.0,0.0,0.0,0.0,0.0,0.0,0.0,0.0,0.0,0.0,0.0,0.0,0.0,0.0,0.0,0.0,0.0,0.0,0.0,0.0,0.0,0.0,0.0,0.0,0.0,0.0,0.0,0.0,0.0,0.0,0.0,0.0,0.0,0.0,0.0,0.0,0.0,0.0,0.0,0.0,0.0,0.0,0.0,0.0,-2.6939,-2.7927,-2.882,-2.9562,-3.0527,-3.1024,-3.0999,-3.1444,-3.0309,-2.7482,0.0,0.0,0.0,0.0,0.0,0.0,0.0,0.0,0.0,0.0,0.0,0.0,0.0,0.0,0.0,0.0,0.0,0.0,0.0,0.0,0.0,0.0,0.0,0.0,0.0,0.0,0.0,0.0,0.0,0.0,0.0,0.0,0.0,0.0,0.0,0.0,0.0,0.0,0.0,-2.0058,-2.0809,0.0,0.0,0.0,0.0,0.0,0.0,0.0,0.0,-1.7839,0.0,0.0,0.0,0.0,0.0,0.0,0.0,0.0,0.0,0.0,0.0,0.0,0.0,0.0,0.0,0.0,0.0,0.0,0.0,0.0,0.0,0.0,0.0,0.0,0.0,0.0,0.0,0.0,0.0,0.0,0.0,0.0,0.0,0.0,0.0,0.0,0.0,0.0,0.0,0.0,0.0,0.0,0.0,0.0,0.0,0.0,0.0,0.0,0.0,0.0,0.0,0.0,0.0,0.0,0.0,-2.5466,-2.7967,-2.9274,-2.9327,-3.0398,-3.0843,-3.0542,-3.0228,-2.8963,0.0,0.0,0.0,0.0,0.0,0.0,0.0,0.0,0.0,0.0,0.0,0.0,0.0,0.0,0.0,0.0,0.0,0.0,0.0,0.0,0.0,0.0,0.0,0.0,0.0,0.0,0.0,0.0,0.0,0.0,0.0,0.0,0.0,0.0,0.0,0.0,0.0,0.0,0.0,0.0,-2.0093,-2.0456,-1.9585,0.0,0.0,0.0,0.0,0.0,0.0,-1.856,-1.7835,0.0,0.0,0.0,0.0,0.0,0.0,0.0,0.0,0.0,0.0,0.0,0.0,0.0,0.0,0.0,0.0,0.0,0.0,0.0,0.0,0.0,0.0,0.0,0.0,0.0,0.0,0.0,0.0,0.0,0.0,0.0,0.0,0.0,0.0,0.0,0.0,0.0,0.0,0.0,0.0,0.0,0.0,0.0,0.0,0.0,0.0,0.0,0.0,0.0,0.0,0.0,0.0,0.0,0.0,0.0,-2.3841,-2.7472,-2.9353,-2.9327,-3.0435,-3.0712,-3.0113,-2.9666,-2.8278,0.0,0.0,0.0,0.0,0.0,0.0,0.0,0.0,0.0,0.0,0.0,0.0,0.0,0.0,0.0,0.0,0.0,0.0,0.0,0.0,0.0,0.0,0.0,0.0,0.0,0.0,0.0,0.0,0.0,0.0,0.0,0.0,0.0,0.0,0.0,0.0,0.0,0.0,0.0,0.0,0.0,-2.0332,-1.9876,-2.0104,0.0,0.0,0.0,0.0,-2.0653,-1.9459,0.0,0.0,0.0,0.0,0.0,0.0,0.0,0.0,0.0,0.0,0.0,0.0,0.0,0.0,0.0,0.0,0.0,0.0,0.0,0.0,0.0,0.0,0.0,0.0,0.0,0.0,0.0,0.0,0.0,0.0,0.0,0.0,0.0,0.0,0.0,0.0,0.0,0.0,0.0,0.0,0.0,0.0,0.0,0.0,0.0,0.0,0.0,0.0,0.0,0.0,0.0,0.0,0.0,0.0,0.0,0.0,-2.3712,-2.5856,-2.7694,-2.9274,-3.0385,-3.0712,-3.014,-3.1993,-3.0685,0.0,0.0,0.0,0.0,0.0,0.0,0.0,0.0,0.0,0.0,0.0,0.0,0.0,0.0,0.0,0.0,0.0,0.0,0.0,0.0,0.0,0.0,0.0,0.0,0.0,0.0,0.0,0.0,0.0,0.0,0.0,0.0,0.0,0.0,0.0,0.0,0.0,0.0,0.0,0.0,0.0,-2.2056,-2.0072,-2.1182,-2.218,0.0,0.0,-2.0741,-2.2056,-2.0731,0.0,0.0,0.0,0.0,0.0,0.0,0.0,0.0,0.0,0.0,0.0,0.0,0.0,0.0,0.0,0.0,0.0,0.0,0.0,0.0,0.0,0.0,0.0,0.0,0.0,0.0,0.0,0.0,0.0,0.0,0.0,0.0,0.0,0.0,0.0,0.0,0.0,0.0,0.0,0.0,0.0,0.0,0.0,0.0,0.0,0.0,0.0,0.0,0.0,0.0,0.0,0.0,0.0,0.0,0.0,-2.0445,-2.3745,-2.5938,-2.7778,-2.9248,-3.0422,-3.0555,-2.968,-3.0947,-2.9273,0.0,0.0,0.0,0.0,0.0,0.0,0.0,0.0,0.0,0.0,0.0,0.0,0.0,0.0,0.0,0.0,0.0,0.0,0.0,0.0,0.0,0.0,0.0,0.0,0.0,0.0,0.0,0.0,0.0,0.0,0.0,0.0,0.0,0.0,0.0,0.0,0.0,0.0,0.0,0.0,0.0,0.0,-2.1721,-2.2387,0.0,0.0,0.0,-2.247,-2.3836,0.0,0.0,0.0,0.0,0.0,0.0,0.0,0.0,0.0,0.0,0.0,0.0,0.0,0.0,0.0,0.0,0.0,0.0,0.0,0.0,0.0,0.0,0.0,0.0,0.0,0.0,0.0,0.0,0.0,0.0,0.0,0.0,0.0,0.0,0.0,0.0,0.0,0.0,0.0,0.0,0.0,0.0,0.0,0.0,0.0,0.0,0.0,0.0,0.0,0.0,0.0,0.0,0.0,0.0,0.0,0.0,0.0,-2.3987,-2.6455,-2.8307,-2.947,-3.0464,-3.0487,-2.9375,-2.9836,0.0,0.0,0.0,0.0,0.0,0.0,0.0,0.0,0.0,0.0,0.0,0.0,0.0,0.0,0.0,0.0,0.0,0.0,0.0,0.0,0.0,0.0,0.0,0.0,0.0,0.0,0.0,-1.2255,0.0,0.0,0.0,0.0,0.0,0.0,0.0,0.0,0.0,0.0,0.0,0.0,0.0,0.0,-2.1538,-2.3143,-2.3557,-2.3701,0.0,0.0,-2.4022,-2.4869,-2.2261,-2.0367,0.0,0.0,0.0,0.0,0.0,0.0,0.0,0.0,0.0,0.0,0.0,0.0,0.0,0.0,0.0,0.0,0.0,0.0,0.0,0.0,0.0,0.0,0.0,0.0,0.0,0.0,0.0,0.0,0.0,0.0,0.0,0.0,0.0,0.0,0.0,0.0,0.0,0.0,0.0,0.0,0.0,0.0,0.0,0.0,0.0,0.0,0.0,0.0,0.0,0.0,0.0,0.0,0.0,0.0,0.0,-2.4575,-2.7062,-2.8882,-3.0009,-3.0673,-3.0438,-2.9375,-2.9849,-2.8411,0.0,0.0,0.0,0.0,0.0,0.0,0.0,0.0,0.0,0.0,0.0,0.0,0.0,0.0,0.0,0.0,0.0,0.0,0.0,0.0,0.0,0.0,0.0,0.0,0.0,0.0,0.0,0.0,0.0,0.0,0.0,0.0,0.0,0.0,0.0,0.0,0.0,0.0,0.0,0.0,0.0,-2.2718,-2.3743,-2.456,-2.5044,0.0,0.0,-2.4941,-2.46,-2.3298,-2.202,-2.123,0.0,0.0,0.0,0.0,0.0,0.0,0.0,0.0,0.0,0.0,0.0,0.0,0.0,0.0,0.0,0.0,0.0,0.0,0.0,0.0,0.0,0.0,0.0,0.0,0.0,0.0,0.0,0.0,0.0,0.0,0.0,0.0,0.0,0.0,0.0,0.0,0.0,0.0,0.0,0.0,0.0,0.0,0.0,0.0,0.0,0.0,0.0,0.0,0.0,0.0,0.0,0.0,0.0,-2.1915,-2.4696,-2.7126,-2.8935,-3.0061,-3.0699,-3.0607,-2.9836,-3.0359,-2.9003,0.0,0.0,0.0,0.0,0.0,0.0,0.0,0.0,0.0,0.0,0.0,0.0,0.0,0.0,0.0,0.0,0.0,0.0,0.0,0.0,0.0,0.0,0.0,0.0,0.0,0.0,0.0,0.0,-1.4103,-1.4831,-1.5742,0.0,0.0,0.0,0.0,0.0,0.0,0.0,0.0,0.0,0.0,-2.3577,-2.4209,-2.4776,0.0,0.0,-2.5461,-2.5771,-2.6154,-2.4364,-2.3091,-2.3526,-2.2668,0.0,0.0,0.0,0.0,0.0,0.0,0.0,0.0,0.0,0.0,0.0,0.0,0.0,0.0,0.0,0.0,0.0,0.0,0.0,0.0,0.0,0.0,0.0,0.0,0.0,0.0,0.0,0.0,0.0,0.0,0.0,0.0,0.0,0.0,0.0,0.0,0.0,0.0,0.0,0.0,0.0,0.0,0.0,0.0,0.0,0.0,0.0,0.0,0.0,0.0,0.0,0.0,-2.2354,-2.4939,-2.7429,-2.9209,-3.0372,-3.0777,-3.0712,-3.0127,-3.0189,-2.8902,0.0,0.0,0.0,0.0,0.0,0.0,0.0,0.0,0.0,0.0,0.0,0.0,0.0,0.0,0.0,0.0,0.0,0.0,0.0,0.0,0.0,0.0,0.0,0.0,0.0,0.0,0.0,0.0,-1.5194,-1.5608,-1.6153,0.0,0.0,0.0,0.0,0.0,0.0,0.0,0.0,0.0,0.0,-2.424,-2.5213,-2.5637,-2.5885,-2.5974,-2.6413,-2.6827,-2.7247,-2.5692,-2.455,-2.4921,0.0,0.0,0.0,0.0,0.0,0.0,0.0,0.0,0.0,0.0,0.0,0.0,0.0,0.0,0.0,0.0,0.0,0.0,0.0,0.0,0.0,0.0,0.0,0.0,0.0,0.0,0.0,0.0,0.0,0.0,-1.5105,0.0,0.0,0.0,0.0,0.0,0.0,0.0,0.0,0.0,0.0,0.0,0.0,0.0,0.0,0.0,0.0,0.0,0.0,0.0,0.0,0.0,0.0,-2.2976,-2.5578,-2.7991,-2.9797,-3.0908,-3.1024,-3.0725,-3.0127,-2.9052,-2.7889,-2.6628,0.0,0.0,0.0,0.0,0.0,0.0,0.0,0.0,0.0,0.0,0.0,0.0,0.0,0.0,0.0,0.0,0.0,0.0,0.0,0.0,0.0,0.0,0.0,0.0,0.0,0.0,-1.7337,-1.686,-1.6226,0.0,0.0,0.0,0.0,0.0,0.0,0.0,0.0,0.0,0.0,-2.4759,-2.4759,-2.6915,-2.7258,-2.7355,-2.7728,-2.8214,-2.8245,-2.7455,-2.7237,-2.6589,0.0,0.0,0.0,0.0,0.0,0.0,0.0,0.0,0.0,0.0,0.0,0.0,0.0,0.0,0.0,0.0,0.0,0.0,0.0,0.0,0.0,0.0,0.0,0.0,0.0,0.0,0.0,-1.9691,-1.8788,0.0,0.0,0.0,0.0,0.0,0.0,0.0,0.0,0.0,0.0,0.0,-2.5186,-2.7085,0.0,0.0,0.0,0.0,0.0,0.0,0.0,0.0,0.0,0.0,0.0,0.0,-2.377,-2.603,-2.8186,-2.9872,-3.0947,-3.1024,-3.0895,-3.0686,-2.9588,-2.7754,-2.5045,0.0,0.0,0.0,0.0,0.0,0.0,0.0,0.0,0.0,0.0,0.0,0.0,0.0,0.0,0.0,0.0,0.0,0.0,0.0,0.0,0.0,0.0,0.0,0.0,0.0,-1.628,0.0,0.0,0.0,0.0,0.0,0.0,0.0,0.0,0.0,0.0,0.0,-2.4747,-2.5368,-2.6889,-2.7883,-2.7728,-2.8235,-2.8245,0.0,0.0,0.0,0.0,0.0,0.0,0.0,0.0,0.0,0.0,0.0,0.0,0.0,0.0,-2.6645,-2.2804,-2.0738,-1.9579,-1.9448,0.0,0.0,0.0,0.0,0.0,0.0,0.0,0.0,0.0,0.0,0.0,0.0,0.0,0.0,-2.2669,0.0,-2.1033,0.0,0.0,0.0,0.0,0.0,0.0,0.0,0.0,-2.7349,-2.8257,-2.7571,-2.9236,-2.9021,0.0,-2.7458,-2.6465,0.0,0.0,0.0,0.0,0.0,0.0,0.0,0.0,-2.4762,-2.6941,-2.869,-3.0032,-3.0934,-3.1024,-3.1024,-3.0998,-2.968,-2.7629,-2.4789,-2.4309,-2.3209,0.0,0.0,0.0,0.0,0.0,0.0,0.0,0.0,0.0,0.0,0.0,0.0,0.0,0.0,0.0,0.0,0.0,0.0,0.0,0.0,0.0,0.0,0.0,-1.7077,0.0,0.0,0.0,0.0,0.0,0.0,0.0,0.0,0.0,-2.3453,-2.5006,-2.6248,-2.6563,-2.8028,-2.899,-2.8897,0.0,0.0,0.0,0.0,0.0,0.0,0.0,-2.9363,-3.0087,-2.9187,-2.8266,-2.7955,-2.8556,-2.899,-2.8669,0.0,0.0,-2.4928,-2.2974,-2.1744,-2.1658,-2.1677,-2.1705,-2.1704,-2.2431,-2.3002,0.0,0.0,0.0,0.0,0.0,0.0,0.0,0.0,-2.4435,-2.5391,0.0,-2.4026,0.0,0.0,0.0,0.0,0.0,-2.4417,0.0,0.0,-2.898,-2.9951,-3.0947,-3.1471,-3.1184,-3.0335,-3.275,-3.2346,-2.9047,-2.3766,0.0,0.0,0.0,0.0,0.0,0.0,-2.598,-2.8254,-2.946,-3.0375,-3.096,-3.1024,-3.0973,-3.0908,-2.9349,-2.7641,-2.595,-2.578,-2.4262,-2.102,-2.1215,0.0,0.0,0.0,0.0,0.0,0.0,0.0,0.0,0.0,0.0,0.0,0.0,0.0,0.0,0.0,0.0,0.0,0.0,0.0,0.0,-1.8108,0.0,0.0,0.0,0.0,0.0,0.0,0.0,0.0,0.0,0.0,-2.677,-2.6801,-2.7365,-2.9125,0.0,0.0,0.0,0.0,-2.9684,-3.2132,-3.2597,-3.2758,-3.3078,-3.2116,-3.0874,-2.9642,0.0,0.0,-2.6946,-2.8504,-2.9611,-2.8773,-2.8276,-2.8349,-2.9508,-2.7653,-2.6291,-2.6334,-2.581,-2.5781,-2.5926,-2.6643,-2.7943,-2.8998,0.0,0.0,0.0,0.0,-2.6506,-2.7304,-2.8734,-2.8263,-2.8038,-2.7947,-2.6688,0.0,0.0,0.0,0.0,0.0,0.0,-2.7947,-2.886,-2.9986,-3.0686,-3.1024,-3.1143,-3.1052,-3.0777,-3.1169,-3.0805,-2.9787,-2.7437,-2.5351,-2.3746,0.0,0.0,0.0,0.0,-2.7795,-2.8784,-2.9654,-3.0375,-3.0973,-3.1024,-3.079,-3.0385,-2.951,-2.8399,-2.7059,-2.6224,-2.511,-2.3669,-2.2185,0.0,0.0,0.0,0.0,0.0,0.0,0.0,0.0,0.0,0.0,0.0,0.0,0.0,0.0,0.0,0.0,0.0,0.0,0.0,-1.7462,-1.7941,-1.8896,0.0,0.0,0.0,0.0,0.0,0.0,0.0,0.0,0.0,-2.9352,-2.9798,-3.0191,0.0,0.0,-3.223,-3.2561,-3.2002,-3.1485,-3.1298,0.0,0.0,0.0,-3.0708,-3.0977,-3.1215,-3.0491,-2.9808,-2.9549,-2.9239,-2.8928,-2.8649,-2.8235,-2.8069,-2.8317,-2.7205,-2.617,-2.6077,-2.595,-2.5875,-2.595,-2.6336,-2.6693,-3.2136,-2.9163,-2.8714,-2.8873,-2.9392,-2.9346,-2.9943,-3.0927,-3.0662,-3.0714,-3.0945,-2.9582,-2.8515,-2.773,-2.6517,0.0,0.0,0.0,-2.9048,-2.9498,-3.0525,-3.1024,-3.1024,-3.1024,-3.1024,-3.0998,-3.0634,-3.0477,-3.0477,-3.0215,-2.9067,-2.7083,0.0,0.0,-2.6471,-2.7847,-2.8971,-2.9767,-3.0229,-3.0647,-3.0973,-3.1024,-3.0817,-3.0477,-2.9693,-2.8948,-2.8229,-2.7085,-2.609,-2.5205,-2.3599,-2.2205,0.0,0.0,0.0,0.0,0.0,0.0,0.0,0.0,0.0,0.0,0.0,-1.6897,0.0,0.0,0.0,0.0,-1.7702,-1.9067,-2.0542,-2.1252,0.0,0.0,0.0,0.0,0.0,0.0,0.0,-2.9435,-2.9622,-2.9911,-3.1081,-3.1629,-3.1712,-3.1174,-3.1888,-3.254,-3.2809,0.0,-3.1536,-3.1257,-3.1619,-3.1629,-3.0801,-3.0667,-3.0708,-3.0624,-3.0243,-2.988,-2.9839,-2.9145,-2.8638,-2.8587,-2.833,-2.8193,-2.8193,-2.751,-2.6889,-2.6724,-2.6693,-2.6744,-2.691,-2.6962,-2.6962,-3.475,-3.3749,-3.3362,-3.2739,-3.2106,-3.2654,-3.2498,-3.1902,-3.1863,-3.3104,-3.4842,-3.2293,-3.1629,-3.2237,-2.9431,0.0,-2.852,-2.9492,-3.0088,-3.0322,-3.0882,-3.1117,-3.1117,-3.113,-3.1117,-3.113,-3.1078,-3.1052,-3.1104,-3.2045,-3.1836,-3.0388,-2.8656,-2.8304,-2.9252,-2.9391,-3.0023,-3.1182,-3.1209,-3.113,-3.1024,-3.1024,-3.096,-3.0895,-2.9849,-2.9235,-2.914,-2.8046,-2.6915,-2.5858,-2.5116,-2.3599,-2.1201,0.0,0.0,0.0,0.0,0.0,0.0,0.0,0.0,0.0,0.0,0.0,0.0,0.0,0.0,0.0,-2.1288,0.0,-2.4731,-2.6043,0.0,0.0,0.0,-2.5241,-2.5013,-2.677,-2.8421,-2.9404,0.0,0.0,-3.1936,0.0,-3.2168,-3.0812,-3.0387,-3.0677,-3.1864,-3.0988,-3.0512,-3.1667,-3.2209,-3.2426,-3.2054,-3.1278,-3.0243,-2.9218,-2.8711,-2.8845,-2.8876,-2.8814,-2.8742,-2.8783,-2.87,-2.8659,-2.8669,-2.8576,-2.8493,-2.802,-2.7976,-2.8079,-2.838,-2.8462,-2.8442,-3.5757,-3.5491,-3.5388,-3.4247,-3.2547,-3.2704,-3.2656,-3.2489,-3.2489,-3.2803,-3.3247,-3.2581,-3.2437,-3.2563,-3.1874,-3.1551,-3.1604,-3.1863,-3.2006,-3.2097,-3.2215,-3.2293,-3.228,-3.228,-3.228,-3.2254,-3.1836,-3.1602,-3.1588,-3.147,-3.1875,-3.2712,-3.2319,-3.2006,-3.1863,-3.2694,-3.3073,-3.2973,-3.2973,-3.2359,-3.1076,-3.1024,-3.0777,-3.0309,-2.9653,-2.8856,-2.7947,-2.7249,-2.6556,-2.5819,-2.4823,-2.4192,-2.3962,-2.1306,0.0,0.0,0.0,0.0,0.0,0.0,0.0,0.0,0.0,-2.3792,-2.0415,0.0,-2.4157,0.0,-2.3236,-2.26,-2.239,-2.2886,0.0,0.0,-2.6574,-2.7427,-2.9042,-2.9083,-2.9601,-3.1151,-3.1485,-3.1536,-3.1536,-3.1919,-3.1702,-3.0387,-3.1267,-3.2153,-3.2452,-3.1402,-3.075,-3.1298,-3.0781,-3.0253,-3.0615,-3.0408,-3.0056,-2.9725,-2.9663,-2.9663,-2.9663,-2.9673,-2.9673,-2.9642,-2.9363,-2.9177,-2.9135,-2.8866,-2.8752,-2.8876,-2.87,-2.8473,-2.8597,-2.8628,-2.8628,-3.675,-3.6502,-3.6502,-3.5613,-3.4214,-3.4214,-3.4071,-3.3849,-3.3849,-3.3705,-3.343,-3.3195,-3.2947,-3.2685,-3.2672,-3.2672,-3.2672,-3.2672,-3.2672,-3.2672,-3.2672,-3.2672,-3.2672,-3.2672,-3.2672,-3.2672,-3.2372,-3.2176,-3.2189,-3.164,-3.1849,-3.279,-3.2555,-3.2646,-3.313,-3.4463,-3.5012,-3.4698,-3.3966,-3.2751,-3.1065,-3.1024,-3.096,-3.0857,-3.0581,-3.0087,-2.9435,-2.9108,-2.8464,-2.7419,-2.6752,-2.6321,-2.6099,-2.4553,-2.3638,0.0,0.0,0.0,0.0,0.0,0.0,0.0,0.0,0.0,0.0,0.0,-2.6569,-2.6479,-2.6139,-2.6136,-2.6723,-2.7077,-2.7732,-2.8787,-2.8644,-2.8742,-2.9404,-2.9373,-2.9694,-3.0698,-3.0781,-3.076,-3.077,-3.0977,-3.0874,-3.0087,-3.0864,-3.1516,-3.1464,-3.0833,-3.0481,-3.0677,-3.0108,-2.9694,-2.9963,-2.9994,-2.9994,-2.9994,-2.9994,-2.9994,-2.9994,-2.9994,-2.9994,-2.9973,-2.9777,-2.9611,-2.9601,-2.9415,-2.9332,-2.9487,-2.9415,-2.9249,-2.9228,-2.9228,-2.9228,-3.7599,-3.7116,-3.7116,-3.6815,-3.6345,-3.6332,-3.5979,-3.5391,-3.5391,-3.5064,-3.4489,-3.4018,-3.3483,-3.2921,-3.2908,-3.2908,-3.2908,-3.2921,-3.2908,-3.2908,-3.2908,-3.2908,-3.2908,-3.2908,-3.2908,-3.2908,-3.2842,-3.2803,-3.279,-3.2189,-3.2019,-3.2202,-3.1705,-3.2306,-3.4018,-3.5417,-3.6109,-3.607,-3.445,-3.2855,-3.1365,-3.1535,-3.181,-3.2098,-3.2058,-3.1876,-3.1602,-3.1732,-3.104,-2.951,-2.9601,-2.9118,-2.7816,-2.8147,-2.7782,0.0,-2.7321,0.0,0.0,0.0,0.0,0.0,0.0,0.0,0.0,-2.8287,-2.8183,-2.7302,-2.8943,-3.0748,-3.251,-3.3196,-3.304,-3.1825,-3.078,-2.962,-2.8484,-2.8967,-2.9394,-2.9394,-2.9798,-3.0087,-3.0139,-3.0129,-3.018,-3.0243,-3.0325,-3.0439,-3.0232,-3.0149,-3.0046,-2.9994,-2.9994,-2.9953,-2.9984,-2.9994,-2.9994,-2.9994,-2.9994,-2.9994,-2.9994,-2.9994,-2.9994,-2.9994,-2.9973,-2.9973,-2.9994,-2.9984,-2.9973,-2.9963,-2.9932,-2.9922,-2.9932,-2.9911,-2.9994,-3.7835,-3.773,-3.7743,-3.7665,-3.756,-3.756,-3.6959,-3.5953,-3.5953,-3.5639,-3.5129,-3.5025,-3.4646,-3.4097,-3.4071,-3.4071,-3.4084,-3.4071,-3.4071,-3.4071,-3.4084,-3.4071,-3.4071,-3.4084,-3.4071,-3.4045,-3.3626,-3.343,-3.3404,-3.2816,-3.3247,-3.4607,-3.4058,-3.4633,-3.6266,0.0,0.0,0.0,-3.445,-3.343,-3.3169,-3.4437,-3.4737,-3.3953,-3.3496,0.0,-3.0557,-3.1301,-3.1236,-3.0074,-3.1287,0.0,0.0,0.0,0.0,0.0,0.0,0.0,0.0,0.0,0.0,0.0,-2.9696,-2.8903,-2.7059,-2.904,-2.9509,-2.7302,-2.9166,-3.0203,-2.9478,-3.0743,-3.1505,-3.1228,-3.0945,-3.0626,-3.0327,-3.0072,-2.987,-2.987,-3.0274,-3.0563,-3.0574,-3.0874,-3.1102,-3.106,-3.1102,-3.1112,-3.1091,-3.047,-3.0036,-3.0005,-3.0067,-3.0025,-2.9994,-3.0036,-3.0087,-2.9994,-2.9994,-3.0025,-3.0046,-3.0036,-3.0015,-3.0036,-2.9994,-3.0025,-3.0025,-2.9994,-3.0056,-3.0005,-3.0015,-2.9994,-2.9994,-3.0005,-2.9952,-3.8566,0.0,-3.8305,-3.8148,0.0,-3.79,-3.756,-3.6959,-3.6671,-3.6227,-3.5704,-3.5704,-3.5378,-3.4842,-3.4842,-3.4672,-3.4397,-3.4397,-3.4397,-3.4397,-3.4397,-3.4397,-3.4397,-3.4397,-3.4397,-3.4384,-3.4123,-3.3979,-3.3953,-3.3417,-3.3587,-3.445,-3.3849,-3.4005,-3.4829,-3.4293,-3.428,-3.4855,-3.4018,-3.3169,-3.2385,-3.3143,-3.3443,-3.3156,0.0,0.0,0.0,0.0,0.0,0.0,0.0,0.0,0.0,0.0,0.0,-2.9521,-2.9682,-2.9353,-2.8499,-2.9126,-2.9813,-3.0311,-3.0278,-2.9947,-2.9261,-3.0466,-3.0415,-2.8706,-3.0054,-3.0801,-3.011,-3.0555,-3.0945,-3.093,-3.0639,-3.0474,-3.0476,-3.0402,-3.0336,-3.0377,-3.0739,-3.1019,-3.1029,-3.1215,-3.1371,-3.1381,-3.1381,-3.1391,-3.135,-3.0998,-3.0688,-3.0677,-3.0677,-3.0677,-3.0677,-3.0677,-3.0677,-3.0677,-3.0667,-3.0667,-3.0677,-3.0688,-3.0677,-3.0677,-3.0677,-3.0677,-3.0677,-3.0677,-3.0688,-3.0677,-3.0677,-3.0677,-3.0657,-3.0325,-2.9942,-3.9311,-3.8867,-3.8867,-3.854,-3.8044,-3.8044,-3.7991,-3.7874,0.0,0.0,0.0,-3.6266,-3.5966,-3.5443,-3.5443,-3.5168,-3.4698,-3.4593,-3.4567,-3.4554,-3.4437,-3.4397,-3.4397,-3.4397,-3.4397,-3.4397,-3.4397,-3.4397,-3.4384,-3.3953,-3.3744,-3.3679,-3.3143,-3.279,-3.2672,-3.2228,-3.2424,-3.3391,-3.3535,-3.2894,-3.1509,-3.1731,-3.2071,-3.2411,-3.2803,-3.2894,-3.2712,-3.3365,-3.3025,-3.1561,-3.2176,-3.2372,-3.1993,-3.2437,-3.2973,-3.36,-3.411,-3.3626,-3.1954,-3.2751,-3.2379,-3.0284,-3.0163,-3.0494,-3.1376,-3.1326,-3.0901,-2.9988,-3.115,-3.1952,-3.1957,-3.1919,-3.1771,-3.1771,-3.1255,-3.0868,-3.0726,-3.0789,-3.0998,-3.0876,-3.1215,-3.1505,-3.1495,-3.1598,-3.1619,-3.1629,-3.1702,-3.1619,-3.1598,-3.1464,-3.1288,-3.1288,-3.1247,-3.1329,-3.136,-3.1329,-3.1381,-3.1298,-3.1329,-3.1381,-3.1381,-3.1381,-3.1381,-3.1298,-3.1371,-3.134,-3.136,-3.1319,-3.1381,-3.1381,-3.1381,-3.1381,-3.1319,-3.0781,-3.0199,-3.956,-3.9481,-3.9481,-3.9141,-3.8606,-3.8593,-3.8331,-3.7913,-3.7808,-3.7429,-3.6881,-3.6881,-3.6541,-3.5992,-3.5992,-3.594,-3.5835,-3.5378,-3.5168,0.0,-3.4633,-3.4397,-3.4397,-3.4397,-3.4397,-3.4397,-3.4397,-3.4397,-3.4384,-3.4306,-3.428,-3.4214,-3.3731,-3.3221,-3.2725,-3.2607,-3.2659,-3.2829,-3.3326,-3.347,-3.326,-3.4633,-3.5208,-3.4816,-3.4319,-3.3692,-3.2764,-3.3692,-3.3953,-3.33,-3.4672,-3.4633,-3.2712,-3.262,-3.211,-3.0831,-3.0792,-3.1092,-3.1758,-3.1967,-3.2345,-3.2929,-3.281,-3.1665,-2.9182,-3.0024,-3.0384,-2.9764,-3.2078,-3.374,-3.3791,-3.4677,-3.5172,-3.5305,-3.463,-3.391,-3.3175,-3.2463,-3.1806,-3.1345,-3.1661,-3.1895,-3.1926,-3.2261,-3.2457,-3.2509,-3.2395,-3.2489,-3.2344,-3.1857,-3.1433,-3.1381,-3.1381,-3.1381,-3.1474,-3.1446,-3.1464,-3.1381,-3.1443,-3.1485,-3.1495,-3.1495,-3.1495,-3.1402,-3.1474,-3.1454,-3.1443,-3.1381,-3.1464,-3.1485,-3.1495,-3.1464,-3.1485,-3.1288,-3.1011,-4.0344,-4.0056,-4.0043,-3.9716,-3.9194,-3.9207,-3.8867,-3.8357,-3.8331,-3.8018,-3.7521,-3.7495,-3.7155,-3.6619,-3.6593,-3.641,-3.6096,-3.5848,-3.573,-3.5704,-3.5456,-3.5168,-3.4894,-3.4881,-3.4711,-3.4424,-3.4397,-3.4397,-3.4397,-3.4397,-3.4397,-3.4384,-3.4149,-3.3875,-3.3626,-3.3339,-3.3182,-3.3156,-3.2829,-3.2607,-3.262,-3.3077,-3.3208,-3.296,-3.2685,-3.2319,-3.1784,-3.2267,-3.2424,-3.2189,-3.2908,-3.2842,-3.1849,-3.1771,-3.1548,-3.1066,-3.1014,-3.138,-3.2254,-3.2607,-3.3012,-3.3561,-3.4079,-3.3394,-3.116,-3.191,-3.2223,-3.146,-3.3054,-3.3911,-3.3642,-3.373,-3.3878,-3.417,-3.3237,-3.259,-3.2539,-3.2384,-3.2022,-3.1788,-3.2081,-3.2359,-3.2359,-3.2545,-3.2669,-3.2669,-3.2669,-3.2669,-3.2669,-3.2339,-3.2106,-3.2116,-3.2106,-3.2106,-3.2095,-3.2106,-3.2106,-3.2106,-3.2106,-3.2106,-3.2106,-3.2106,-3.2095,-3.2106,-3.2095,-3.2116,-3.2095,-3.2106,-3.2116,-3.2116,-3.2116,-3.2106,-3.2106,-3.1993,-3.1539,-4.1063,-4.0631,-4.0618,-4.0292,-3.9782,-3.9651,-3.9351,-3.8919,-3.8776,-3.8475,-3.8096,-3.7965,-3.7639,-3.7233,-3.7207,-3.6946,-3.6528,-3.6371,-3.6319,-3.6292,-3.6162,-3.5887,-3.5508,-3.5482,-3.5168,-3.4659,-3.4607,-3.4528,-3.4424,-3.4397,-3.4397,-3.4397,-3.4397,-3.4397,-3.4384,-3.3979,-3.3783,-3.3705,-3.2724,-3.2124,-3.198,-3.147,-3.1169,-3.1182,-3.1078,-3.1024,-3.1024,-3.1024,-3.1024,-3.1024,-3.1024,-3.1039,-3.1169,-3.1182,-3.1431,-3.1915,-3.1993,-3.2254,-3.2855,-3.3443,-3.3835,-3.3992,-3.4789,-3.4904,-3.4084,-3.4369,-3.4247,-3.3458,-3.4042,-3.445,-3.4107,-3.3504,-3.3005,-3.3327,-3.252,-3.2371,-3.236,-3.2359,-3.2253,-3.2255,-3.2509,-3.2659,-3.2669,-3.2669,-3.2669,-3.2669,-3.2669,-3.2669,-3.2669,-3.2669,-3.2669,-3.2669,-3.2669,-3.2618,-3.2669,-3.2638,-3.2618,-3.2669,-3.2638,-3.2587,-3.2597,-3.2638,-3.2659,-3.2597,-3.2618,-3.2587,-3.2638,-3.2638,-3.2618,-3.2576,-3.2556,-3.2607,-3.253,-3.2301,-3.1872,-4.1272,-4.1232,-4.1206,-4.088,-4.0318,-3.9847,-3.9612,-3.9468,-3.8958,-3.8697,-3.8566,-3.8122,-3.7887,-3.7821,-3.7795,-3.7743,-3.7639,-3.7155,-3.692,-3.6854,-3.6358,-3.607,-3.6044,-3.6031,-3.5757,-3.526,-3.5195,-3.4907,-3.4463,-3.441,-3.4397,-3.4397,-3.4397,-3.4397,-3.4384,-3.4345,-3.4319,-3.4319,-3.3744,-3.3156,-3.262,-3.2019,-3.1719,-3.1719,-3.1274,-3.1024,-3.1089,-3.1024,-3.0999,-3.1024,-3.1013,-3.1235,-3.1654,-3.1732,-3.198,-3.2568,-3.262,-3.2881,-3.3483,-3.4005,-3.4554,-3.5077,-3.5247,-3.5583,-3.6097,-3.6141,-3.5504,-3.4586,-3.531,-3.5974,-3.6146,-3.6231,-3.6186,-3.5988,-3.561,-3.5599,-3.48,-3.4085,-3.3262,-3.268,-3.2742,-3.2669,-3.2669,-3.2669,-3.2669,-3.2669,-3.2669,-3.2669,-3.2669,-3.2669,-3.2669,-3.2669,-3.2669,-3.2669,-3.2669,-3.2669,-3.2669,-3.2669,-3.2669,-3.2669,-3.2669,-3.2669,-3.2669,-3.2669,-3.2669,-3.2669,-3.2669,-3.2669,-3.2669,-3.2669,-3.2669,-3.2612,-3.2363,-3.2143,-3.1744,-4.1311,-4.1311,-4.1311,-4.118,-4.0919,-4.071,-4.036,-4.0069,-3.9834,-3.9351,-3.8736,-3.8475,-3.82,-3.79,-3.79,-3.79,-3.7874,-3.7652,-3.7534,-3.7521,-3.7286,-3.6985,-3.6658,-3.6645,-3.6345,-3.577,-3.5456,-3.5168,-3.4907,-3.4567,-3.4397,-3.4397,-3.4397,-3.4397,-3.4397,-3.4397,-3.4397,-3.4384,-3.4188,-3.394,-3.3639,-3.2803,-3.2346,-3.2319,-3.2123,-3.2031,-3.1993,-3.2006,-3.1993,-3.1993,-3.2006,-3.2097,-3.2333,-3.2346,-3.262,-3.3169,-3.3535,-3.3966,-3.4554,-3.4816,-3.5182,-3.573,-3.6109,-3.6439,-3.6573,-3.6845,-3.6624,-3.5925,-3.6125,-3.6417,-3.642,-3.6305,-3.6086,-3.5661,-3.5155,-3.4857,-3.4866,-3.3831,-3.3198,-3.3582,-3.3115,-3.2727,-3.2669,-3.2669,-3.2669,-3.2669,-3.2669,-3.2669,-3.2669,-3.2669,-3.2669,-3.2669,-3.2669,-3.2669,-3.2669,-3.2669,-3.2669,-3.2669,-3.2669,-3.2669,-3.2669,-3.2669,-3.2669,-3.2669,-3.2669,-3.2669,-3.2669,-3.2669,-3.2669,-3.2669,-3.2669,-3.2612,-3.2363,-3.219,-3.1913,-4.1311,-4.1311,-4.1311,-4.1311,-4.1311,-4.1311,-4.1063,-4.0657,-4.0488,-3.9939,-3.9194,-3.8854,-3.8488,-3.8148,-3.7978,-3.79,-3.79,-3.79,-3.79,-3.79,-3.79,-3.7678,-3.7273,-3.7246,-3.6933,-3.6371,-3.5966,-3.5691,-3.5469,-3.492,-3.4646,-3.4633,-3.4489,-3.4397,-3.4397,-3.4397,-3.4397,-3.4397,-3.4397,-3.4397,-3.428,-3.3587,-3.3091,-3.2947,-3.2777,-3.2672,-3.2672,-3.2672,-3.2672,-3.2672,-3.2672,-3.2777,-3.2934,-3.2934,-3.3208,-3.377,-3.4332,-3.4829,-3.5286,-3.543,-3.5757,-3.6305,-3.6776,-3.6929,-3.6955,-3.7167,-3.7142,-3.6722,-3.6625,-3.6656,-3.6586,-3.637,-3.609,-3.5686,-3.5253,-3.5072,-3.5387,-3.4368,-3.4067,-3.4736,-3.4357,-3.3649,-3.366,-3.3491,-3.3275,-3.3275,-3.2955,-3.2669,-3.2669,-3.2669,-3.2669,-3.2669,-3.2669,-3.2669,-3.2669,-3.2669,-3.2669,-3.2669,-3.2669,-3.2669,-3.2669,-3.2669,-3.2669,-3.2669,-3.2669,-3.2669,-3.2669,-3.2669,-3.2669,-3.2669,-3.2669,-3.2555,-3.219,-3.219,-3.1845,-4.1311,-4.1311,-4.1311,-4.1311,-4.1311,-4.1311,-4.1298,-4.118,-4.0684,-4.037,-4.0122,-3.922,-3.871,-3.8606,-3.8161,-3.7913,-3.79,-3.79,-3.79,-3.79,-3.79,-3.7887,-3.7874,-3.7861,-3.7534,-3.6985,-3.6841,-3.6528,-3.6018,-3.5521,-3.526,-3.5221,-3.4724,-3.4424,-3.445,-3.4424,-3.4397,-3.4397,-3.4397,-3.4397,-3.4397,-3.4332,-3.4005,-3.3548,-3.3025,-3.2777,-3.2738,-3.2712,-3.2712,-3.2698,-3.2764,-3.2986,-3.3483,-3.3548,-3.3796,-3.4345,-3.4907,-3.526,-3.5404,-3.5809,-3.6332,-3.6854,-3.7037,-3.7156,-3.737,-3.7256,-3.7074,-3.6794,-3.7026,-3.7134,-3.7249,-3.7516,-3.7879,-3.8187,-3.7879,-3.7589,-3.7607,-3.6263,-3.6088,-3.6088,-3.5749,-3.5377,-3.5706,-3.5068,-3.4256,-3.3931,-3.3332,-3.268,-3.2669,-3.2669,-3.2669,-3.2669,-3.2669,-3.2669,-3.2669,-3.2669,-3.2669,-3.2669,-3.2669,-3.2669,-3.2669,-3.2669,-3.2669,-3.2669,-3.2669,-3.2669,-3.2669,-3.2669,-3.2669,-3.2669,-3.2669,-3.2487,-3.2076,-3.1903,-3.1614,-4.1311,-4.1311,-4.1311,-4.1311,-4.1311,-4.1311,-4.1311,-4.1298,-4.1076,-4.0762,-4.0396,-3.9965,-3.9403,-3.871,-3.8514,-3.8227,-3.7913,-3.79,-3.79,-3.79,-3.79,-3.79,-3.79,-3.79,-3.7821,-3.756,-3.7194,-3.6684,-3.6149,-3.5887,-3.5809,-3.5717,-3.5247,-3.4972,-3.4907,-3.458,-3.4397,-3.4397,-3.4397,-3.4397,-3.4397,-3.4397,-3.4306,-3.411,-3.3914,-3.3783,-3.3783,-3.3783,-3.3783,-3.377,-3.3796,-3.3875,-3.4071,-3.411,-3.4371,-3.4907,-3.5182,-3.5613,-3.6279,-3.6567,-3.6946,-3.7495,-3.7586,-3.758,-3.7651,-3.7518,-3.7402,-3.7453,-3.7432,-3.7632,-3.819,-3.8454,-3.8315,-3.7876,-3.7835,-3.7938,-3.7566,-3.6317,-3.5608,-3.6684,-3.6143,-3.4847,-3.4346,-3.3593,-3.3388,-3.3332,-3.2944,-3.2727,-3.2669,-3.2669,-3.2669,-3.2669,-3.2669,-3.2669,-3.2669,-3.2669,-3.2669,-3.2669,-3.2669,-3.2669,-3.2669,-3.2669,-3.2669,-3.2669,-3.2669,-3.2669,-3.2669,-3.2669,-3.2669,-3.2669,-3.2669,-3.244,-3.1903,-3.1845,-3.1508,-4.1311,-4.1311,-4.1311,-4.1311,-4.1311,-4.1311,-4.1311,-4.1311,-4.1311,-4.1089,-4.0723,-4.0501,-3.9978,-3.9272,-3.888,-3.8527,-3.8161,-3.7991,-3.79,-3.79,-3.79,-3.79,-3.79,-3.79,-3.79,-3.7848,-3.7508,-3.7063,-3.6698,-3.6488,-3.6397,-3.6358,-3.5835,-3.5561,-3.5469,-3.4972,-3.4698,-3.4672,-3.4502,-3.4397,-3.4397,-3.4397,-3.4397,-3.4397,-3.4397,-3.4397,-3.4397,-3.4397,-3.4397,-3.4397,-3.4397,-3.4489,-3.4659,-3.4698,-3.4946,-3.5482,-3.5757,-3.6162,-3.6881,-3.7181,-3.7469,-3.7848,-3.79,-3.79,-3.7867,-3.772,-3.7724,-3.7855,-3.8039,-3.8313,-3.8781,-3.9082,-3.8814,-3.8145,-3.8282,-3.8489,-3.8425,-3.7192,-3.6923,-3.7406,-3.6696,-3.5289,-3.4032,-3.3593,-3.3378,-3.3275,-3.3012,-3.2669,-3.2669,-3.2669,-3.2669,-3.2669,-3.2669,-3.2669,-3.2669,-3.2669,-3.2669,-3.2669,-3.2669,-3.2669,-3.2669,-3.2669,-3.2669,-3.2669,-3.2669,-3.2669,-3.2669,-3.2669,-3.2669,-3.2669,-3.2669,-3.2498,-3.2143,-3.1845,-3.145,-4.1311,-4.1311,-4.1311,-4.1311,-4.1311,-4.1311,-4.1311,-4.1311,-4.1311,-4.1272,-4.1141,-4.071,-4.0409,-4.0135,-3.9298,-3.8762,-3.8566,-3.8187,-3.7952,-3.7913,-3.79,-3.79,-3.79,-3.79,-3.79,-3.79,-3.7887,-3.7848,-3.7717,-3.726,-3.7011,-3.6894,-3.641,-3.6123,-3.6109,-3.5587,-3.5299,-3.5195,-3.4816,-3.4515,-3.441,-3.4515,-3.4541,-3.4476,-3.4515,-3.4554,-3.4489,-3.4437,-3.4397,-3.4397,-3.4437,-3.4698,-3.5208,-3.5299,-3.5534,-3.6083,-3.6619,-3.6933,-3.709,-3.7547,-3.7808,-3.79,-3.79,-3.7926,-3.7918,-3.7903,-3.7894,-3.8117,-3.8499,-3.8894,-3.9007,-3.9333,-3.9558,-3.962,-3.9465,-3.9465,-3.953,-3.9581,-3.9141,-3.8056,-3.7459,-3.7287,-3.6251,-3.4958,-3.4201,-3.3875,-3.3275,-3.2669,-3.2669,-3.2669,-3.2669,-3.2669,-3.2669,-3.2669,-3.2669,-3.2669,-3.2669,-3.2669,-3.2669,-3.2669,-3.2669,-3.2669,-3.2669,-3.2669,-3.2669,-3.2669,-3.2669,-3.2669,-3.2612,-3.2612,-3.2612,-3.244,-3.1971,-3.1614,-3.1392,-4.1311,-4.1311,-4.1311,-4.1311,-4.1311,-4.1311,-4.1311,-4.1311,-4.1311,-4.1311,-4.1272,-4.1115,-4.0814,-4.0435,-4.0004,-3.9455,-3.8736,-3.8514,-3.8266,-3.7965,-3.79,-3.79,-3.79,-3.79,-3.79,-3.79,-3.79,-3.79,-3.7874,-3.7704,-3.7612,-3.7508,-3.7011,-3.675,-3.6698,-3.6162,-3.5861,-3.5822,-3.5678,-3.5404,-3.5103,-3.5378,-3.5391,-3.5103,-3.5378,-3.5574,-3.5547,-3.4816,-3.4424,-3.4424,-3.4803,-3.5273,-3.573,-3.5861,-3.6123,-3.6645,-3.6881,-3.722,-3.7586,-3.7782,-3.79,-3.79,-3.79,-3.8017,-3.813,-3.8019,-3.8181,-3.8634,-3.8881,-3.9045,-3.9371,-3.9572,-3.9697,-3.9697,-3.9697,-3.9697,-3.9697,-3.9697,-3.8712,-3.7233,-3.7394,-3.7019,-3.5608,-3.4647,-3.4312,-3.3547,-3.3001,-3.2784,-3.2727,-3.2669,-3.2669,-3.2669,-3.2669,-3.2669,-3.2669,-3.2669,-3.2669,-3.2669,-3.2669,-3.2669,-3.2669,-3.2669,-3.2669,-3.2669,-3.2669,-3.2669,-3.2669,-3.2669,-3.2612,-3.2498,-3.243,-3.2086,-3.1614,-3.1392,-3.1286,-4.1311,-4.1311,-4.1311,-4.1311,-4.1311,-4.1311,-4.1311,-4.1311,-4.1311,-4.1311,-4.1311,-4.1311,-4.1128,-4.0762,-4.0527,-4.003,-3.9324,-3.8932,-3.8527,-3.82,-3.7965,-3.79,-3.79,-3.79,-3.79,-3.79,-3.79,-3.79,-3.79,-3.79,-3.79,-3.7808,-3.7521,-3.7351,-3.7286,-3.675,-3.6436,-3.6423,-3.6201,-3.5926,-3.573,-3.5926,-3.594,-3.5691,-3.5926,-3.6083,-3.6031,-3.5391,-3.5025,-3.5077,-3.5404,-3.5861,-3.6371,-3.6449,-3.6711,-3.7194,-3.7364,-3.7521,-3.7861,-3.7887,-3.79,-3.7913,-3.8083,-3.8285,-3.8441,-3.8415,-3.8819,-3.9181,-3.926,-3.932,-3.9609,-3.9697,-3.9697,-3.9697,-3.9697,-3.9697,-3.9697,-3.9697,-3.8933,-3.7619,-3.7512,-3.6858,-3.5717,-3.5124,-3.4636,-3.366,-3.3388,-3.3058,-3.2887,-3.2669,-3.2727,-3.2727,-3.2669,-3.2669,-3.2669,-3.2669,-3.2669,-3.2669,-3.2669,-3.2669,-3.2669,-3.2669,-3.2669,-3.2669,-3.2669,-3.2669,-3.2669,-3.2669,-3.2669,-3.2487,-3.2305,-3.2076,-3.173,-3.1441,-3.1276,-4.1311,-4.1311,-4.1311,-4.1311,-4.1311,-4.1311,-4.1311,-4.1311,-4.1311,-4.1311,-4.1311,-4.1311,-4.1298,-4.1167,-4.0762,-4.0448,-4.0213,-3.9403,-3.8828,-3.8566,-3.824,-3.8004,-3.7913,-3.79,-3.79,-3.79,-3.79,-3.79,-3.79,-3.79,-3.79,-3.7887,-3.7848,-3.7874,-3.7717,-3.7312,-3.705,-3.6985,-3.6554,-3.6305,-3.6188,-3.6266,-3.6227,-3.6188,-3.6279,-3.6358,-3.6358,-3.6266,-3.6188,-3.6149,-3.6136,-3.6436,-3.692,-3.705,-3.7325,-3.7782,-3.7874,-3.7848,-3.79,-3.79,-3.7952,-3.8057,-3.8397,-3.8729,-3.8869,-3.9246,-3.9504,-3.9611,-3.9652,-3.9698,-3.9736,-3.9697,-3.9697,-3.9697,-3.9697,-3.9697,-3.9697,-3.9697,-3.9141,-3.8332,-3.795,-3.7554,-3.6522,-3.6294,-3.5706,-3.4958,-3.458,-3.4145,-3.3593,-3.3378,-3.2944,-3.2887,-3.3001,-3.2669,-3.2669,-3.2669,-3.2669,-3.2669,-3.2669,-3.2669,-3.2669,-3.2669,-3.2669,-3.2669,-3.2669,-3.2669,-3.2669,-3.2669,-3.2555,-3.2373,-3.219,-3.2076,-3.1787,-3.1392,-3.116,-4.1311,-4.1311,-4.1311,-4.1311,-4.1311,-4.1311,-4.1311,-4.1311,-4.1311,-4.1311,-4.1311,-4.1311,-4.1311,-4.1285,-4.1141,-4.0853,-4.0422,-4.0082,-3.9429,-3.8776,-3.8579,-3.8253,-3.7965,-3.79,-3.79,-3.79,-3.79,-3.79,-3.79,-3.79,-3.79,-3.79,-3.79,-3.79,-3.7848,-3.7717,-3.7665,-3.7652,-3.7521,-3.7168,-3.6881,-3.7181,-3.7194,-3.6828,-3.7168,-3.7364,-3.7416,-3.7429,-3.7194,-3.6802,-3.6763,-3.705,-3.756,-3.7625,-3.7704,-3.7835,-3.79,-3.79,-3.79,-3.7926,-3.8083,-3.8449,-3.8697,-3.8981,-3.9635,-3.9799,-3.995,-3.9943,-3.9981,-3.9878,-3.9736,-3.9697,-3.9697,-3.9697,-3.9697,-3.9697,-3.9697,-3.9697,-3.953,-3.931,-3.9141,-3.8542,-3.7832,-3.7394,-3.7019,-3.6088,-3.5706,-3.5542,-3.4891,-3.4134,-3.3706,-3.3604,-3.3491,-3.3001,-3.2669,-3.2669,-3.2669,-3.2669,-3.2669,-3.2669,-3.2669,-3.2669,-3.2669,-3.2669,-3.2669,-3.2669,-3.2669,-3.2669,-3.2498,-3.2315,-3.2133,-3.196,-3.145,-3.0995,-3.0995,-4.1311,-4.1311,-4.1311,-4.1311,-4.1311,-4.1311,-4.1311,-4.1311,-4.1311,-4.1311,-4.1311,-4.1311,-4.1311,-4.1311,-4.1298,-4.1141,-4.0801,-4.0527,-3.9926,-3.9141,-3.8579,-3.8187,-3.7952,-3.79,-3.79,-3.79,-3.79,-3.79,-3.79,-3.79,-3.79,-3.79,-3.79,-3.79,-3.79,-3.79,-3.79,-3.7887,-3.7887,-3.7704,-3.7456,-3.7704,-3.7717,-3.7482,-3.7743,-3.79,-3.79,-3.7887,-3.7717,-3.7442,-3.739,-3.7547,-3.7848,-3.79,-3.79,-3.79,-3.79,-3.79,-3.7952,-3.8096,-3.8383,-3.8749,-3.9063,-3.9607,-4.006,-4.0273,-4.0398,-4.0262,-4.0173,-3.9981,-3.9788,-3.9697,-3.9697,-3.9697,-3.9697,-3.9697,-3.9697,-3.9697,-3.9697,-3.9697,-3.9645,-3.953,-3.8712,-3.8647,-3.8056,-3.7287,-3.69,-3.6576,-3.6088,-3.5223,-3.4525,-3.4312,-3.366,-3.2944,-3.2669,-3.2669,-3.2669,-3.2669,-3.2669,-3.2669,-3.2669,-3.2669,-3.2669,-3.2669,-3.2669,-3.2669,-3.2669,-3.2669,-3.2612,-3.244,-3.2133,-3.1845,-3.145,-3.0995,-3.1005,-4.1311,-4.1311,-4.1311,-4.1311,-4.1311,-4.1311,-4.1311,-4.1311,-4.1311,-4.1311,-4.1311,-4.1311,-4.1311,-4.1311,-4.1311,-4.1298,-4.1246,-4.0801,-4.0265,-3.9507,-3.8736,-3.8096,-3.8096,-3.7939,-3.7913,-3.79,-3.79,-3.79,-3.79,-3.79,-3.79,-3.79,-3.79,-3.79,-3.79,-3.79,-3.79,-3.79,-3.79,-3.7874,-3.7795,-3.7861,-3.7848,-3.7835,-3.7835,-3.79,-3.79,-3.79,-3.7861,-3.7887,-3.79,-3.7861,-3.79,-3.79,-3.79,-3.79,-3.7913,-3.7926,-3.8057,-3.8436,-3.8802,-3.9089,-3.9886,-4.0448,-4.052,-4.0772,-4.0781,-4.044,-4.0287,-4.0044,-3.9749,-3.9697,-3.9697,-3.9697,-3.9697,-3.9697,-3.9697,-3.9697,-3.9697,-3.9697,-3.9697,-3.9697,-3.9697,-3.9645,-3.9258,-3.8384,-3.8096,-3.7885,-3.7073,-3.6045,-3.5388,-3.4902,-3.3976,-3.2784,-3.2669,-3.2669,-3.2669,-3.2669,-3.2669,-3.2669,-3.2669,-3.2669,-3.2669,-3.2669,-3.2669,-3.2669,-3.2669,-3.2669,-3.2669,-3.2555,-3.2248,-3.2076,-3.1787,-3.1392,-3.116,-4.1311,-4.1311,-4.1311,-4.1311,-4.1311,-4.1311,-4.1311,-4.1311,-4.1311,-4.1311,-4.1311,-4.1311,-4.1311,-4.1311,-4.1311,-4.1311,-4.1298,-4.1089,-4.0814,-4.0135,-3.9063,-3.8579,-3.8436,-3.8161,-3.7926,-3.79,-3.79,-3.79,-3.79,-3.79,-3.79,-3.79,-3.79,-3.79,-3.79,-3.79,-3.79,-3.79,-3.79,-3.79,-3.79,-3.79,-3.79,-3.79,-3.79,-3.79,-3.79,-3.79,-3.79,-3.79,-3.79,-3.79,-3.79,-3.79,-3.79,-3.7913,-3.7939,-3.8109,-3.8462,-3.871,-3.9115,-3.9886,-4.0226,-4.0605,-4.1089,-4.1093,-4.0959,-4.0605,-4.0453,-4.0147,-3.98,-3.9697,-3.9697,-3.9697,-3.9697,-3.9697,-3.9697,-3.9697,-3.9697,-3.9697,-3.9697,-3.9697,-3.9697,-3.9697,-3.9478,-3.931,-3.9193,-3.9141,-3.8161,-3.6858,-3.6088,-3.5443,-3.3931,-3.2784,-3.2784,-3.2898,-3.3172,-3.3161,-3.3105,-3.2727,-3.2727,-3.2669,-3.2669,-3.2669,-3.2669,-3.2669,-3.2669,-3.2669,-3.2669,-3.2487,-3.2373,-3.219,-3.196,-3.1614,-3.1325,-4.1311,-4.1311,-4.1311,-4.1311,-4.1311,-4.1311,-4.1311,-4.1311,-4.1311,-4.1311,-4.1311,-4.1311,-4.1311,-4.1311,-4.1311,-4.1311,-4.1232,-4.0997,-4.0723,-4.0252,-3.952,-3.9155,-3.9011,-3.8553,-3.8174,-3.7965,-3.79,-3.79,-3.79,-3.79,-3.79,-3.79,-3.79,-3.79,-3.79,-3.79,-3.79,-3.79,-3.79,-3.79,-3.79,-3.79,-3.79,-3.79,-3.79,-3.79,-3.79,-3.79,-3.79,-3.79,-3.79,-3.79,-3.79,-3.79,-3.79,-3.7926,-3.8187,-3.8357,-3.8684,-3.9233,-3.9734,-4.0357,-4.0644,-4.0958,-4.1169,-4.1211,-4.0896,-4.0593,-4.0338,-4.0147,-3.9749,-3.9697,-3.9697,-3.9697,-3.9697,-3.9697,-3.9697,-3.9697,-3.9697,-3.9697,-3.9697,-3.9697,-3.9697,-3.9697,-3.9697,-3.9478,-3.9478,-3.9413,-3.8816,-3.7607,-3.6522,-3.5487,-3.3818,-3.2841,-3.2898,-3.3172,-3.3717,-3.3829,-3.3818,-3.3275,-3.283,-3.2784,-3.2669,-3.2669,-3.2669,-3.2669,-3.2669,-3.2669,-3.2669,-3.2612,-3.2487,-3.2315,-3.2086,-3.1787,-3.1498,-4.1311,-4.1311,-4.1311,-4.1311,-4.1311,-4.1311,-4.1311,-4.1311,-4.1311,-4.1311,-4.1311,-4.1311,-4.1311,-4.1311,-4.1311,-4.1311,-4.1193,-4.0919,-4.0684,-4.0566,-4.003,-3.9756,-3.9586,-3.9128,-3.8671,-3.8174,-3.7978,-3.7926,-3.79,-3.79,-3.79,-3.79,-3.79,-3.79,-3.79,-3.79,-3.79,-3.79,-3.79,-3.79,-3.79,-3.79,-3.79,-3.79,-3.79,-3.79,-3.79,-3.79,-3.79,-3.79,-3.79,-3.7939,-3.8004,-3.7926,-3.7991,-3.8031,-3.8436,-3.8802,-3.922,-3.9821,-4.0383,-4.0527,-4.0971,-4.1209,-4.1211,-4.1047,-4.0795,-4.0491,-4.0185,-3.9942,-3.9749,-3.9697,-3.9697,-3.9697,-3.9697,-3.9697,-3.9697,-3.9697,-3.9697,-3.9697,-3.9697,-3.9697,-3.9697,-3.9697,-3.9697,-3.9697,-3.9697,-3.9581,-3.9037,-3.8267,-3.7168,-3.6414,-3.5002,-3.4246,-3.4201,-3.4201,-3.4692,-3.4525,-3.458,-3.3875,-3.3161,-3.283,-3.2784,-3.2669,-3.2669,-3.2669,-3.2669,-3.2669,-3.2669,-3.2669,-3.2612,-3.2487,-3.2258,-3.2028,-3.173,-4.1311,-4.1311,-4.1311,-4.1311,-4.1311,-4.1311,-4.1311,-4.1311,-4.1311,-4.1311,-4.1311,-4.1311,-4.1311,-4.1311,-4.1311,-4.1311,-4.1259,-4.1102,-4.1089,-4.101,-4.0566,-4.0305,-4.0174,-3.9716,-3.939,-3.9076,-3.8527,-3.8057,-3.7952,-3.79,-3.79,-3.79,-3.79,-3.79,-3.79,-3.79,-3.79,-3.79,-3.79,-3.79,-3.79,-3.79,-3.79,-3.79,-3.79,-3.79,-3.79,-3.79,-3.79,-3.79,-3.79,-3.8148,-3.837,-3.8174,-3.824,-3.8527,-3.8776,-3.9207,-3.9873,-4.0252,-4.0697,-4.1023,-4.1259,-4.1185,-4.1047,-4.0946,-4.0681,-4.0287,-3.9993,-3.98,-3.9697,-3.9697,-3.9697,-3.9697,-3.9697,-3.9697,-3.9697,-3.9697,-3.9697,-3.9697,-3.9697,-3.9697,-3.9697,-3.9697,-3.9697,-3.9697,-3.9697,-3.9697,-3.9426,-3.8699,-3.7779,-3.7126,-3.6576,-3.6088,-3.5815,-3.5761,-3.587,-3.5443,-3.5168,-3.4413,-3.3762,-3.3105,-3.283,-3.2727,-3.2669,-3.2669,-3.2669,-3.2669,-3.2669,-3.2669,-3.2669,-3.2612,-3.2373,-3.2143,-3.1797,-4.1311,-4.1311,-4.1311,-4.1311,-4.1311,-4.1311,-4.1311,-4.1311,-4.1311,-4.1311,-4.1311,-4.1311,-4.1311,-4.1311,-4.1311,-4.1311,-4.1311,-4.1311,-4.1311,-4.1219,-4.1023,-4.0893,-4.0788,-4.0278,-4.0069,-3.9795,-3.9194,-3.8579,-3.8305,-3.8018,-3.7978,-3.79,-3.79,-3.79,-3.79,-3.79,-3.7926,-3.7926,-3.7913,-3.7913,-3.79,-3.79,-3.79,-3.79,-3.79,-3.79,-3.79,-3.79,-3.79,-3.7952,-3.8174,-3.8436,-3.8632,-3.8828,-3.8893,-3.9181,-3.9416,-3.9756,-4.0396,-4.0657,-4.1036,-4.1232,-4.1311,-4.1261,-4.1097,-4.0946,-4.063,-4.0236,-4.0032,-3.9839,-3.9749,-3.9697,-3.9697,-3.9697,-3.9697,-3.9697,-3.9697,-3.9697,-3.9697,-3.9697,-3.9697,-3.9697,-3.9697,-3.9697,-3.9697,-3.9697,-3.9697,-3.9697,-3.9697,-3.8985,-3.8161,-3.7779,-3.734,-3.718,-3.69,-3.6846,-3.6684,-3.6306,-3.5542,-3.4792,-3.3987,-3.3161,-3.283,-3.2727,-3.2669,-3.2669,-3.2669,-3.2669,-3.2669,-3.2669,-3.2669,-3.2612,-3.2487,-3.2258,-3.1913,-4.1311,-4.1311,-4.1311,-4.1311,-4.1311,-4.1311,-4.1311,-4.1311,-4.1311,-4.1311,-4.1311,-4.1311,-4.1311,-4.1311,-4.1311,-4.1311,-4.1311,-4.1311,-4.1311,-4.1311,-4.1285,-4.1298,-4.1154,-4.0906,-4.0592,-4.0514,-3.9991,-3.9468,-3.8932,-3.8579,-3.8318,-3.8383,-3.8292,-3.824,-3.8331,-3.8436,-3.8227,-3.8083,-3.807,-3.8044,-3.7926,-3.79,-3.79,-3.79,-3.79,-3.7952,-3.8109,-3.8135,-3.8253,-3.8423,-3.8684,-3.8958,-3.9115,-3.9507,-3.9808,-3.9978,-4.0265,-4.0422,-4.0723,-4.0971,-4.1232,-4.1311,-4.1311,-4.1261,-4.1097,-4.0833,-4.0478,-4.0134,-3.9981,-3.989,-3.9749,-3.9697,-3.9697,-3.9697,-3.9697,-3.9697,-3.9697,-3.9697,-3.9697,-3.9697,-3.9697,-3.9697,-3.9697,-3.9697,-3.9697,-3.9697,-3.9697,-3.9697,-3.9645,-3.9206,-3.8607,-3.8332,-3.8056,-3.7991,-3.7832,-3.7725,-3.7447,-3.6954,-3.587,-3.4792,-3.3931,-3.3001,-3.2841,-3.2669,-3.2669,-3.2669,-3.2669,-3.2669,-3.2669,-3.2669,-3.2669,-3.2612,-3.243,-3.2315,-3.2076,-4.1311,-4.1311,-4.1311,-4.1311,-4.1311,-4.1311,-4.1311,-4.1311,-4.1311,-4.1311,-4.1311,-4.1311,-4.1311,-4.1311,-4.1311,-4.1311,-4.1311,-4.1311,-4.1311,-4.1311,-4.1311,-4.1311,-4.1311,-4.1285,-4.1102,-4.1023,-4.0579,-4.0043,-3.9612,-3.9416,-3.9324,-3.9285,-3.922,-3.9364,-3.9168,-3.9141,-3.9128,-3.871,-3.8619,-3.841,-3.807,-3.8018,-3.8018,-3.8004,-3.8044,-3.8227,-3.8579,-3.8645,-3.8802,-3.9259,-3.9416,-3.9743,-4.0122,-4.0204,-4.0631,-4.0788,-4.0801,-4.0657,-4.1063,-4.1246,-4.1311,-4.1311,-4.1311,-4.1161,-4.0946,-4.063,-4.0224,-3.9788,-3.9788,-3.98,-3.9749,-3.9697,-3.9697,-3.9697,-3.9697,-3.9697,-3.9697,-3.9697,-3.9697,-3.9697,-3.9697,-3.9697,-3.9697,-3.9697,-3.9697,-3.9697,-3.9697,-3.9697,-3.9645,-3.9258,-3.9102,-3.8881,-3.8816,-3.8712,-3.8372,-3.8319,-3.7672,-3.7287,-3.6045,-3.4736,-3.3762,-3.2944,-3.2784,-3.2669,-3.2669,-3.2669,-3.2669,-3.2669,-3.2669,-3.2669,-3.2669,-3.2545,-3.2363,-3.2248,-3.2248,-4.1311,-4.1311,-4.1311,-4.1311,-4.1311,-4.1311,-4.1311,-4.1311,-4.1311,-4.1311,-4.1311,-4.1311,-4.1311,-4.1311,-4.1311,-4.1311,-4.1311,-4.1311,-4.1311,-4.1311,-4.1311,-4.1311,-4.1311,-4.1311,-4.1311,-4.1246,-4.1076,-4.0893,-4.0461,-3.9926,-3.9625,-3.9664,-3.9638,-3.956,-3.9743,-3.9638,-3.9468,-3.9272,-3.9207,-3.9102,-3.8932,-3.8854,-3.8854,-3.8854,-3.8841,-3.8985,-3.9128,-3.922,-3.9311,-3.9664,-3.9847,-4.0148,-4.0448,-4.0697,-4.1063,-4.1206,-4.1089,-4.1063,-4.1259,-4.1311,-4.1311,-4.1311,-4.1261,-4.1211,-4.0946,-4.0681,-4.0326,-3.9968,-3.9929,-3.989,-3.9749,-3.9697,-3.9697,-3.9697,-3.9697,-3.9697,-3.9697,-3.9697,-3.9697,-3.9697,-3.9697,-3.9697,-3.9697,-3.9697,-3.9697,-3.9697,-3.9697,-3.9697,-3.9697,-3.9594,-3.953,-3.953,-3.9478,-3.9478,-3.8985,-3.8647,-3.7447,-3.6792,-3.5663,-3.4413,-3.3547,-3.2944,-3.283,-3.2727,-3.2727,-3.2727,-3.2669,-3.2669,-3.2669,-3.2669,-3.2669,-3.2545,-3.2487,-3.2487,-3.243,-4.1311,-4.1311,-4.1311,-4.1311,-4.1311,-4.1311,-4.1311,-4.1311,-4.1311,-4.1311,-4.1311,-4.1311,-4.1311,-4.1311,-4.1311,-4.1311,-4.1311,-4.1311,-4.1311,-4.1311,-4.1311,-4.1311,-4.1311,-4.1311,-4.1311,-4.1311,-4.1259,-4.1193,-4.0984,-4.0592,-4.0161,-4.003,-4.0213,-4.0148,-4.0082,-4.0122,-4.0069,-3.9808,-3.9625,-3.9547,-3.952,-3.9534,-3.9547,-3.9573,-3.9625,-3.9677,-3.9795,-3.9808,-3.9821,-4.0187,-4.0435,-4.0671,-4.0775,-4.1036,-4.1219,-4.1311,-4.1219,-4.1246,-4.1298,-4.1311,-4.1311,-4.1311,-4.1261,-4.1211,-4.0946,-4.0883,-4.0732,-4.0224,-4.007,-3.9981,-3.9826,-3.98,-3.9697,-3.9697,-3.9697,-3.9697,-3.9697,-3.9697,-3.9697,-3.9697,-3.9697,-3.9697,-3.9697,-3.9697,-3.9697,-3.9697,-3.9697,-3.9697,-3.9697,-3.9697,-3.9697,-3.9697,-3.9697,-3.9697,-3.9362,-3.8712,-3.7554,-3.6468,-3.5333,-3.4525,-3.3875,-3.3275,-3.2944,-3.2887,-3.2887,-3.2727,-3.2669,-3.2669,-3.2669,-3.2669,-3.2669,-3.2669,-3.2669,-3.2669,-3.2612,-4.1311,-4.1311,-4.1311,-4.1311,-4.1311,-4.1311,-4.1311,-4.1311,-4.1311,-4.1311,-4.1311,-4.1311,-4.1311,-4.1311,-4.1311,-4.1311,-4.1311,-4.1311,-4.1311,-4.1311,-4.1311,-4.1311,-4.1311,-4.1311,-4.1311,-4.1311,-4.1311,-4.1311,-4.1285,-4.1141,-4.1036,-4.118,-4.0906,-4.1089,-4.1063,-4.088,-4.0697,-4.0383,-4.0056,-3.9821,-3.9795,-3.9782,-3.9769,-3.973,-3.9716,-3.9834,-4.0269,-4.037,-4.0527,-4.0958,-4.105,-4.1115,-4.1128,-4.1232,-4.1311,-4.1311,-4.1311,-4.1311,-4.1311,-4.1311,-4.1311,-4.1311,-4.1261,-4.1211,-4.0933,-4.0883,-4.0732,-4.044,-4.0236,-4.0083,-3.9981,-3.989,-3.9749,-3.9697,-3.9697,-3.9697,-3.9697,-3.9697,-3.9697,-3.9697,-3.9697,-3.9697,-3.9697,-3.9697,-3.9697,-3.9697,-3.9697,-3.9697,-3.9697,-3.9697,-3.9697,-3.9697,-3.9697,-3.9645,-3.9581,-3.8764,-3.7672,-3.6738,-3.5772,-3.5124,-3.458,-3.4032,-3.3751,-3.3491,-3.3547,-3.3115,-3.2669,-3.2669,-3.2669,-3.2669,-3.2669,-3.2669,-3.2669,-3.2669,-3.2669,-4.1311,-4.1311,-4.1311,-4.1311,-4.1311,-4.1311,-4.1311,-4.1311,-4.1311,-4.1311,-4.1311,-4.1311,-4.1311,-4.1311,-4.1311,-4.1311,-4.1311,-4.1311,-4.1311,-4.1311,-4.1311,-4.1311,-4.1311,-4.1311,-4.1311,-4.1311,-4.1311,-4.1311,-4.1311,-4.1311,-4.1311,-4.1311,-4.1311,-4.1298,-4.1298,-4.1311,-4.1141,-4.1023,-4.0762,-4.0644,-4.0657,-4.0657,-4.0657,-4.0657,-4.0657,-4.0736,-4.0945,-4.0971,-4.1128,-4.1246,-4.1298,-4.1311,-4.1311,-4.1311,-4.1311,-4.1311,-4.1311,-4.1311,-4.1311,-4.1311,-4.1311,-4.1311,-4.1261,-4.1211,-4.0946,-4.0883,-4.0744,-4.0542,-4.0287,-4.0134,-4.0083,-3.989,-3.9697,-3.9697,-3.9697,-3.9697,-3.9697,-3.9697,-3.9697,-3.9697,-3.9697,-3.9697,-3.9697,-3.9697,-3.9697,-3.9697,-3.9697,-3.9697,-3.9697,-3.9697,-3.9697,-3.9697,-3.9697,-3.9697,-3.9633,-3.8764,-3.7779,-3.7019,-3.6208,-3.5881,-3.5553,-3.5487,-3.5157,-3.4792,-3.4043,-3.3445,-3.3001,-3.2784,-3.2669,-3.2669,-3.2669,-3.2669,-3.2669,-3.2669,-3.2669,-4.1311,-4.1311,-4.1311,-4.1311,-4.1311,-4.1311,-4.1311,-4.1311,-4.1311,-4.1311,-4.1311,-4.1311,-4.1311,-4.1311,-4.1311,-4.1311,-4.1311,-4.1311,-4.1311,-4.1311,-4.1311,-4.1311,-4.1311,-4.1311,-4.1311,-4.1311,-4.1311,-4.1311,-4.1311,-4.1311,-4.1311,-4.1311,-4.1311,-4.1311,-4.1311,-4.1311,-4.1311,-4.1311,-4.1311,-4.1311,-4.1272,-4.1259,-4.1246,-4.1232,-4.1193,-4.1206,-4.1232,-4.1219,-4.1246,-4.1298,-4.1311,-4.1311,-4.1311,-4.1311,-4.1311,-4.1311,-4.1311,-4.1311,-4.1311,-4.1311,-4.1311,-4.1311,-4.1311,-4.1211,-4.1047,-4.0946,-4.0795,-4.0643,-4.0338,-4.0134,-4.0083,-3.989,-3.9697,-3.9697,-3.9697,-3.9697,-3.9697,-3.9697,-3.9697,-3.9697,-3.9697,-3.9697,-3.9697,-3.9697,-3.9697,-3.9697,-3.9697,-3.9697,-3.9697,-3.9697,-3.9697,-3.9697,-3.9697,-3.9697,-3.9645,-3.9089,-3.8489,-3.7672,-3.7073,-3.6911,-3.6684,-3.6511,-3.6077,-3.5443,-3.4636,-3.3762,-3.3161,-3.2784,-3.2669,-3.2669,-3.2669,-3.2669,-3.2669,-3.2669,-3.2669,-4.1311,-4.1311,-4.1311,-4.1311,-4.1311,-4.1311,-4.1311,-4.1311,-4.1311,-4.1311,-4.1311,-4.1311,-4.1311,-4.1311,-4.1311,-4.1311,-4.1311,-4.1311,-4.1311,-4.1311,-4.1311,-4.1311,-4.1311,-4.1311,-4.1311,-4.1311,-4.1311,-4.1311,-4.1311,-4.1311,-4.1311,-4.1311,-4.1311,-4.1311,-4.1311,-4.1311,-4.1311,-4.1311,-4.1311,-4.1311,-4.1311,-4.1311,-4.1311,-4.1311,-4.1311,-4.1311,-4.1311,-4.1311,-4.1311,-4.1311,-4.1311,-4.1311,-4.1311,-4.1311,-4.1311,-4.1311,-4.1311,-4.1311,-4.1311,-4.1311,-4.1311,-4.1311,-4.1311,-4.1261,-4.1211,-4.1097,-4.0933,-4.0846,-4.0478,-4.0224,-4.0019,-3.9878,-3.9788,-3.9697,-3.9697,-3.9697,-3.9697,-3.9697,-3.9697,-3.9697,-3.9697,-3.9697,-3.9697,-3.9697,-3.9697,-3.9697,-3.9697,-3.9697,-3.9697,-3.9697,-3.9697,-3.9697,-3.9697,-3.9697,-3.9697,-3.9697,-3.9206,-3.8384,-3.7885,-3.7779,-3.7233,-3.6576,-3.6197,-3.5827,-3.4902,-3.3717,-3.3161,-3.2669,-3.2669,-3.2669,-3.2669,-3.2669,-3.2669,-3.2669,-3.2669,-4.1311,-4.1311,-4.1311,-4.1311,-4.1311,-4.1311,-4.1311,-4.1311,-4.1311,-4.1311,-4.1311,-4.1311,-4.1311,-4.1311,-4.1311,-4.1311,-4.1311,-4.1311,-4.1311,-4.1311,-4.1311,-4.1311,-4.1311,-4.1311,-4.1311,-4.1311,-4.1311,-4.1311,-4.1311,-4.1311,-4.1311,-4.1311,-4.1311,-4.1311,-4.1311,-4.1311,-4.1311,-4.1311,-4.1311,-4.1311,-4.1311,-4.1311,-4.1311,-4.1311,-4.1311,-4.1311,-4.1311,-4.1311,-4.1311,-4.1311,-4.1311,-4.1311,-4.1311,-4.1311,-4.1311,-4.1311,-4.1311,-4.1311,-4.1311,-4.1311,-4.1311,-4.1311,-4.1311,-4.1311,-4.1261,-4.1211,-4.1161,-4.1097,-4.0732,-4.0478,-4.0389,-4.0134,-3.9929,-3.9749,-3.9697,-3.9697,-3.9697,-3.9697,-3.9697,-3.9697,-3.9697,-3.9697,-3.9697,-3.9697,-3.9697,-3.9697,-3.9697,-3.9697,-3.9697,-3.9697,-3.9697,-3.9697,-3.9697,-3.9697,-3.9697,-3.9697,-3.9697,-3.9089,-3.8764,-3.8647,-3.795,-3.6858,-3.5991,-3.5443,-3.458,-3.3717,-3.3105,-3.2669,-3.2669,-3.2669,-3.2669,-3.2669,-3.2669,-3.2669,-3.2669,-4.1128,-4.1311,-4.1311,-4.1311,-4.1311,-4.1311,-4.1311,-4.1311,-4.1311,-4.1311,-4.1311,-4.1311,-4.1311,-4.1311,-4.1311,-4.1311,-4.1311,-4.1311,-4.1311,-4.1311,-4.1311,-4.1311,-4.1311,-4.1311,-4.1311,-4.1311,-4.1311,-4.1311,-4.1311,-4.1311,-4.1311,-4.1311,-4.1311,-4.1311,-4.1311,-4.1311,-4.1311,-4.1311,-4.1311,-4.1311,-4.1311,-4.1311,-4.1311,-4.1311,-4.1311,-4.1311,-4.1311,-4.1311,-4.1311,-4.1311,-4.1311,-4.1311,-4.1311,-4.1311,-4.1311,-4.1311,-4.1311,-4.1311,-4.1311,-4.1311,-4.1311,-4.1311,-4.1311,-4.1311,-4.1261,-4.1161,-4.1147,-4.1047,-4.0933,-4.0744,-4.0504,-4.0236,-4.0032,-3.9839,-3.9749,-3.9749,-3.9697,-3.9697,-3.9697,-3.9697,-3.9697,-3.9697,-3.9697,-3.9697,-3.9697,-3.9697,-3.9697,-3.9697,-3.9697,-3.9697,-3.9697,-3.9697,-3.9697,-3.9697,-3.9697,-3.9697,-3.9697,-3.9697,-3.9478,-3.9258,-3.8161,-3.6965,-3.5991,-3.4902,-3.4032,-3.3275,-3.2944,-3.2669,-3.2669,-3.2669,-3.2669,-3.2669,-3.2669,-3.2669,-3.2669,-4.0736,-4.1219,-4.1259,-4.1219,-4.1272,-4.1285,-4.1311,-4.1311,-4.1311,-4.1311,-4.1311,-4.1311,-4.1311,-4.1311,-4.1311,-4.1311,-4.1311,-4.1311,-4.1311,-4.1311,-4.1311,-4.1311,-4.1311,-4.1311,-4.1311,-4.1311,-4.1311,-4.1311,-4.1311,-4.1311,-4.1311,-4.1311,-4.1311,-4.1311,-4.1311,-4.1311,-4.1311,-4.1311,-4.1311,-4.1311,-4.1311,-4.1311,-4.1311,-4.1311,-4.1311,-4.1311,-4.1311,-4.1311,-4.1311,-4.1311,-4.1311,-4.1311,-4.1311,-4.1311,-4.1311,-4.1311,-4.1311,-4.1311,-4.1311,-4.1311,-4.1311,-4.1311,-4.1311,-4.1311,-4.1261,-4.1147,-4.1097,-4.1047,-4.0896,-4.0694,-4.0504,-4.0287,-4.0134,-3.9929,-3.9788,-3.9749,-3.9697,-3.9697,-3.9697,-3.9697,-3.9697,-3.9697,-3.9697,-3.9697,-3.9697,-3.9697,-3.9697,-3.9697,-3.9697,-3.9697,-3.9697,-3.9697,-3.9697,-3.9697,-3.9697,-3.9697,-3.9697,-3.9697,-3.9645,-3.931,-3.8226,-3.7073,-3.5936,-3.4803,-3.3547,-3.2887,-3.2727,-3.2669,-3.2669,-3.2669,-3.2669,-3.2669,-3.2669,-3.2669,-3.2669,-3.9939,-4.0095,-4.0095,-4.0318,-4.071,-4.1128,-4.1311,-4.1311,-4.1311,-4.1311,-4.1311,-4.1311,-4.1311,-4.1311,-4.1311,-4.1311,-4.1311,-4.1311,-4.1311,-4.1311,-4.1311,-4.1311,-4.1311,-4.1311,-4.1311,-4.1311,-4.1311,-4.1311,-4.1311,-4.1311,-4.1311,-4.1311,-4.1311,-4.1311,-4.1311,-4.1311,-4.1311,-4.1311,-4.1311,-4.1311,-4.1311,-4.1311,-4.1311,-4.1311,-4.1311,-4.1311,-4.1311,-4.1311,-4.1311,-4.1311,-4.1311,-4.1311,-4.1311,-4.1311,-4.1311,-4.1311,-4.1311,-4.1311,-4.1311,-4.1311,-4.1311,-4.1311,-4.1311,-4.1311,-4.1261,-4.1198,-4.1161,-4.111,-4.0997,-4.0858,-4.0605,-4.0389,-4.0185,-3.9929,-3.9788,-3.9749,-3.9697,-3.9697,-3.9697,-3.9697,-3.9697,-3.9697,-3.9697,-3.9697,-3.9697,-3.9697,-3.9697,-3.9697,-3.9697,-3.9697,-3.9697,-3.9697,-3.9697,-3.9697,-3.9697,-3.9697,-3.9697,-3.9697,-3.9645,-3.931,-3.8161,-3.7019,-3.5881,-3.4747,-3.3706,-3.3048,-3.2727,-3.2669,-3.2669,-3.2669,-3.2669,-3.2669,-3.2669,-3.2669,-3.2669,-3.939,-3.9612,-3.9625,-3.9795,-4.0122,-4.0438,-4.0644,-4.071,-4.1115,-4.1311,-4.1311,-4.1311,-4.1311,-4.1311,-4.1311,-4.1311,-4.1311,-4.1311,-4.1311,-4.1311,-4.1311,-4.1311,-4.1311,-4.1311,-4.1311,-4.1311,-4.1311,-4.1311,-4.1311,-4.1311,-4.1311,-4.1311,-4.1311,-4.1311,-4.1311,-4.1311,-4.1311,-4.1311,-4.1311,-4.1311,-4.1311,-4.1311,-4.1311,-4.1311,-4.1311,-4.1311,-4.1311,-4.1311,-4.1311,-4.1311,-4.1311,-4.1311,-4.1311,-4.1311,-4.1311,-4.1311,-4.1311,-4.1311,-4.1311,-4.1311,-4.1311,-4.1311,-4.1311,-4.1311,-4.1311,-4.1261,-4.1261,-4.1211,-4.1161,-4.101,-4.0744,-4.044,-4.0185,-3.9942,-3.9788,-3.9697,-3.9697,-3.9697,-3.9697,-3.9697,-3.9697,-3.9697,-3.9697,-3.9697,-3.9697,-3.9697,-3.9697,-3.9697,-3.9697,-3.9697,-3.9697,-3.9697,-3.9697,-3.9697,-3.9697,-3.9697,-3.9697,-3.9697,-3.9697,-3.9154,-3.8108,-3.7287,-3.6426,-3.5234,-3.3987,-3.3434,-3.2887,-3.2727,-3.2669,-3.2669,-3.2669,-3.2669,-3.2669,-3.2669,-3.2669,-3.9134,-3.9572,-3.9712,-3.9781,-3.969,-3.983,-3.9773,-3.973,-4.0684,-4.1193,-4.1193,-4.1285,-4.1311,-4.1311,-4.1311,-4.1311,-4.1311,-4.1311,-4.1311,-4.1311,-4.1311,-4.1311,-4.1311,-4.1311,-4.1311,-4.1311,-4.1311,-4.1311,-4.1311,-4.1311,-4.1311,-4.1311,-4.1311,-4.1311,-4.1311,-4.1311,-4.1311,-4.1311,-4.1311,-4.1311,-4.1311,-4.1311,-4.1311,-4.1311,-4.1311,-4.1311,-4.1311,-4.1311,-4.1311,-4.1311,-4.1311,-4.1311,-4.1311,-4.1311,-4.1311,-4.1311,-4.1311,-4.1311,-4.1311,-4.1311,-4.1311,-4.1311,-4.1311,-4.1311,-4.1311,-4.1311,-4.1311,-4.1261,-4.1161,-4.0946,-4.0694,-4.0389,-4.0083,-3.989,-3.98,-3.9697,-3.9697,-3.9697,-3.9697,-3.9697,-3.9697,-3.9697,-3.9697,-3.9697,-3.9697,-3.9697,-3.9697,-3.9697,-3.9697,-3.9697,-3.9697,-3.9697,-3.9697,-3.9697,-3.9697,-3.9697,-3.9697,-3.9697,-3.9697,-3.9478,-3.8712,-3.7897,-3.7031,-3.5619,-3.4145,-3.3604,-3.3105,-3.2887,-3.2669,-3.2669,-3.2669,-3.2669,-3.2669,-3.2669,-3.2669,-3.9806,-3.9429,-4.0566,-4.0681,-4.0064,-4.0481,-4.0247,-3.9625,-3.9873,-4.0252,-4.0657,-4.1063,-4.1311,-4.1311,-4.1311,-4.1311,-4.1311,-4.1311,-4.1311,-4.1311,-4.1311,-4.1311,-4.1311,-4.1311,-4.1311,-4.1311,-4.1311,-4.1311,-4.1311,-4.1311,-4.1311,-4.1311,-4.1311,-4.1311,-4.1311,-4.1311,-4.1311,-4.1311,-4.1311,-4.1311,-4.1311,-4.1311,-4.1311,-4.1311,-4.1311,-4.1311,-4.1311,-4.1311,-4.1311,-4.1311,-4.1311,-4.1311,-4.1311,-4.1311,-4.1311,-4.1311,-4.1311,-4.1311,-4.1311,-4.1311,-4.1311,-4.1311,-4.1311,-4.1311,-4.1311,-4.1311,-4.1261,-4.1211,-4.1097,-4.0846,-4.0643,-4.0338,-4.0083,-3.9942,-3.98,-3.9749,-3.9697,-3.9697,-3.9697,-3.9697,-3.9697,-3.9697,-3.9697,-3.9697,-3.9697,-3.9697,-3.9697,-3.9697,-3.9697,-3.9697,-3.9697,-3.9697,-3.9697,-3.9697,-3.9697,-3.9697,-3.9697,-3.9697,-3.9697,-3.9478,-3.9206,-3.8267,-3.7233,-3.5608,-3.4302,-3.3706,-3.3218,-3.283,-3.2669,-3.2669,-3.2669,-3.2669,-3.2669,-3.2669,-3.2669,-4.0289,-3.994,-4.0709,-4.0775,-4.0449,-4.0708,-4.0486,-4.0067,-3.9907,-3.9966,-4.0269,-4.0732,-4.1036,-4.1259,-4.1311,-4.1298,-4.1311,-4.1311,-4.1311,-4.1311,-4.1311,-4.1311,-4.1311,-4.1311,-4.1311,-4.1311,-4.1311,-4.1311,-4.1311,-4.1311,-4.1311,-4.1311,-4.1311,-4.1311,-4.1311,-4.1311,-4.1311,-4.1311,-4.1311,-4.1311,-4.1311,-4.1311,-4.1311,-4.1311,-4.1311,-4.1311,-4.1311,-4.1311,-4.1311,-4.1311,-4.1311,-4.1311,-4.1311,-4.1311,-4.1311,-4.1311,-4.1311,-4.1311,-4.1311,-4.1311,-4.1311,-4.1311,-4.1311,-4.1311,-4.1311,-4.1311,-4.1311,-4.1211,-4.1047,-4.0846,-4.0744,-4.0491,-4.0338,-4.0198,-4.0044,-3.989,-3.9788,-3.9697,-3.9697,-3.9697,-3.9697,-3.9697,-3.9697,-3.9697,-3.9697,-3.9697,-3.9697,-3.9697,-3.9697,-3.9697,-3.9697,-3.9697,-3.9697,-3.9697,-3.9697,-3.9697,-3.9697,-3.9697,-3.9697,-3.9594,-3.9362,-3.8437,-3.734,-3.587,-3.4681,-3.3818,-3.3332,-3.283,-3.2669,-3.2669,-3.2669,-3.2669,-3.2669,-3.2669,-3.2669,-4.0972,-4.0944,-4.0986,-4.0901,-4.0774,-4.0788,-4.0702,-4.0515,-4.0316,-4.0214,-4.0382,-4.0554,-4.0856,-4.1023,-4.1193,-4.1246,-4.1285,-4.1311,-4.1311,-4.1311,-4.1311,-4.1311,-4.1311,-4.1311,-4.1311,-4.1311,-4.1311,-4.1311,-4.1311,-4.1311,-4.1311,-4.1311,-4.1311,-4.1311,-4.1311,-4.1311,-4.1311,-4.1311,-4.1311,-4.1311,-4.1311,-4.1311,-4.1311,-4.1311,-4.1311,-4.1311,-4.1311,-4.1311,-4.1311,-4.1311,-4.1311,-4.1311,-4.1311,-4.1311,-4.1311,-4.1311,-4.1311,-4.1311,-4.1311,-4.1311,-4.1311,-4.1311,-4.1311,-4.1311,-4.1311,-4.1311,-4.1311,-4.1211,-4.1047,-4.0896,-4.0795,-4.0694,-4.0542,-4.0389,-4.0185,-4.0032,-3.989,-3.9749,-3.9697,-3.9697,-3.9697,-3.9697,-3.9697,-3.9697,-3.9697,-3.9697,-3.9697,-3.9697,-3.9697,-3.9697,-3.9697,-3.9697,-3.9697,-3.9697,-3.9697,-3.9697,-3.9697,-3.9697,-3.9697,-3.9697,-3.9478,-3.8542,-3.7501,-3.636,-3.5223,-3.4089,-3.3332,-3.2784,-3.2669,-3.2669,-3.2669,-3.2669,-3.2669,-3.2669,-3.2669,-4.278,-4.278,-4.278,-4.2386,-4.1811,-4.1728,-4.1296,-4.066,-4.0601,-4.0735,-4.1079,-4.1193,-4.1121,-4.0579,-4.0579,-4.0749,-4.1167,-4.1246,-4.1311,-4.1311,-4.1311,-4.1311,-4.1311,-4.1311,-4.1311,-4.1311,-4.1311,-4.1311,-4.1311,-4.1311,-4.1311,-4.1311,-4.1311,-4.1311,-4.1311,-4.1311,-4.1311,-4.1311,-4.1311,-4.1311,-4.1311,-4.1311,-4.1311,-4.1311,-4.1311,-4.1311,-4.1311,-4.1311,-4.1311,-4.1311,-4.1311,-4.1311,-4.1311,-4.1311,-4.1311,-4.1311,-4.1311,-4.1311,-4.1311,-4.1311,-4.1311,-4.1311,-4.1311,-4.1311,-4.1311,-4.1311,-4.1261,-4.1248,-4.1097,-4.0997,-4.0896,-4.0707,-4.0555,-4.0453,-4.0287,-4.0134,-3.9981,-3.9839,-3.9697,-3.9697,-3.9697,-3.9697,-3.9697,-3.9697,-3.9697,-3.9697,-3.9697,-3.9697,-3.9697,-3.9697,-3.9697,-3.9697,-3.9697,-3.9697,-3.9697,-3.9697,-3.9697,-3.9697,-3.9697,-3.9697,-3.9374,-3.8607,-3.7566,-3.636,-3.5168,-3.3987,-3.3332,-3.2669,-3.2669,-3.2669,-3.2669,-3.2669,-3.2669,-3.2669,-3.2669]},{"header":{"parameterUnit":"m.s-1","parameterCategory":1,"la1":31.0,"la2":29.5877,"lo1":-88.7671,"lo2":-86.6584,"dy":0.0162,"dx":0.0185,"nx":115,"ny":88,"refTime":"2024-07-06T12:00:00:Z","depth":0,"parameterNumber":3,"parameterNumberName":"V-component_of_WINDS"},"data":[0.0,0.0,0.0,0.0,0.0,0.0,0.0,0.0,0.0,0.0,0.0,0.0,0.0,0.0,0.0,0.0,0.0,0.0,0.0,0.0,0.0,0.0,0.0,0.0,0.0,0.0,0.0,0.0,0.0,0.0,0.0,0.0,0.0,0.0,0.0,0.0,0.0,0.0,0.0,0.0,0.0,0.0,0.0,0.0,0.0,0.0,0.0,0.0,0.0,0.0,0.0,0.0,0.0,0.0,0.0,0.0,0.0,0.0,0.0,0.0,0.0,0.0,0.0,0.0,0.0,0.0,0.0,0.0,0.0,0.0,0.0,0.0,0.0,0.0,0.0,0.0,0.0,0.0,0.0,0.0,0.0,0.0,0.0,0.0,0.0,0.0,0.0,0.0,0.0,0.0,0.0,0.0,0.0,0.0,0.0,0.0,0.0,0.0,0.0,0.0,0.0,0.0,0.0,0.0,0.0,0.0,0.0,0.0,0.0,0.0,0.0,0.0,0.0,0.0,0.0,0.0,0.0,0.0,0.0,0.0,0.0,0.0,0.0,0.0,0.0,0.0,0.0,0.0,0.0,0.0,0.0,0.0,0.0,0.0,0.0,0.0,0.0,0.0,0.0,0.0,0.0,0.0,0.0,0.0,0.0,0.0,0.0,0.0,0.0,0.0,0.0,0.0,0.0,0.0,0.0,0.0,0.0,0.0,0.0,0.0,0.0,0.0,0.0,0.0,0.0,0.0,0.0,0.0,0.0,0.0,0.0,0.0,0.0,0.0,0.0,0.0,0.0,0.0,0.0,0.0,0.0,0.0,0.0,0.0,0.0,0.0,0.0,0.0,0.0,0.0,0.0,0.0,0.0,0.0,0.0,0.0,0.0,0.0,0.0,0.0,0.0,0.0,0.0,0.0,0.0,0.0,0.0,0.0,0.0,0.0,0.0,0.0,0.0,0.0,0.0,0.0,0.0,0.0,0.0,0.0,0.0,0.0,0.0,0.0,0.0,0.0,0.0,0.0,0.0,0.0,0.0,0.0,0.0,0.0,0.0,0.0,0.0,0.0,0.0,0.0,0.0,0.0,0.0,0.0,0.0,0.0,0.0,0.0,0.0,0.0,0.0,0.0,0.0,0.0,0.0,0.0,0.0,0.0,0.0,0.0,0.0,0.0,0.0,0.0,0.0,0.0,0.0,0.0,0.0,0.0,0.0,0.0,0.0,0.0,0.0,0.0,0.0,0.0,0.0,0.0,0.0,0.0,0.0,0.0,0.0,0.0,0.0,0.0,0.0,0.0,0.0,0.0,0.0,0.0,0.0,0.0,0.0,0.0,0.0,0.0,0.0,0.0,0.0,0.0,0.0,0.0,0.0,0.0,0.0,0.0,0.0,0.0,0.0,0.0,0.0,0.0,0.0,0.0,0.0,0.0,0.0,0.0,0.0,0.0,0.0,0.0,0.0,0.0,0.0,0.0,0.0,0.0,0.0,0.0,0.0,0.0,0.0,0.0,0.0,0.0,0.0,0.0,0.0,0.0,0.0,0.0,0.0,0.0,0.0,0.0,0.0,0.0,0.0,0.0,0.0,0.0,0.0,0.0,0.0,0.0,0.0,0.0,0.0,0.0,0.0,0.0,0.0,0.0,0.0,0.0,0.0,0.0,0.0,0.0,0.0,0.0,0.0,0.0,0.0,0.0,0.0,0.0,0.0,0.0,0.0,0.0,0.0,0.0,0.0,0.0,0.0,0.0,0.0,0.0,0.0,0.0,0.0,0.0,0.0,0.0,0.0,0.0,0.0,0.0,0.0,0.0,0.0,0.0,0.0,0.0,0.0,0.0,0.0,0.0,0.0,0.0,0.0,0.0,0.0,0.0,0.0,0.0,0.0,0.0,0.0,0.0,0.0,0.0,0.0,0.0,0.0,0.0,0.0,0.0,0.0,0.0,0.0,0.0,0.0,0.0,0.0,0.0,0.0,0.0,0.0,0.0,0.0,0.0,0.0,0.0,0.0,0.0,0.0,0.0,0.0,0.0,0.0,0.0,0.0,0.0,0.0,0.0,0.0,0.0,0.0,0.0,0.0,0.0,0.0,0.0,0.0,0.0,0.0,0.0,0.0,0.0,0.0,0.0,0.0,0.0,0.0,0.0,0.0,0.0,0.0,0.0,0.0,0.0,0.0,0.0,0.0,0.0,0.0,0.0,0.0,0.0,0.0,0.0,0.0,0.0,0.0,0.0,0.0,0.0,0.0,0.0,0.0,0.0,0.0,0.0,0.0,0.0,0.0,0.0,0.0,0.0,0.0,0.0,0.0,0.0,0.0,0.0,0.0,0.0,0.0,0.0,0.0,0.0,0.0,0.0,0.0,0.0,0.0,0.0,0.0,0.0,0.0,0.0,0.0,0.0,0.0,0.0,0.0,0.0,0.0,0.0,0.0,0.0,0.0,0.0,0.0,0.0,0.0,0.0,0.0,0.0,0.0,0.0,0.0,0.0,0.0,0.0,0.0,0.0,0.0,0.0,0.0,0.0,0.0,0.0,0.0,0.0,0.0,0.0,0.0,0.0,0.0,0.0,0.0,0.0,0.0,0.0,0.0,0.0,0.0,0.0,0.0,0.0,0.0,0.0,0.0,0.0,0.0,0.0,0.0,0.0,0.0,0.0,0.0,0.0,0.0,0.0,0.0,0.0,0.0,0.0,0.0,0.0,0.0,0.0,0.0,0.0,0.0,0.0,0.0,0.0,0.0,0.0,0.0,0.0,0.0,0.0,0.0,0.0,0.0,0.0,0.0,0.0,0.0,0.0,0.0,0.0,0.0,0.0,0.0,0.0,0.0,0.0,0.0,0.0,0.0,0.0,0.0,0.0,0.0,0.0,0.0,0.0,0.0,0.0,0.0,0.0,0.0,0.0,0.0,0.0,0.0,0.0,0.0,0.0,0.0,0.0,0.0,0.0,0.0,0.0,0.0,0.0,0.0,0.0,0.0,0.0,0.0,0.0,0.0,0.0,0.0,0.0,0.0,0.0,0.0,0.0,0.0,0.0,0.0,0.0,0.0,0.0,0.0,0.0,0.0,0.0,0.0,0.0,0.0,0.0,0.0,0.0,0.0,0.0,0.0,0.0,0.0,0.0,0.0,0.0,0.0,0.0,0.0,0.0,0.0,0.0,0.0,0.0,0.0,0.0,0.0,0.0,0.0,0.0,0.0,0.0,0.0,0.0,0.0,0.0,0.0,0.0,0.0,0.0,0.0,0.0,0.0,0.0,0.0,0.0,0.0,0.0,0.0,0.0,0.0,0.0,0.0,0.0,0.0,0.0,0.0,0.0,0.0,0.0,0.0,0.0,0.0,0.0,0.0,0.0,0.0,0.0,0.0,0.0,0.0,0.0,0.0,0.0,0.0,0.0,0.0,0.0,0.0,0.0,0.0,0.0,0.0,0.0,0.0,0.0,0.0,0.0,0.0,0.0,0.0,0.0,0.0,0.0,0.0,0.0,0.0,0.0,0.0,0.0,0.0,0.0,0.0,0.0,0.0,0.0,0.0,0.0,0.0,0.0,0.0,0.0,0.0,0.0,0.0,0.0,0.0,0.0,0.0,0.0,0.0,0.0,0.0,0.0,0.0,0.0,0.0,0.0,0.0,0.0,0.0,0.0,0.0,0.0,0.0,0.0,0.0,0.0,0.0,0.0,0.0,0.0,0.0,0.0,0.0,0.0,0.0,0.0,0.0,0.0,0.0,0.0,0.0,0.0,0.0,0.0,0.0,0.0,0.0,0.0,0.0,0.0,0.0,0.0,0.0,0.0,0.0,0.0,0.0,0.0,0.0,0.0,0.0,0.0,0.0,0.0,0.0,0.0,0.0,0.0,0.0,0.0,0.0,0.0,0.0,0.0,0.0,0.0,0.0,0.0,0.0,0.0,0.0,0.0,0.0,0.0,0.0,0.0,0.0,0.0,0.0,0.0,0.0,0.0,0.0,0.0,0.0,0.0,0.0,0.0,0.0,0.0,0.0,0.0,0.0,0.0,0.0,0.0,0.0,0.0,0.0,0.0,0.0,0.0,0.0,0.0,0.0,0.0,0.0,0.0,0.0,0.0,0.0,0.0,0.0,0.0,0.0,0.0,0.0,0.0,0.0,0.0,0.0,0.0,0.0,0.0,0.0,0.0,0.0,0.0,0.0,0.0,0.0,0.0,0.0,0.0,0.0,0.0,0.0,0.0,0.0,0.0,0.0,0.0,0.0,0.0,0.0,0.0,0.0,0.0,0.0,0.0,0.0,0.0,0.0,0.0,-1.9506,0.0,0.0,0.0,0.0,0.0,0.0,0.0,0.0,0.0,0.0,0.0,0.0,0.0,0.0,0.0,0.0,0.0,0.0,0.0,0.0,0.0,0.0,0.0,0.0,0.0,0.0,0.0,0.0,0.0,0.0,0.0,0.0,0.0,0.0,0.0,0.0,0.0,0.0,0.0,0.0,0.0,0.0,0.0,0.0,0.0,0.0,0.0,0.0,0.0,0.0,0.0,0.0,0.0,0.0,0.0,0.0,0.0,0.0,0.0,0.0,0.0,0.0,0.0,0.0,0.0,0.0,0.0,0.0,0.0,0.0,0.0,0.0,0.0,0.0,0.0,0.0,0.0,0.0,0.0,0.0,0.0,0.0,0.0,0.0,0.0,0.0,0.0,0.0,0.0,0.0,0.0,0.0,0.0,0.0,0.0,0.0,0.0,0.0,0.0,0.0,0.0,0.0,0.0,0.0,0.0,0.0,0.0,0.0,0.0,0.0,-2.2511,-2.238,-2.1284,-2.0513,-2.022,0.0,0.0,0.0,0.0,0.0,0.0,0.0,0.0,0.0,0.0,0.0,0.0,0.0,0.0,0.0,0.0,0.0,0.0,0.0,0.0,0.0,0.0,0.0,0.0,0.0,0.0,0.0,0.0,0.0,0.0,0.0,0.0,0.0,0.0,0.0,0.0,0.0,0.0,0.0,0.0,0.0,0.0,0.0,0.0,0.0,0.0,0.0,0.0,0.0,0.0,0.0,0.0,0.0,0.0,0.0,0.0,0.0,0.0,0.0,0.0,0.0,0.0,0.0,0.0,0.0,0.0,0.0,0.0,0.0,0.0,0.0,0.0,0.0,0.0,0.0,0.0,0.0,0.0,0.0,0.0,0.0,0.0,0.0,0.0,0.0,0.0,0.0,0.0,0.0,0.0,0.0,0.0,0.0,0.0,0.0,0.0,0.0,0.0,0.0,0.0,0.0,0.0,0.0,0.0,0.0,0.0,0.0,0.0,0.0,0.0,0.0,0.0,-2.2438,-2.1564,-2.1354,0.0,0.0,0.0,0.0,0.0,0.0,0.0,0.0,0.0,0.0,0.0,0.0,0.0,0.0,0.0,0.0,0.0,0.0,0.0,0.0,0.0,0.0,0.0,0.0,0.0,0.0,0.0,0.0,0.0,0.0,0.0,0.0,0.0,0.0,0.0,0.0,0.0,0.0,0.0,0.0,0.0,0.0,0.0,0.0,0.0,0.0,0.0,0.0,0.0,0.0,0.0,0.0,0.0,0.0,0.0,0.0,0.0,0.0,0.0,0.0,0.0,0.0,0.0,0.0,0.0,0.0,0.0,0.0,0.0,0.0,0.0,0.0,0.0,0.0,0.0,0.0,0.0,0.0,0.0,0.0,0.0,0.0,0.0,0.0,0.0,0.0,0.0,0.0,0.0,0.0,0.0,0.0,0.0,0.0,0.0,0.0,0.0,0.0,0.0,0.0,0.0,0.0,0.0,0.0,0.0,0.0,0.0,0.0,0.0,0.0,-2.2975,-2.5537,-2.451,0.0,-2.2793,0.0,0.0,0.0,0.0,0.0,0.0,0.0,0.0,0.0,0.0,0.0,0.0,0.0,0.0,0.0,0.0,0.0,0.0,0.0,0.0,0.0,0.0,0.0,0.0,0.0,0.0,0.0,0.0,0.0,0.0,0.0,0.0,0.0,0.0,0.0,0.0,0.0,0.0,0.0,0.0,0.0,0.0,0.0,0.0,0.0,0.0,0.0,0.0,0.0,0.0,0.0,0.0,0.0,0.0,0.0,0.0,0.0,0.0,0.0,0.0,0.0,0.0,0.0,0.0,0.0,0.0,0.0,0.0,0.0,0.0,0.0,0.0,0.0,0.0,0.0,0.0,0.0,0.0,0.0,0.0,0.0,0.0,0.0,0.0,0.0,0.0,0.0,0.0,0.0,0.0,0.0,0.0,0.0,0.0,0.0,0.0,0.0,0.0,0.0,0.0,0.0,0.0,0.0,0.0,0.0,0.0,0.0,0.0,0.0,0.0,0.0,-2.5997,-2.4823,-2.3859,0.0,0.0,0.0,0.0,0.0,0.0,0.0,0.0,0.0,0.0,0.0,0.0,0.0,0.0,0.0,0.0,0.0,0.0,0.0,0.0,0.0,0.0,0.0,0.0,0.0,0.0,0.0,0.0,0.0,0.0,0.0,0.0,0.0,0.0,0.0,0.0,0.0,0.0,0.0,0.0,0.0,0.0,0.0,0.0,0.0,0.0,0.0,0.0,0.0,0.0,0.0,0.0,0.0,0.0,0.0,0.0,0.0,0.0,0.0,0.0,0.0,0.0,0.0,0.0,0.0,0.0,0.0,0.0,0.0,0.0,0.0,0.0,0.0,0.0,0.0,0.0,0.0,0.0,0.0,0.0,0.0,0.0,0.0,0.0,0.0,0.0,0.0,0.0,0.0,0.0,0.0,0.0,0.0,0.0,0.0,0.0,0.0,0.0,0.0,0.0,0.0,0.0,0.0,0.0,0.0,0.0,0.0,0.0,0.0,0.0,-2.6161,0.0,-2.7399,-2.6332,-2.5084,-2.3776,0.0,0.0,0.0,0.0,0.0,0.0,0.0,0.0,0.0,0.0,0.0,0.0,0.0,0.0,0.0,0.0,0.0,0.0,0.0,0.0,0.0,0.0,0.0,0.0,0.0,0.0,0.0,0.0,0.0,0.0,0.0,0.0,0.0,0.0,0.0,0.0,0.0,0.0,0.0,0.0,0.0,0.0,0.0,0.0,0.0,0.0,0.0,0.0,0.0,0.0,0.0,0.0,0.0,0.0,0.0,0.0,0.0,0.0,0.0,0.0,0.0,0.0,0.0,0.0,0.0,0.0,0.0,0.0,0.0,0.0,0.0,0.0,0.0,0.0,0.0,0.0,0.0,0.0,0.0,0.0,0.0,0.0,0.0,0.0,0.0,0.0,0.0,0.0,0.0,0.0,0.0,0.0,0.0,0.0,0.0,0.0,0.0,0.0,0.0,0.0,0.0,0.0,0.0,0.0,0.0,0.0,0.0,0.0,0.0,-2.7415,-2.7488,-3.0701,-3.0061,-2.7891,0.0,0.0,0.0,0.0,0.0,0.0,0.0,0.0,0.0,0.0,0.0,0.0,0.0,0.0,0.0,0.0,0.0,0.0,0.0,0.0,0.0,0.0,0.0,0.0,0.0,0.0,0.0,0.0,0.0,0.0,0.0,0.0,0.0,0.0,0.0,0.0,0.0,0.0,0.0,0.0,0.0,0.0,0.0,0.0,0.0,0.0,0.0,0.0,0.0,0.0,0.0,0.0,0.0,0.0,0.0,0.0,0.0,0.0,0.0,0.0,0.0,0.0,0.0,0.0,0.0,0.0,0.0,0.0,0.0,0.0,0.0,0.0,0.0,0.0,0.0,0.0,0.0,0.0,0.0,0.0,0.0,0.0,0.0,0.0,0.0,0.0,0.0,0.0,0.0,0.0,0.0,0.0,0.0,0.0,0.0,0.0,0.0,0.0,0.0,0.0,0.0,0.0,0.0,0.0,0.0,0.0,0.0,0.0,0.0,-2.5478,-2.6016,-2.8531,-3.2964,-2.8844,-2.6492,0.0,0.0,0.0,0.0,0.0,0.0,0.0,0.0,0.0,0.0,0.0,0.0,0.0,0.0,0.0,0.0,0.0,0.0,0.0,0.0,0.0,0.0,0.0,0.0,0.0,0.0,0.0,0.0,0.0,0.0,0.0,0.0,0.0,0.0,0.0,0.0,0.0,0.0,0.0,0.0,0.0,0.0,0.0,0.0,0.0,0.0,0.0,0.0,0.0,0.0,0.0,0.0,0.0,0.0,0.0,0.0,0.0,0.0,0.0,0.0,0.0,0.0,0.0,0.0,0.0,0.0,0.0,0.0,0.0,0.0,0.0,0.0,0.0,0.0,0.0,0.0,0.0,0.0,0.0,0.0,0.0,0.0,0.0,0.0,0.0,0.0,0.0,0.0,0.0,0.0,0.0,0.0,0.0,0.0,0.0,0.0,0.0,0.0,0.0,0.0,0.0,0.0,0.0,0.0,0.0,0.0,0.0,0.0,0.0,-2.5009,0.0,-3.0418,0.0,-2.8682,-2.6068,0.0,0.0,0.0,0.0,0.0,0.0,0.0,0.0,0.0,0.0,0.0,0.0,0.0,0.0,0.0,0.0,0.0,0.0,0.0,0.0,0.0,0.0,0.0,0.0,0.0,0.0,0.0,0.0,0.0,0.0,0.0,0.0,0.0,0.0,0.0,0.0,0.0,0.0,0.0,0.0,0.0,0.0,0.0,0.0,0.0,0.0,0.0,0.0,0.0,0.0,0.0,0.0,0.0,0.0,0.0,0.0,0.0,0.0,0.0,0.0,0.0,0.0,0.0,0.0,0.0,0.0,0.0,0.0,0.0,0.0,0.0,0.0,0.0,0.0,0.0,0.0,0.0,0.0,0.0,0.0,0.0,0.0,0.0,0.0,0.0,0.0,0.0,0.0,0.0,0.0,0.0,0.0,0.0,0.0,0.0,0.0,0.0,0.0,0.0,0.0,0.0,0.0,0.0,0.0,0.0,0.0,0.0,0.0,-2.468,-2.952,-3.227,-3.2884,-3.1528,-2.9935,-2.691,0.0,0.0,0.0,0.0,0.0,0.0,0.0,0.0,0.0,0.0,0.0,0.0,0.0,0.0,0.0,0.0,0.0,0.0,0.0,0.0,0.0,0.0,0.0,0.0,0.0,0.0,0.0,0.0,0.0,0.0,0.0,0.0,0.0,0.0,0.0,0.0,0.0,0.0,0.0,0.0,0.0,0.0,0.0,0.0,0.0,0.0,0.0,0.0,0.0,0.0,0.0,0.0,0.0,0.0,0.0,0.0,0.0,0.0,0.0,0.0,0.0,0.0,0.0,0.0,0.0,0.0,0.0,0.0,0.0,0.0,0.0,0.0,0.0,0.0,0.0,0.0,0.0,0.0,0.0,0.0,0.0,0.0,0.0,0.0,0.0,0.0,0.0,0.0,0.0,0.0,0.0,0.0,0.0,0.0,0.0,0.0,0.0,0.0,0.0,0.0,0.0,0.0,0.0,0.0,0.0,0.0,0.0,0.0,0.0,-2.7945,-2.9789,-3.1634,-3.3216,-2.8793,-2.6693,0.0,0.0,0.0,0.0,0.0,0.0,0.0,0.0,0.0,0.0,0.0,0.0,0.0,0.0,0.0,0.0,0.0,0.0,0.0,0.0,0.0,0.0,0.0,0.0,0.0,0.0,0.0,0.0,0.0,0.0,0.0,0.0,0.0,0.0,0.0,0.0,0.0,0.0,0.0,0.0,0.0,0.0,0.0,0.0,0.0,0.0,0.0,0.0,0.0,0.0,0.0,0.0,0.0,0.0,0.0,0.0,0.0,0.0,0.0,0.0,0.0,0.0,0.0,0.0,0.0,0.0,0.0,0.0,0.0,0.0,0.0,0.0,0.0,0.0,0.0,0.0,0.0,0.0,0.0,0.0,0.0,0.0,0.0,0.0,0.0,0.0,0.0,0.0,0.0,0.0,0.0,0.0,0.0,0.0,0.0,0.0,0.0,0.0,0.0,0.0,0.0,0.0,0.0,0.0,0.0,0.0,0.0,0.0,0.0,-2.9432,-3.0438,-3.1608,-3.2952,-2.842,-2.67,-2.8266,0.0,0.0,0.0,0.0,0.0,0.0,0.0,0.0,0.0,0.0,0.0,0.0,0.0,0.0,0.0,0.0,0.0,0.0,0.0,0.0,0.0,0.0,0.0,0.0,0.0,0.0,0.0,0.0,0.0,0.0,0.0,0.0,0.0,0.0,0.0,0.0,0.0,0.0,0.0,0.0,0.0,0.0,0.0,0.0,0.0,0.0,0.0,0.0,0.0,0.0,0.0,0.0,0.0,0.0,0.0,0.0,0.0,0.0,0.0,0.0,0.0,0.0,0.0,0.0,0.0,0.0,0.0,0.0,0.0,0.0,0.0,0.0,0.0,0.0,0.0,0.0,0.0,0.0,0.0,0.0,0.0,0.0,0.0,0.0,0.0,0.0,0.0,0.0,0.0,0.0,0.0,0.0,0.0,0.0,0.0,0.0,0.0,0.0,0.0,0.0,0.0,0.0,0.0,0.0,0.0,0.0,0.0,0.0,-3.3016,-3.351,-3.2834,-3.108,-2.8941,-2.7138,0.0,0.0,0.0,0.0,0.0,0.0,0.0,0.0,0.0,0.0,0.0,0.0,0.0,0.0,0.0,0.0,0.0,0.0,0.0,0.0,0.0,0.0,0.0,0.0,0.0,0.0,0.0,0.0,0.0,0.0,0.0,0.0,0.0,0.0,0.0,0.0,0.0,0.0,0.0,0.0,0.0,0.0,0.0,0.0,0.0,0.0,0.0,0.0,0.0,0.0,0.0,0.0,0.0,0.0,0.0,0.0,0.0,0.0,0.0,0.0,0.0,0.0,0.0,0.0,0.0,0.0,0.0,0.0,0.0,0.0,0.0,0.0,0.0,0.0,0.0,0.0,0.0,0.0,0.0,0.0,0.0,0.0,0.0,0.0,0.0,0.0,0.0,0.0,0.0,0.0,0.0,0.0,0.0,0.0,0.0,0.0,0.0,0.0,0.0,0.0,0.0,0.0,0.0,0.0,0.0,0.0,0.0,0.0,0.0,-3.1146,-3.2538,-3.379,-3.475,-3.1144,-2.8927,0.0,0.0,0.0,0.0,0.0,0.0,0.0,0.0,0.0,0.0,0.0,0.0,0.0,0.0,0.0,0.0,0.0,0.0,0.0,0.0,0.0,0.0,0.0,0.0,0.0,0.0,0.0,0.0,0.0,0.0,0.0,0.0,0.0,0.0,0.0,0.0,0.0,0.0,0.0,0.0,0.0,0.0,0.0,0.0,0.0,0.0,0.0,0.0,0.0,0.0,0.0,0.0,0.0,0.0,0.0,0.0,0.0,0.0,0.0,0.0,0.0,0.0,0.0,0.0,0.0,0.0,0.0,0.0,0.0,0.0,0.0,0.0,0.0,0.0,0.0,0.0,0.0,0.0,0.0,0.0,0.0,0.0,0.0,0.0,0.0,0.0,0.0,0.0,0.0,0.0,0.0,0.0,0.0,0.0,0.0,0.0,0.0,0.0,0.0,0.0,0.0,0.0,0.0,0.0,0.0,0.0,0.0,0.0,-3.1157,-3.2473,-3.2998,-3.3875,-3.5134,-3.2881,-3.0949,0.0,0.0,0.0,0.0,0.0,0.0,0.0,0.0,0.0,0.0,0.0,0.0,0.0,0.0,0.0,0.0,0.0,0.0,0.0,0.0,0.0,0.0,0.0,0.0,0.0,0.0,0.0,0.0,0.0,0.0,0.0,0.0,0.0,0.0,0.0,0.0,0.0,0.0,0.0,0.0,0.0,0.0,0.0,0.0,0.0,0.0,0.0,0.0,0.0,0.0,0.0,0.0,0.0,0.0,0.0,0.0,0.0,0.0,0.0,0.0,0.0,0.0,0.0,0.0,0.0,0.0,0.0,0.0,0.0,0.0,0.0,0.0,0.0,0.0,0.0,0.0,0.0,0.0,0.0,0.0,0.0,0.0,0.0,0.0,0.0,0.0,0.0,0.0,0.0,0.0,0.0,0.0,0.0,0.0,0.0,0.0,0.0,0.0,0.0,0.0,0.0,0.0,0.0,0.0,0.0,0.0,0.0,0.0,-3.1838,-3.4903,-3.4012,-3.3503,-3.3518,-3.4008,-3.2718,0.0,0.0,0.0,0.0,0.0,0.0,0.0,0.0,0.0,0.0,0.0,0.0,0.0,0.0,0.0,0.0,0.0,0.0,0.0,0.0,0.0,0.0,0.0,0.0,0.0,0.0,0.0,0.0,0.0,0.0,0.0,0.0,0.0,0.0,0.0,0.0,0.0,0.0,0.0,0.0,0.0,0.0,0.0,0.0,0.0,0.0,0.0,0.0,0.0,0.0,0.0,0.0,0.0,0.0,0.0,0.0,0.0,0.0,0.0,0.0,0.0,0.0,0.0,0.0,0.0,0.0,0.0,0.0,0.0,0.0,0.0,0.0,0.0,0.0,0.0,0.0,0.0,0.0,0.0,0.0,0.0,0.0,0.0,0.0,0.0,0.0,0.0,0.0,0.0,0.0,0.0,0.0,0.0,0.0,0.0,0.0,0.0,0.0,0.0,0.0,0.0,0.0,0.0,0.0,0.0,0.0,0.0,0.0,-3.2005,-3.2341,-3.3111,-3.3503,-3.3503,-3.3634,-3.2155,0.0,0.0,0.0,0.0,0.0,0.0,0.0,0.0,0.0,0.0,0.0,0.0,0.0,0.0,0.0,0.0,0.0,0.0,0.0,0.0,0.0,0.0,0.0,0.0,0.0,0.0,0.0,0.0,0.0,0.0,0.0,0.0,0.0,0.0,0.0,0.0,0.0,0.0,0.0,0.0,0.0,0.0,0.0,0.0,0.0,0.0,0.0,0.0,-2.8011,0.0,0.0,0.0,0.0,0.0,0.0,0.0,0.0,0.0,0.0,0.0,0.0,0.0,0.0,0.0,0.0,0.0,0.0,0.0,0.0,0.0,0.0,0.0,0.0,0.0,0.0,0.0,0.0,0.0,0.0,0.0,0.0,0.0,0.0,0.0,0.0,0.0,0.0,0.0,0.0,0.0,0.0,0.0,0.0,0.0,0.0,0.0,0.0,0.0,0.0,0.0,0.0,0.0,0.0,0.0,0.0,0.0,0.0,0.0,-3.3096,-3.2875,-3.3558,-3.392,-3.392,-3.3906,-3.2411,0.0,0.0,0.0,0.0,0.0,0.0,0.0,0.0,0.0,0.0,0.0,0.0,0.0,0.0,0.0,0.0,0.0,0.0,0.0,0.0,0.0,0.0,0.0,0.0,0.0,0.0,0.0,0.0,0.0,0.0,0.0,0.0,0.0,0.0,0.0,0.0,0.0,0.0,0.0,0.0,0.0,0.0,0.0,0.0,0.0,0.0,0.0,0.0,0.0,0.0,0.0,0.0,0.0,0.0,0.0,0.0,0.0,0.0,0.0,0.0,0.0,0.0,0.0,0.0,0.0,0.0,0.0,0.0,0.0,0.0,0.0,0.0,0.0,0.0,0.0,0.0,0.0,0.0,0.0,0.0,0.0,0.0,0.0,0.0,0.0,0.0,0.0,0.0,0.0,0.0,0.0,0.0,0.0,0.0,0.0,0.0,0.0,0.0,0.0,0.0,0.0,0.0,0.0,0.0,0.0,0.0,0.0,-3.3141,-3.4083,-3.4095,-3.4312,-3.438,-3.438,-3.4501,-3.305,-2.9929,0.0,0.0,0.0,0.0,0.0,0.0,0.0,0.0,0.0,0.0,0.0,0.0,0.0,0.0,0.0,0.0,0.0,0.0,0.0,0.0,0.0,0.0,0.0,0.0,0.0,0.0,0.0,0.0,0.0,0.0,0.0,0.0,0.0,0.0,0.0,0.0,0.0,0.0,-2.8442,-3.0063,0.0,0.0,0.0,0.0,0.0,0.0,0.0,0.0,-3.0116,0.0,0.0,0.0,0.0,0.0,0.0,0.0,0.0,0.0,0.0,0.0,0.0,0.0,0.0,0.0,0.0,0.0,0.0,0.0,0.0,0.0,0.0,0.0,0.0,0.0,0.0,0.0,0.0,0.0,0.0,0.0,0.0,0.0,0.0,0.0,0.0,0.0,0.0,0.0,0.0,0.0,0.0,0.0,0.0,0.0,0.0,0.0,0.0,0.0,0.0,0.0,0.0,0.0,0.0,0.0,0.0,-3.2034,-3.2989,-3.3227,-3.2832,-3.3829,-3.438,-3.4428,-3.4922,-3.3736,-3.0657,0.0,0.0,0.0,0.0,0.0,0.0,0.0,0.0,0.0,0.0,0.0,0.0,0.0,0.0,0.0,0.0,0.0,0.0,0.0,0.0,0.0,0.0,0.0,0.0,0.0,0.0,0.0,0.0,0.0,0.0,0.0,0.0,0.0,0.0,0.0,0.0,0.0,0.0,0.0,-3.21,-3.322,0.0,0.0,0.0,0.0,0.0,0.0,0.0,0.0,-2.904,0.0,0.0,0.0,0.0,0.0,0.0,0.0,0.0,0.0,0.0,0.0,0.0,0.0,0.0,0.0,0.0,0.0,0.0,0.0,0.0,0.0,0.0,0.0,0.0,0.0,0.0,0.0,0.0,0.0,0.0,0.0,0.0,0.0,0.0,0.0,0.0,0.0,0.0,0.0,0.0,0.0,0.0,0.0,0.0,0.0,0.0,0.0,0.0,0.0,0.0,0.0,0.0,0.0,0.0,0.0,-3.1099,-3.2673,-3.3089,-3.2571,-3.3761,-3.4254,-3.392,-3.3572,-3.2451,0.0,0.0,0.0,0.0,0.0,0.0,0.0,0.0,0.0,0.0,0.0,0.0,0.0,0.0,0.0,0.0,0.0,0.0,0.0,0.0,0.0,0.0,0.0,0.0,0.0,0.0,0.0,0.0,0.0,0.0,0.0,0.0,0.0,0.0,0.0,0.0,0.0,0.0,0.0,0.0,-3.2078,-3.2657,-3.1267,0.0,0.0,0.0,0.0,0.0,0.0,-3.0362,-2.9978,0.0,0.0,0.0,0.0,0.0,0.0,0.0,0.0,0.0,0.0,0.0,0.0,0.0,0.0,0.0,0.0,0.0,0.0,0.0,0.0,0.0,0.0,0.0,0.0,0.0,0.0,0.0,0.0,0.0,0.0,0.0,0.0,0.0,0.0,0.0,0.0,0.0,0.0,0.0,0.0,0.0,0.0,0.0,0.0,0.0,0.0,0.0,0.0,0.0,0.0,0.0,0.0,0.0,0.0,0.0,-3.0175,-3.2094,-3.2888,-3.2571,-3.3728,-3.4109,-3.3518,-3.2948,-3.1962,0.0,0.0,0.0,0.0,0.0,0.0,0.0,0.0,0.0,0.0,0.0,0.0,0.0,0.0,0.0,0.0,0.0,0.0,0.0,0.0,0.0,0.0,0.0,0.0,0.0,0.0,0.0,0.0,0.0,0.0,0.0,0.0,0.0,0.0,0.0,0.0,0.0,0.0,0.0,0.0,0.0,-3.2459,-3.173,-3.2095,0.0,0.0,0.0,0.0,-3.3133,-3.2147,0.0,0.0,0.0,0.0,0.0,0.0,0.0,0.0,0.0,0.0,0.0,0.0,0.0,0.0,0.0,0.0,0.0,0.0,0.0,0.0,0.0,0.0,0.0,0.0,0.0,0.0,0.0,0.0,0.0,0.0,0.0,0.0,0.0,0.0,0.0,0.0,0.0,0.0,0.0,0.0,0.0,0.0,0.0,0.0,0.0,0.0,0.0,0.0,0.0,0.0,0.0,0.0,0.0,0.0,0.0,0.0,-3.0078,-3.1157,-3.1928,-3.2513,-3.3746,-3.4109,-3.3547,-3.5532,-3.4683,0.0,0.0,0.0,0.0,0.0,0.0,0.0,0.0,0.0,0.0,0.0,0.0,0.0,0.0,0.0,0.0,0.0,0.0,0.0,0.0,0.0,0.0,0.0,0.0,0.0,0.0,0.0,0.0,0.0,0.0,0.0,0.0,0.0,0.0,0.0,0.0,0.0,0.0,0.0,0.0,0.0,-3.5297,-3.2045,-3.3816,-3.5495,0.0,0.0,-3.3193,-3.5297,-3.3338,0.0,0.0,0.0,0.0,0.0,0.0,0.0,0.0,0.0,0.0,0.0,0.0,0.0,0.0,0.0,0.0,0.0,0.0,0.0,0.0,0.0,0.0,0.0,0.0,0.0,0.0,0.0,0.0,0.0,0.0,0.0,0.0,0.0,0.0,0.0,0.0,0.0,0.0,0.0,0.0,0.0,0.0,0.0,0.0,0.0,0.0,0.0,0.0,0.0,0.0,0.0,0.0,0.0,0.0,0.0,-2.6286,-3.0052,-3.0707,-3.1466,-3.2483,-3.3713,-3.3935,-3.2962,-3.437,-3.3454,0.0,0.0,0.0,0.0,0.0,0.0,0.0,0.0,0.0,0.0,0.0,0.0,0.0,0.0,0.0,0.0,0.0,0.0,0.0,0.0,0.0,0.0,0.0,0.0,0.0,0.0,0.0,0.0,0.0,0.0,0.0,0.0,0.0,0.0,0.0,0.0,0.0,0.0,0.0,0.0,0.0,0.0,-3.4677,-3.5827,0.0,0.0,0.0,-3.5959,-3.8146,0.0,0.0,0.0,0.0,0.0,0.0,0.0,0.0,0.0,0.0,0.0,0.0,0.0,0.0,0.0,0.0,0.0,0.0,0.0,0.0,0.0,0.0,0.0,0.0,0.0,0.0,0.0,0.0,0.0,0.0,0.0,0.0,0.0,0.0,0.0,0.0,0.0,0.0,0.0,0.0,0.0,0.0,0.0,0.0,0.0,0.0,0.0,0.0,0.0,0.0,0.0,0.0,0.0,0.0,0.0,0.0,0.0,-3.0359,-3.0702,-3.1438,-3.273,-3.3833,-3.3786,-3.2553,-3.3137,0.0,0.0,0.0,0.0,0.0,0.0,0.0,0.0,0.0,0.0,0.0,0.0,0.0,0.0,0.0,0.0,0.0,0.0,0.0,0.0,0.0,0.0,0.0,0.0,0.0,0.0,0.0,-1.9565,0.0,0.0,0.0,0.0,0.0,0.0,0.0,0.0,0.0,0.0,0.0,0.0,0.0,0.0,-3.4468,-3.7036,-3.7698,-3.793,0.0,0.0,-3.8444,-3.9895,-3.6684,-3.4404,0.0,0.0,0.0,0.0,0.0,0.0,0.0,0.0,0.0,0.0,0.0,0.0,0.0,0.0,0.0,0.0,0.0,0.0,0.0,0.0,0.0,0.0,0.0,0.0,0.0,0.0,0.0,0.0,0.0,0.0,0.0,0.0,0.0,0.0,0.0,0.0,0.0,0.0,0.0,0.0,0.0,0.0,0.0,0.0,0.0,0.0,0.0,0.0,0.0,0.0,0.0,0.0,0.0,0.0,0.0,-3.0964,-3.1338,-3.2077,-3.3402,-3.4066,-3.3804,-3.2553,-3.3151,-3.2183,0.0,0.0,0.0,0.0,0.0,0.0,0.0,0.0,0.0,0.0,0.0,0.0,0.0,0.0,0.0,0.0,0.0,0.0,0.0,0.0,0.0,0.0,0.0,0.0,0.0,0.0,0.0,0.0,0.0,0.0,0.0,0.0,0.0,0.0,0.0,0.0,0.0,0.0,0.0,0.0,0.0,-3.6357,-3.7904,-3.9305,-4.0177,0.0,0.0,-4.0011,-3.9464,-3.7376,-3.5411,-3.4223,0.0,0.0,0.0,0.0,0.0,0.0,0.0,0.0,0.0,0.0,0.0,0.0,0.0,0.0,0.0,0.0,0.0,0.0,0.0,0.0,0.0,0.0,0.0,0.0,0.0,0.0,0.0,0.0,0.0,0.0,0.0,0.0,0.0,0.0,0.0,0.0,0.0,0.0,0.0,0.0,0.0,0.0,0.0,0.0,0.0,0.0,0.0,0.0,0.0,0.0,0.0,0.0,0.0,-2.749,-3.1117,-3.1412,-3.2135,-3.346,-3.4095,-3.3993,-3.3137,-3.3717,-3.2781,0.0,0.0,0.0,0.0,0.0,0.0,0.0,0.0,0.0,0.0,0.0,0.0,0.0,0.0,0.0,0.0,0.0,0.0,0.0,0.0,0.0,0.0,0.0,0.0,0.0,0.0,0.0,0.0,-2.2624,-2.3735,-2.5193,0.0,0.0,0.0,0.0,0.0,0.0,0.0,0.0,0.0,0.0,-3.7731,-3.8742,-3.9746,0.0,0.0,-4.0746,-4.1243,-4.1856,-3.899,-3.6953,-3.7741,-3.6365,0.0,0.0,0.0,0.0,0.0,0.0,0.0,0.0,0.0,0.0,0.0,0.0,0.0,0.0,0.0,0.0,0.0,0.0,0.0,0.0,0.0,0.0,0.0,0.0,0.0,0.0,0.0,0.0,0.0,0.0,0.0,0.0,0.0,0.0,0.0,0.0,0.0,0.0,0.0,0.0,0.0,0.0,0.0,0.0,0.0,0.0,0.0,0.0,0.0,0.0,0.0,0.0,-2.8039,-3.1423,-3.1693,-3.244,-3.3732,-3.4182,-3.4109,-3.3532,-3.3529,-3.2453,0.0,0.0,0.0,0.0,0.0,0.0,0.0,0.0,0.0,0.0,0.0,0.0,0.0,0.0,0.0,0.0,0.0,0.0,0.0,0.0,0.0,0.0,0.0,0.0,0.0,0.0,0.0,0.0,-2.4315,-2.4978,-2.5788,0.0,0.0,0.0,0.0,0.0,0.0,0.0,0.0,0.0,0.0,-3.8791,-4.0348,-4.1028,-4.1425,-4.1669,-4.227,-4.2932,-4.3499,-4.1016,-3.9288,-3.9978,0.0,0.0,0.0,0.0,0.0,0.0,0.0,0.0,0.0,0.0,0.0,0.0,0.0,0.0,0.0,0.0,0.0,0.0,0.0,0.0,0.0,0.0,0.0,0.0,0.0,0.0,0.0,0.0,0.0,0.0,-2.2394,0.0,0.0,0.0,0.0,0.0,0.0,0.0,0.0,0.0,0.0,0.0,0.0,0.0,0.0,0.0,0.0,0.0,0.0,0.0,0.0,0.0,0.0,-2.8692,-3.2013,-3.2343,-3.3093,-3.4327,-3.438,-3.4124,-3.3532,-3.2266,-3.0974,-2.9639,0.0,0.0,0.0,0.0,0.0,0.0,0.0,0.0,0.0,0.0,0.0,0.0,0.0,0.0,0.0,0.0,0.0,0.0,0.0,0.0,0.0,0.0,0.0,0.0,0.0,0.0,-2.7812,-2.6982,-2.5904,0.0,0.0,0.0,0.0,0.0,0.0,0.0,0.0,0.0,0.0,-3.9526,-3.9526,-4.2969,-4.3515,-4.3777,-4.4373,-4.5152,-4.5202,-4.383,-4.3482,-4.2551,0.0,0.0,0.0,0.0,0.0,0.0,0.0,0.0,0.0,0.0,0.0,0.0,0.0,0.0,0.0,0.0,0.0,0.0,0.0,0.0,0.0,0.0,0.0,0.0,0.0,0.0,0.0,-2.729,-2.5918,0.0,0.0,0.0,0.0,0.0,0.0,0.0,0.0,0.0,0.0,0.0,-3.1451,-3.2421,0.0,0.0,0.0,0.0,0.0,0.0,0.0,0.0,0.0,0.0,0.0,0.0,-2.9883,-3.2652,-3.2639,-3.3104,-3.437,-3.438,-3.4312,-3.408,-3.2861,-3.1095,-2.8874,0.0,0.0,0.0,0.0,0.0,0.0,0.0,0.0,0.0,0.0,0.0,0.0,0.0,0.0,0.0,0.0,0.0,0.0,0.0,0.0,0.0,0.0,0.0,0.0,0.0,-2.6054,0.0,0.0,0.0,0.0,0.0,0.0,0.0,0.0,0.0,0.0,0.0,-3.9603,-4.0597,-4.3032,-4.4622,-4.4373,-4.5185,-4.5202,0.0,0.0,0.0,0.0,0.0,0.0,0.0,0.0,0.0,0.0,0.0,0.0,0.0,0.0,-4.5009,-4.1245,-3.8899,-3.7611,-3.7965,0.0,0.0,0.0,0.0,0.0,0.0,0.0,0.0,0.0,0.0,0.0,0.0,0.0,0.0,-2.9676,0.0,-2.7288,0.0,0.0,0.0,0.0,0.0,0.0,0.0,0.0,-3.2378,-3.2939,-3.2931,-3.408,-3.3904,0.0,-3.2796,-3.1539,0.0,0.0,0.0,0.0,0.0,0.0,0.0,0.0,-3.099,-3.3122,-3.3004,-3.3354,-3.4356,-3.438,-3.438,-3.4351,-3.2962,-3.1024,-2.8579,-2.7416,-2.664,0.0,0.0,0.0,0.0,0.0,0.0,0.0,0.0,0.0,0.0,0.0,0.0,0.0,0.0,0.0,0.0,0.0,0.0,0.0,0.0,0.0,0.0,0.0,-2.6613,0.0,0.0,0.0,0.0,0.0,0.0,0.0,0.0,0.0,-3.7533,-4.0017,-4.2005,-4.2614,-4.4854,-4.6394,-4.6245,0.0,0.0,0.0,0.0,0.0,0.0,0.0,-4.699,-4.815,-4.6709,-4.5235,-4.4738,-4.5698,-4.6394,-4.5881,0.0,0.0,-4.2959,-4.0814,-3.9532,-3.989,-3.9924,-3.9976,-4.0287,-4.0781,-4.1179,0.0,0.0,0.0,0.0,0.0,0.0,0.0,0.0,-3.0651,-3.1637,0.0,-2.9803,0.0,0.0,0.0,0.0,0.0,-3.1535,0.0,0.0,-3.2828,-3.3191,-3.437,-3.5029,-3.4709,-3.3765,-3.6453,-3.6002,-3.2402,-2.8323,0.0,0.0,0.0,0.0,0.0,0.0,-3.194,-3.3301,-3.3445,-3.3808,-3.4385,-3.438,-3.4399,-3.4327,-3.2524,-3.0698,-2.8883,-2.8694,-2.7483,-2.494,-2.6198,0.0,0.0,0.0,0.0,0.0,0.0,0.0,0.0,0.0,0.0,0.0,0.0,0.0,0.0,0.0,0.0,0.0,0.0,0.0,0.0,-2.6847,0.0,0.0,0.0,0.0,0.0,0.0,0.0,0.0,0.0,0.0,-4.2738,-4.2787,-4.3794,-4.6609,0.0,0.0,0.0,0.0,-4.7504,-5.1547,-5.2293,-5.2423,-5.2937,-5.1396,-4.9409,-4.7438,0.0,0.0,-4.3019,-4.5616,-4.7388,-4.6046,-4.5251,-4.5367,-4.7337,-4.6022,-4.5194,-4.5959,-4.4818,-4.4542,-4.5247,-4.4783,-4.5045,-3.6131,0.0,0.0,0.0,0.0,-3.4388,-3.4558,-3.4935,-3.421,-3.3712,-3.338,-3.1735,0.0,0.0,0.0,0.0,0.0,0.0,-3.338,-3.4016,-3.3893,-3.408,-3.438,-3.4588,-3.4486,-3.4182,-3.4617,-3.4288,-3.3155,-3.1011,-2.9616,-2.8999,0.0,0.0,0.0,0.0,-3.3125,-3.3926,-3.3665,-3.3808,-3.4399,-3.438,-3.4196,-3.3746,-3.2774,-3.154,-3.0118,-2.9188,-2.8506,-2.8021,-2.6793,0.0,0.0,0.0,0.0,0.0,0.0,0.0,0.0,0.0,0.0,0.0,0.0,0.0,0.0,0.0,0.0,0.0,0.0,0.0,-2.741,-2.717,-2.8481,0.0,0.0,0.0,0.0,0.0,0.0,0.0,0.0,0.0,-4.6974,-4.7686,-4.8315,0.0,0.0,-5.1578,-5.2108,-5.1214,-5.0386,-5.0088,0.0,0.0,0.0,-4.9144,-4.9574,-4.9955,-4.8796,-4.7703,-4.7289,-4.6792,-4.6295,-4.5847,-4.5185,-4.492,-4.5317,-4.3962,-4.281,-4.2867,-4.2555,-4.2327,-4.2555,-4.2663,-4.2717,-3.746,-3.491,-3.5857,-3.638,-3.654,-3.6402,-3.6243,-3.6052,-3.5585,-3.5488,-3.552,-3.3806,-3.3386,-3.3864,-3.3113,0.0,0.0,0.0,-3.4087,-3.4009,-3.4276,-3.438,-3.438,-3.438,-3.438,-3.4351,-3.4022,-3.3848,-3.3848,-3.3558,-3.2567,-3.1087,0.0,0.0,-3.2472,-3.326,-3.3921,-3.4319,-3.4017,-3.4037,-3.4399,-3.438,-3.4225,-3.3848,-3.2977,-3.215,-3.1351,-3.0147,-2.936,-2.9123,-2.7876,-2.6877,0.0,0.0,0.0,0.0,0.0,0.0,0.0,0.0,0.0,0.0,0.0,-2.4243,0.0,0.0,0.0,0.0,-2.499,-2.723,-2.9749,-3.0493,0.0,0.0,0.0,0.0,0.0,0.0,0.0,-4.7106,-4.7404,-4.7984,-4.974,-5.0618,-5.075,-4.9889,-5.1032,-5.2075,-5.2506,0.0,-5.0469,-5.0021,-5.0601,-5.0618,-4.9293,-4.9077,-4.9144,-4.9127,-4.8398,-4.7819,-4.7752,-4.6643,-4.5831,-4.5748,-4.5448,-4.5119,-4.5119,-4.4026,-4.3032,-4.2767,-4.2717,-4.28,-4.3065,-4.3148,-4.3148,-3.8594,-3.7813,-4.1016,-4.0792,-3.8432,-3.8916,-3.7715,-3.5508,-3.5465,-3.6765,-3.8696,-3.5865,-3.5829,-3.7912,-3.6182,0.0,-3.3689,-3.4914,-3.4842,-3.375,-3.4298,-3.4559,-3.4559,-3.4574,-3.4559,-3.4574,-3.4516,-3.4486,-3.4545,-3.559,-3.5357,-3.3823,-3.3111,-3.336,-3.4401,-3.4565,-3.4614,-3.4632,-3.4661,-3.4574,-3.438,-3.438,-3.4385,-3.4312,-3.3151,-3.2469,-3.2292,-3.1148,-2.9958,-2.8781,-2.902,-2.7876,-2.5044,0.0,0.0,0.0,0.0,0.0,0.0,0.0,0.0,0.0,0.0,0.0,0.0,0.0,0.0,0.0,-2.7064,0.0,-3.223,-3.5276,0.0,0.0,0.0,-4.0492,-4.0127,-4.2945,-4.5483,-4.7057,0.0,0.0,-5.1232,0.0,-5.1479,-4.9309,-4.863,-4.9094,-5.1116,-4.9591,-4.8829,-5.0801,-5.1545,-5.1893,-5.1297,-5.0055,-4.8398,-4.6758,-4.5947,-4.6162,-4.6212,-4.6113,-4.5997,-4.6063,-4.593,-4.5864,-4.5881,-4.5732,-4.5599,-4.4951,-4.4771,-4.4937,-4.5417,-4.5549,-4.5516,-3.9712,-3.9504,-4.0353,-3.9223,-3.6869,-3.6965,-3.6668,-3.6083,-3.6083,-3.6431,-3.6925,-3.6185,-3.6183,-3.6725,-3.6265,-3.5898,-3.5643,-3.5936,-3.5939,-3.5648,-3.5778,-3.5865,-3.5851,-3.5851,-3.5851,-3.5822,-3.5357,-3.5174,-3.516,-3.4951,-3.5401,-3.633,-3.621,-3.6018,-3.5857,-3.6791,-3.7055,-3.662,-3.662,-3.5859,-3.4438,-3.438,-3.4182,-3.3736,-3.2933,-3.2048,-3.1106,-3.0263,-2.9493,-2.8738,-2.7873,-2.7284,-2.6966,-2.5846,0.0,0.0,0.0,0.0,0.0,0.0,0.0,0.0,0.0,-3.1789,-2.8164,0.0,-3.4181,0.0,-3.1473,-3.2052,-3.3194,-3.4577,0.0,0.0,-4.1915,-4.3893,-4.6477,-4.6543,-4.7371,-4.9973,-5.0386,-5.0469,-5.0469,-5.1082,-5.0734,-4.863,-5.0038,-5.158,-5.2061,-5.0253,-4.921,-5.0088,-4.926,-4.8415,-4.8995,-4.8663,-4.81,-4.757,-4.7471,-4.7471,-4.7471,-4.7487,-4.7487,-4.7438,-4.699,-4.6692,-4.6626,-4.6195,-4.6013,-4.6212,-4.593,-4.5566,-4.5765,-4.5814,-4.5814,-4.0815,-4.0539,-4.0539,-3.9552,-3.7999,-3.7999,-3.7839,-3.7593,-3.7593,-3.7433,-3.7128,-3.6867,-3.6591,-3.6301,-3.6286,-3.6286,-3.6286,-3.6286,-3.6286,-3.6286,-3.6286,-3.6286,-3.6286,-3.6286,-3.6286,-3.6286,-3.5952,-3.5813,-3.5749,-3.514,-3.5372,-3.6417,-3.6156,-3.6257,-3.6794,-3.8275,-3.8884,-3.8536,-3.7723,-3.6373,-3.4501,-3.438,-3.4385,-3.4346,-3.3964,-3.3489,-3.2762,-3.2399,-3.1613,-3.0451,-2.9711,-2.9232,-2.8985,-2.837,-2.8047,0.0,0.0,0.0,0.0,0.0,0.0,0.0,0.0,0.0,0.0,0.0,-3.5907,-3.5219,-3.4374,-3.4841,-3.7292,-3.9122,-4.0922,-4.2779,-4.4532,-4.5997,-4.7057,-4.7007,-4.752,-4.9127,-4.926,-4.9226,-4.9243,-4.9574,-4.9409,-4.815,-4.9392,-5.0436,-5.0353,-4.9342,-4.8779,-4.9094,-4.8183,-4.752,-4.7951,-4.8001,-4.8001,-4.8001,-4.8001,-4.8001,-4.8001,-4.8001,-4.8001,-4.7968,-4.7653,-4.7388,-4.7371,-4.7073,-4.6941,-4.7189,-4.7073,-4.6808,-4.6775,-4.6775,-4.6775,-4.1758,-4.1221,-4.1221,-4.0887,-4.0365,-4.035,-3.9958,-3.9305,-3.9305,-3.8942,-3.8304,-3.7781,-3.7186,-3.6562,-3.6548,-3.6548,-3.6548,-3.6562,-3.6548,-3.6548,-3.6548,-3.6548,-3.6548,-3.6548,-3.6548,-3.6548,-3.6475,-3.6431,-3.6417,-3.5828,-3.5639,-3.5842,-3.5212,-3.588,-3.7781,-3.9334,-4.0104,-4.006,-3.826,-3.6489,-3.4835,-3.5024,-3.5328,-3.5726,-3.5683,-3.5479,-3.5174,-3.5319,-3.4549,-3.2774,-3.2875,-3.2338,-3.0961,-3.1398,-3.154,0.0,-3.2273,0.0,0.0,0.0,0.0,0.0,0.0,0.0,0.0,-3.5324,-3.6646,-3.7838,-3.7046,-3.8056,-4.1893,-4.4658,-4.5476,-4.3703,-4.5957,-4.6944,-4.5144,-4.6132,-4.704,-4.704,-4.7686,-4.815,-4.8233,-4.8216,-4.8299,-4.8398,-4.8531,-4.8713,-4.8382,-4.8249,-4.8084,-4.8001,-4.8001,-4.7934,-4.7984,-4.8001,-4.8001,-4.8001,-4.8001,-4.8001,-4.8001,-4.8001,-4.8001,-4.8001,-4.7968,-4.7968,-4.8001,-4.7984,-4.7968,-4.7951,-4.7901,-4.7885,-4.7901,-4.7868,-4.8001,-4.202,-4.1903,-4.1918,-4.1831,-4.1715,-4.1715,-4.1047,-3.9929,-3.9929,-3.9581,-3.9015,-3.8899,-3.8478,-3.7868,-3.7839,-3.7839,-3.7854,-3.7839,-3.7839,-3.7839,-3.7854,-3.7839,-3.7839,-3.7854,-3.7839,-3.781,-3.7346,-3.7128,-3.7099,-3.6446,-3.6925,-3.8434,-3.7825,-3.8463,-4.0278,0.0,0.0,0.0,-3.826,-3.7128,-3.6838,-3.8246,-3.858,-3.7709,-3.7201,0.0,-3.4012,-3.484,-3.4767,-3.3474,-3.4748,0.0,0.0,0.0,0.0,0.0,0.0,0.0,0.0,0.0,0.0,0.0,-3.6671,-3.6829,-3.7074,-4.0246,-4.2045,-4.1444,-4.2141,-4.2343,-4.1517,-4.2509,-4.3066,-4.2784,-4.4711,-4.5943,-4.5602,-4.6865,-4.7802,-4.7802,-4.8448,-4.8912,-4.8928,-4.9409,-4.9773,-4.9707,-4.9773,-4.979,-4.9756,-4.8763,-4.8067,-4.8017,-4.8117,-4.805,-4.8001,-4.8067,-4.815,-4.8001,-4.8001,-4.805,-4.8084,-4.8067,-4.8034,-4.8067,-4.8001,-4.805,-4.805,-4.8001,-4.81,-4.8017,-4.8034,-4.8001,-4.8001,-4.8017,-4.805,-4.2832,0.0,-4.2542,-4.2368,0.0,-4.2092,-4.1715,-4.1047,-4.0728,-4.0234,-3.9654,-3.9654,-3.9291,-3.8696,-3.8696,-3.8507,-3.8202,-3.8202,-3.8202,-3.8202,-3.8202,-3.8202,-3.8202,-3.8202,-3.8202,-3.8188,-3.7897,-3.7738,-3.7709,-3.7114,-3.7302,-3.826,-3.7593,-3.7767,-3.8681,-3.8086,-3.8072,-3.871,-3.7781,-3.6838,-3.5967,-3.6809,-3.7143,-3.6823,0.0,0.0,0.0,0.0,0.0,0.0,0.0,0.0,0.0,0.0,0.0,-3.3885,-3.4676,-3.4827,-3.4039,-3.4865,-3.5767,-3.6445,-3.7557,-3.8417,-3.8919,-4.0064,-4.1103,-4.1865,-4.233,-4.2491,-4.2506,-4.3435,-4.4092,-4.4173,-4.5746,-4.6814,-4.6929,-4.7836,-4.8547,-4.8614,-4.9193,-4.9641,-4.9657,-4.9955,-5.0204,-5.022,-5.022,-5.0237,-5.0171,-4.9607,-4.911,-4.9094,-4.9094,-4.9094,-4.9094,-4.9094,-4.9094,-4.9094,-4.9077,-4.9077,-4.9094,-4.911,-4.9094,-4.9094,-4.9094,-4.9094,-4.9094,-4.9094,-4.911,-4.9094,-4.9094,-4.9094,-4.9061,-4.8531,-4.8033,-4.366,-4.3166,-4.3166,-4.2803,-4.2252,-4.2252,-4.2194,-4.2063,0.0,0.0,0.0,-4.0278,-3.9944,-3.9363,-3.9363,-3.9059,-3.8536,-3.842,-3.8391,-3.8376,-3.8246,-3.8202,-3.8202,-3.8202,-3.8202,-3.8202,-3.8202,-3.8202,-3.8188,-3.7709,-3.7476,-3.7404,-3.6809,-3.6417,-3.6286,-3.5793,-3.6089,-3.7085,-3.7244,-3.6533,-3.4994,-3.5241,-3.5619,-3.6075,-3.6431,-3.6533,-3.633,-3.7056,-3.6678,-3.5053,-3.5735,-3.6031,-3.561,-3.6025,-3.662,-3.7317,-3.7883,-3.7346,-3.5566,-3.6373,-3.6679,-3.5932,-3.7499,-3.9031,-4.025,-3.8945,-3.9109,-4.1753,-4.1432,-4.1829,-4.3485,-4.4646,-4.5373,-4.5373,-4.6556,-4.742,-4.7768,-4.8446,-4.8892,-4.9292,-4.9955,-5.0419,-5.0402,-5.0568,-5.0601,-5.0618,-5.0734,-5.0601,-5.0568,-5.0353,-5.0071,-5.0071,-5.0005,-5.0137,-5.0187,-5.0137,-5.022,-5.0088,-5.0137,-5.022,-5.022,-5.022,-5.022,-5.0088,-5.0204,-5.0154,-5.0187,-5.0121,-5.022,-5.022,-5.022,-5.022,-5.0121,-4.926,-4.8564,-4.3935,-4.3848,-4.3848,-4.3471,-4.2876,-4.2861,-4.2571,-4.2107,-4.199,-4.157,-4.096,-4.096,-4.0583,-3.9973,-3.9973,-3.9915,-3.9799,-3.9291,-3.9059,0.0,-3.8463,-3.8202,-3.8202,-3.8202,-3.8202,-3.8202,-3.8202,-3.8202,-3.8188,-3.8101,-3.8072,-3.7999,-3.7462,-3.6896,-3.6344,-3.6214,-3.6272,-3.646,-3.7012,-3.7172,-3.6939,-3.8463,-3.9102,-3.8667,-3.8115,-3.7418,-3.6388,-3.7418,-3.7709,-3.6983,-3.8507,-3.8463,-3.633,-3.6228,-3.5662,-3.4317,-3.4273,-3.4608,-3.5348,-3.5581,-3.6081,-3.6974,-3.7496,-3.867,-4.0817,-4.0761,-4.1344,-4.3105,-4.3055,-4.3088,-4.3445,-4.3693,-4.3922,-4.3891,-4.4524,-4.5514,-4.6941,-4.779,-4.8744,-4.992,-5.0667,-5.1166,-5.1216,-5.1628,-5.1943,-5.2026,-5.1843,-5.1993,-5.1761,-5.0982,-5.0303,-5.022,-5.022,-5.022,-5.0369,-5.0203,-5.0353,-5.022,-5.032,-5.0386,-5.0402,-5.0402,-5.0402,-5.0253,-5.0369,-5.0336,-5.032,-5.022,-5.0353,-5.0386,-5.0402,-5.0353,-5.0386,-5.0071,-4.9991,-4.4806,-4.4487,-4.4472,-4.411,-4.3529,-4.3544,-4.3166,-4.26,-4.2571,-4.2223,-4.1671,-4.1642,-4.1265,-4.067,-4.0641,-4.0437,-4.0089,-3.9813,-3.9683,-3.9654,-3.9378,-3.9059,-3.8754,-3.8739,-3.8551,-3.8231,-3.8202,-3.8202,-3.8202,-3.8202,-3.8202,-3.8188,-3.7926,-3.7622,-3.7346,-3.7027,-3.6852,-3.6823,-3.646,-3.6293,-3.6307,-3.6736,-3.6881,-3.6606,-3.6301,-3.5894,-3.5299,-3.5836,-3.6011,-3.5749,-3.6548,-3.6475,-3.5372,-3.5285,-3.5038,-3.4578,-3.452,-3.4927,-3.5822,-3.6214,-3.6664,-3.7273,-3.8015,-3.9185,-4.0885,-4.0751,-4.1522,-4.3701,-4.3666,-4.3797,-4.4543,-4.4966,-4.5368,-4.5759,-4.6489,-4.7419,-4.8469,-4.9276,-5.0023,-5.0749,-5.1464,-5.1912,-5.1912,-5.221,-5.2409,-5.2409,-5.2409,-5.2409,-5.2409,-5.1879,-5.138,-5.1396,-5.138,-5.138,-5.1363,-5.138,-5.138,-5.138,-5.138,-5.138,-5.138,-5.138,-5.1363,-5.138,-5.1363,-5.1396,-5.1363,-5.138,-5.1396,-5.1396,-5.1396,-5.138,-5.138,-5.145,-5.134,-4.5605,-4.5126,-4.5111,-4.4748,-4.4182,-4.4037,-4.3703,-4.3224,-4.3065,-4.2731,-4.231,-4.2165,-4.1802,-4.1352,-4.1323,-4.1033,-4.0568,-4.0394,-4.0336,-4.0307,-4.0162,-3.9857,-3.9436,-3.9407,-3.9059,-3.8492,-3.8434,-3.8347,-3.8231,-3.8202,-3.8202,-3.8202,-3.8202,-3.8202,-3.8188,-3.7738,-3.752,-3.7433,-3.6424,-3.5755,-3.5595,-3.4951,-3.4617,-3.4632,-3.4516,-3.438,-3.438,-3.438,-3.438,-3.438,-3.438,-3.4472,-3.4617,-3.4632,-3.4907,-3.5523,-3.561,-3.5901,-3.6489,-3.7143,-3.7578,-3.7752,-3.8638,-3.9712,-4.08,-4.0688,-4.1452,-4.3603,-4.367,-4.3896,-4.4853,-4.5693,-4.6486,-4.7048,-4.7987,-4.8676,-4.9712,-5.0549,-5.1241,-5.1494,-5.2026,-5.2393,-5.2409,-5.2409,-5.2409,-5.2409,-5.2409,-5.2409,-5.2409,-5.2409,-5.2409,-5.2409,-5.2409,-5.2326,-5.2409,-5.2359,-5.2326,-5.2409,-5.2359,-5.2277,-5.2293,-5.2359,-5.2393,-5.2293,-5.2326,-5.2277,-5.2359,-5.2359,-5.2326,-5.226,-5.2227,-5.231,-5.2312,-5.2454,-5.2395,-4.5837,-4.5793,-4.5764,-4.5401,-4.4777,-4.4255,-4.3993,-4.3834,-4.3268,-4.2977,-4.2832,-4.2339,-4.2078,-4.2005,-4.1976,-4.1918,-4.1802,-4.1265,-4.1004,-4.0931,-4.0379,-4.006,-4.0031,-4.0017,-3.9712,-3.916,-3.9088,-3.8768,-3.8275,-3.8217,-3.8202,-3.8202,-3.8202,-3.8202,-3.8188,-3.8144,-3.8115,-3.8115,-3.7476,-3.6823,-3.6228,-3.5639,-3.5305,-3.5305,-3.4733,-3.438,-3.4453,-3.438,-3.4428,-3.438,-3.4443,-3.469,-3.5232,-3.5319,-3.5595,-3.617,-3.6228,-3.6519,-3.7186,-3.7767,-3.8376,-3.8957,-3.9146,-3.9867,-4.116,-4.1484,-4.2031,-4.319,-4.341,-4.3446,-4.3557,-4.4246,-4.4886,-4.5345,-4.6408,-4.7349,-4.8901,-4.971,-5.0732,-5.2172,-5.2272,-5.2409,-5.2409,-5.2409,-5.2409,-5.2409,-5.2409,-5.2409,-5.2409,-5.2409,-5.2409,-5.2409,-5.2409,-5.2409,-5.2409,-5.2409,-5.2409,-5.2409,-5.2409,-5.2409,-5.2409,-5.2409,-5.2409,-5.2409,-5.2409,-5.2409,-5.2409,-5.2409,-5.2409,-5.2409,-5.2409,-5.2445,-5.2553,-5.2711,-5.2701,-4.588,-4.588,-4.588,-4.5735,-4.5445,-4.5213,-4.4923,-4.4501,-4.424,-4.3703,-4.3021,-4.2731,-4.2426,-4.2092,-4.2092,-4.2092,-4.2063,-4.1816,-4.1686,-4.1671,-4.141,-4.1076,-4.0713,-4.0699,-4.0365,-3.9726,-3.9378,-3.9059,-3.8768,-3.8391,-3.8202,-3.8202,-3.8202,-3.8202,-3.8202,-3.8202,-3.8202,-3.8188,-3.797,-3.7694,-3.736,-3.6431,-3.5923,-3.5894,-3.5677,-3.5497,-3.5532,-3.5546,-3.5532,-3.5532,-3.5546,-3.5648,-3.5909,-3.5923,-3.6228,-3.6838,-3.7244,-3.7723,-3.8376,-3.8667,-3.9073,-3.9683,-4.0104,-4.0648,-4.1339,-4.1829,-4.241,-4.3004,-4.3244,-4.3305,-4.3404,-4.4337,-4.5367,-4.6369,-4.7727,-4.898,-5.0025,-5.0871,-5.1612,-5.1712,-5.2106,-5.2373,-5.2409,-5.2409,-5.2409,-5.2409,-5.2409,-5.2409,-5.2409,-5.2409,-5.2409,-5.2409,-5.2409,-5.2409,-5.2409,-5.2409,-5.2409,-5.2409,-5.2409,-5.2409,-5.2409,-5.2409,-5.2409,-5.2409,-5.2409,-5.2409,-5.2409,-5.2409,-5.2409,-5.2409,-5.2409,-5.2445,-5.2553,-5.2659,-5.285,-4.588,-4.588,-4.588,-4.588,-4.588,-4.588,-4.5605,-4.5155,-4.4966,-4.4356,-4.3529,-4.3152,-4.2745,-4.2368,-4.2179,-4.2092,-4.2092,-4.2092,-4.2092,-4.2092,-4.2092,-4.1845,-4.1395,-4.1366,-4.1018,-4.0394,-3.9944,-3.9639,-3.9392,-3.8783,-3.8478,-3.8463,-3.8304,-3.8202,-3.8202,-3.8202,-3.8202,-3.8202,-3.8202,-3.8202,-3.8072,-3.7302,-3.6751,-3.6591,-3.6402,-3.6286,-3.6286,-3.6286,-3.6286,-3.6286,-3.6286,-3.6402,-3.6577,-3.6577,-3.6881,-3.7506,-3.813,-3.8681,-3.9189,-3.9349,-3.9712,-4.0321,-4.0844,-4.1284,-4.1679,-4.2195,-4.2633,-4.2996,-4.3359,-4.3589,-4.3698,-4.4713,-4.5986,-4.7356,-4.8744,-4.9857,-5.0304,-5.1194,-5.1348,-5.0897,-5.1177,-5.1692,-5.1709,-5.1818,-5.198,-5.198,-5.223,-5.2409,-5.2409,-5.2409,-5.2409,-5.2409,-5.2409,-5.2409,-5.2409,-5.2409,-5.2409,-5.2409,-5.2409,-5.2409,-5.2409,-5.2409,-5.2409,-5.2409,-5.2409,-5.2409,-5.2409,-5.2409,-5.2409,-5.2409,-5.2409,-5.248,-5.2659,-5.2659,-5.2868,-4.588,-4.588,-4.588,-4.588,-4.588,-4.588,-4.5866,-4.5735,-4.5184,-4.4835,-4.456,-4.3558,-4.2992,-4.2876,-4.2382,-4.2107,-4.2092,-4.2092,-4.2092,-4.2092,-4.2092,-4.2078,-4.2063,-4.2049,-4.1686,-4.1076,-4.0916,-4.0568,-4.0002,-3.945,-3.916,-3.9117,-3.8565,-3.8231,-3.826,-3.8231,-3.8202,-3.8202,-3.8202,-3.8202,-3.8202,-3.813,-3.7767,-3.7259,-3.6678,-3.6402,-3.6359,-3.633,-3.633,-3.6315,-3.6388,-3.6635,-3.7186,-3.7259,-3.7535,-3.8144,-3.8768,-3.916,-3.932,-3.977,-4.035,-4.0931,-4.1134,-4.1448,-4.2146,-4.2482,-4.2743,-4.2985,-4.3737,-4.4157,-4.4392,-4.5008,-4.5748,-4.6531,-4.7834,-4.8656,-4.879,-4.9797,-4.99,-4.99,-5.0119,-5.0406,-5.0174,-5.0669,-5.1268,-5.1508,-5.1944,-5.2426,-5.2409,-5.2409,-5.2409,-5.2409,-5.2409,-5.2409,-5.2409,-5.2409,-5.2409,-5.2409,-5.2409,-5.2409,-5.2409,-5.2409,-5.2409,-5.2409,-5.2409,-5.2409,-5.2409,-5.2409,-5.2409,-5.2409,-5.2409,-5.2499,-5.2729,-5.2834,-5.3007,-4.588,-4.588,-4.588,-4.588,-4.588,-4.588,-4.588,-4.5866,-4.5619,-4.5271,-4.4864,-4.4385,-4.3761,-4.2992,-4.2774,-4.2455,-4.2107,-4.2092,-4.2092,-4.2092,-4.2092,-4.2092,-4.2092,-4.2092,-4.2005,-4.1715,-4.1308,-4.0742,-4.0147,-3.9857,-3.977,-3.9668,-3.9146,-3.8841,-3.8768,-3.8405,-3.8202,-3.8202,-3.8202,-3.8202,-3.8202,-3.8202,-3.8101,-3.7883,-3.7665,-3.752,-3.752,-3.752,-3.752,-3.7506,-3.7535,-3.7622,-3.7839,-3.7883,-3.8173,-3.8768,-3.9073,-3.9552,-4.0292,-4.0612,-4.1033,-4.1642,-4.1744,-4.1828,-4.2184,-4.2407,-4.2743,-4.3371,-4.3827,-4.4452,-4.5412,-4.5828,-4.6274,-4.7087,-4.7993,-4.8558,-4.8846,-4.9757,-5.0267,-4.9463,-4.986,-5.0821,-5.1161,-5.1729,-5.1908,-5.1944,-5.2214,-5.2373,-5.2409,-5.2409,-5.2409,-5.2409,-5.2409,-5.2409,-5.2409,-5.2409,-5.2409,-5.2409,-5.2409,-5.2409,-5.2409,-5.2409,-5.2409,-5.2409,-5.2409,-5.2409,-5.2409,-5.2409,-5.2409,-5.2409,-5.2409,-5.2551,-5.2834,-5.2868,-5.3093,-4.588,-4.588,-4.588,-4.588,-4.588,-4.588,-4.588,-4.588,-4.588,-4.5634,-4.5227,-4.498,-4.44,-4.3616,-4.3181,-4.2789,-4.2382,-4.2194,-4.2092,-4.2092,-4.2092,-4.2092,-4.2092,-4.2092,-4.2092,-4.2034,-4.1657,-4.1163,-4.0757,-4.0525,-4.0423,-4.0379,-3.9799,-3.9494,-3.9392,-3.8841,-3.8536,-3.8507,-3.8318,-3.8202,-3.8202,-3.8202,-3.8202,-3.8202,-3.8202,-3.8202,-3.8202,-3.8202,-3.8202,-3.8202,-3.8202,-3.8304,-3.8492,-3.8536,-3.8812,-3.9407,-3.9712,-4.0162,-4.096,-4.1294,-4.1613,-4.2034,-4.2092,-4.2092,-4.2148,-4.2541,-4.311,-4.3643,-4.4439,-4.5257,-4.6013,-4.6474,-4.6876,-4.7422,-4.7912,-4.8172,-4.8198,-4.9132,-4.9334,-4.8969,-4.9479,-5.0515,-5.1417,-5.1729,-5.1891,-5.198,-5.2194,-5.2409,-5.2409,-5.2409,-5.2409,-5.2409,-5.2409,-5.2409,-5.2409,-5.2409,-5.2409,-5.2409,-5.2409,-5.2409,-5.2409,-5.2409,-5.2409,-5.2409,-5.2409,-5.2409,-5.2409,-5.2409,-5.2409,-5.2409,-5.2409,-5.2516,-5.2711,-5.2868,-5.3127,-4.588,-4.588,-4.588,-4.588,-4.588,-4.588,-4.588,-4.588,-4.588,-4.5837,-4.5692,-4.5213,-4.4879,-4.4574,-4.3645,-4.305,-4.2832,-4.2411,-4.215,-4.2107,-4.2092,-4.2092,-4.2092,-4.2092,-4.2092,-4.2092,-4.2078,-4.2034,-4.1889,-4.1381,-4.1105,-4.0974,-4.0437,-4.0118,-4.0104,-3.9523,-3.9204,-3.9088,-3.8667,-3.8333,-3.8217,-3.8333,-3.8362,-3.8289,-3.8333,-3.8376,-3.8304,-3.8246,-3.8202,-3.8202,-3.8246,-3.8536,-3.9102,-3.9204,-3.9465,-4.0075,-4.067,-4.1018,-4.1192,-4.17,-4.199,-4.2092,-4.2092,-4.2121,-4.2391,-4.3031,-4.3688,-4.414,-4.5176,-4.6249,-4.6384,-4.6875,-4.7248,-4.7322,-4.7452,-4.7452,-4.7424,-4.7381,-4.7694,-4.849,-4.8928,-4.9035,-4.9781,-5.0745,-5.1306,-5.1545,-5.198,-5.2409,-5.2409,-5.2409,-5.2409,-5.2409,-5.2409,-5.2409,-5.2409,-5.2409,-5.2409,-5.2409,-5.2409,-5.2409,-5.2409,-5.2409,-5.2409,-5.2409,-5.2409,-5.2409,-5.2409,-5.2409,-5.2445,-5.2445,-5.2445,-5.2551,-5.2816,-5.3007,-5.3161,-4.588,-4.588,-4.588,-4.588,-4.588,-4.588,-4.588,-4.588,-4.588,-4.588,-4.5837,-4.5663,-4.5329,-4.4908,-4.4429,-4.3819,-4.3021,-4.2774,-4.2498,-4.2165,-4.2092,-4.2092,-4.2092,-4.2092,-4.2092,-4.2092,-4.2092,-4.2092,-4.2063,-4.1874,-4.1773,-4.1657,-4.1105,-4.0815,-4.0757,-4.0162,-3.9828,-3.9784,-3.9625,-3.932,-3.8986,-3.9291,-3.9305,-3.8986,-3.9291,-3.9509,-3.9479,-3.8667,-3.8231,-3.8231,-3.8652,-3.9175,-3.9683,-3.9828,-4.0118,-4.0699,-4.096,-4.1337,-4.1744,-4.1961,-4.2092,-4.2092,-4.2092,-4.2407,-4.2909,-4.3448,-4.4214,-4.5035,-4.5928,-4.6429,-4.692,-4.716,-4.7309,-4.7309,-4.7309,-4.7309,-4.7309,-4.7309,-4.8019,-4.9075,-4.8953,-4.9237,-5.0267,-5.1005,-5.1231,-5.1782,-5.2178,-5.2338,-5.2373,-5.2409,-5.2409,-5.2409,-5.2409,-5.2409,-5.2409,-5.2409,-5.2409,-5.2409,-5.2409,-5.2409,-5.2409,-5.2409,-5.2409,-5.2409,-5.2409,-5.2409,-5.2409,-5.2409,-5.2445,-5.2516,-5.2535,-5.2746,-5.3007,-5.3161,-5.3246,-4.588,-4.588,-4.588,-4.588,-4.588,-4.588,-4.588,-4.588,-4.588,-4.588,-4.588,-4.588,-4.5677,-4.5271,-4.501,-4.4458,-4.3674,-4.3239,-4.2789,-4.2426,-4.2165,-4.2092,-4.2092,-4.2092,-4.2092,-4.2092,-4.2092,-4.2092,-4.2092,-4.2092,-4.2092,-4.199,-4.1671,-4.1482,-4.141,-4.0815,-4.0466,-4.0452,-4.0205,-3.99,-3.9683,-3.99,-3.9915,-3.9639,-3.99,-4.0075,-4.0017,-3.9305,-3.8899,-3.8957,-3.932,-3.9828,-4.0394,-4.0481,-4.0771,-4.1308,-4.1497,-4.1671,-4.2049,-4.2078,-4.2092,-4.2107,-4.2295,-4.2613,-4.3259,-4.3803,-4.4953,-4.5673,-4.6375,-4.686,-4.7204,-4.7309,-4.7309,-4.7309,-4.7309,-4.7309,-4.7309,-4.7309,-4.7864,-4.8805,-4.8887,-4.9358,-5.019,-5.0631,-5.0989,-5.1709,-5.1908,-5.2142,-5.225,-5.2409,-5.2373,-5.2373,-5.2409,-5.2409,-5.2409,-5.2409,-5.2409,-5.2409,-5.2409,-5.2409,-5.2409,-5.2409,-5.2409,-5.2409,-5.2409,-5.2409,-5.2409,-5.2409,-5.2409,-5.2499,-5.2589,-5.2729,-5.2938,-5.311,-5.323,-4.588,-4.588,-4.588,-4.588,-4.588,-4.588,-4.588,-4.588,-4.588,-4.588,-4.588,-4.588,-4.5866,-4.5721,-4.5271,-4.4922,-4.4661,-4.3761,-4.3123,-4.2832,-4.2469,-4.2208,-4.2107,-4.2092,-4.2092,-4.2092,-4.2092,-4.2092,-4.2092,-4.2092,-4.2092,-4.2078,-4.2034,-4.2063,-4.1889,-4.1439,-4.1149,-4.1076,-4.0597,-4.0321,-4.0191,-4.0278,-4.0234,-4.0191,-4.0292,-4.0379,-4.0379,-4.0278,-4.0191,-4.0147,-4.0133,-4.0466,-4.1004,-4.1149,-4.1453,-4.1961,-4.2063,-4.2034,-4.2092,-4.2092,-4.215,-4.2266,-4.2644,-4.3107,-4.3453,-4.4555,-4.5445,-4.5869,-4.6632,-4.7206,-4.7251,-4.7309,-4.7309,-4.7309,-4.7309,-4.7309,-4.7309,-4.7309,-4.7694,-4.8297,-4.8573,-4.8831,-4.9583,-4.9726,-5.0174,-5.0745,-5.1027,-5.1343,-5.1729,-5.1891,-5.2214,-5.225,-5.2178,-5.2409,-5.2409,-5.2409,-5.2409,-5.2409,-5.2409,-5.2409,-5.2409,-5.2409,-5.2409,-5.2409,-5.2409,-5.2409,-5.2409,-5.2409,-5.248,-5.257,-5.2659,-5.2729,-5.2903,-5.3161,-5.3298,-4.588,-4.588,-4.588,-4.588,-4.588,-4.588,-4.588,-4.588,-4.588,-4.588,-4.588,-4.588,-4.588,-4.5851,-4.5692,-4.5372,-4.4893,-4.4516,-4.379,-4.3065,-4.2847,-4.2484,-4.2165,-4.2092,-4.2092,-4.2092,-4.2092,-4.2092,-4.2092,-4.2092,-4.2092,-4.2092,-4.2092,-4.2092,-4.2034,-4.1889,-4.1831,-4.1816,-4.1671,-4.1279,-4.096,-4.1294,-4.1308,-4.0902,-4.1279,-4.1497,-4.1555,-4.157,-4.1308,-4.0873,-4.0829,-4.1149,-4.1715,-4.1787,-4.1874,-4.202,-4.2092,-4.2092,-4.2092,-4.2121,-4.2295,-4.2702,-4.2977,-4.3484,-4.4602,-4.5083,-4.5756,-4.6356,-4.6915,-4.7106,-4.7251,-4.7309,-4.7309,-4.7309,-4.7309,-4.7309,-4.7309,-4.7309,-4.7424,-4.7581,-4.7694,-4.813,-4.8641,-4.8953,-4.9237,-4.99,-5.0174,-5.029,-5.0767,-5.1327,-5.1655,-5.1745,-5.1818,-5.2178,-5.2409,-5.2409,-5.2409,-5.2409,-5.2409,-5.2409,-5.2409,-5.2409,-5.2409,-5.2409,-5.2409,-5.2409,-5.2409,-5.2409,-5.2516,-5.2605,-5.2694,-5.2799,-5.3127,-5.3416,-5.3416,-4.588,-4.588,-4.588,-4.588,-4.588,-4.588,-4.588,-4.588,-4.588,-4.588,-4.588,-4.588,-4.588,-4.588,-4.5866,-4.5692,-4.5314,-4.501,-4.4342,-4.3471,-4.2847,-4.2411,-4.215,-4.2092,-4.2092,-4.2092,-4.2092,-4.2092,-4.2092,-4.2092,-4.2092,-4.2092,-4.2092,-4.2092,-4.2092,-4.2092,-4.2092,-4.2078,-4.2078,-4.1874,-4.1599,-4.1874,-4.1889,-4.1628,-4.1918,-4.2092,-4.2092,-4.2078,-4.1889,-4.1584,-4.1526,-4.17,-4.2034,-4.2092,-4.2092,-4.2092,-4.2092,-4.2092,-4.215,-4.231,-4.2629,-4.3036,-4.3384,-4.4182,-4.4982,-4.542,-4.6065,-4.6623,-4.6829,-4.7019,-4.7207,-4.7309,-4.7309,-4.7309,-4.7309,-4.7309,-4.7309,-4.7309,-4.7309,-4.7309,-4.7352,-4.7424,-4.8019,-4.8046,-4.849,-4.9035,-4.9303,-4.9543,-4.99,-5.0538,-5.1065,-5.1231,-5.1709,-5.2214,-5.2409,-5.2409,-5.2409,-5.2409,-5.2409,-5.2409,-5.2409,-5.2409,-5.2409,-5.2409,-5.2409,-5.2409,-5.2409,-5.2409,-5.2445,-5.2551,-5.2694,-5.2868,-5.3127,-5.3416,-5.3433,-4.588,-4.588,-4.588,-4.588,-4.588,-4.588,-4.588,-4.588,-4.588,-4.588,-4.588,-4.588,-4.588,-4.588,-4.588,-4.5866,-4.5808,-4.5314,-4.4719,-4.3877,-4.3021,-4.231,-4.231,-4.2136,-4.2107,-4.2092,-4.2092,-4.2092,-4.2092,-4.2092,-4.2092,-4.2092,-4.2092,-4.2092,-4.2092,-4.2092,-4.2092,-4.2092,-4.2092,-4.2063,-4.1976,-4.2049,-4.2034,-4.202,-4.202,-4.2092,-4.2092,-4.2092,-4.2049,-4.2078,-4.2092,-4.2049,-4.2092,-4.2092,-4.2092,-4.2092,-4.2107,-4.2121,-4.2266,-4.2687,-4.3094,-4.3413,-4.4298,-4.4922,-4.52,-4.5681,-4.6196,-4.6624,-4.6756,-4.699,-4.7266,-4.7309,-4.7309,-4.7309,-4.7309,-4.7309,-4.7309,-4.7309,-4.7309,-4.7309,-4.7309,-4.7309,-4.7309,-4.7352,-4.7624,-4.8256,-4.8434,-4.8599,-4.9197,-4.9955,-5.0422,-5.0783,-5.1455,-5.2338,-5.2409,-5.2409,-5.2409,-5.2409,-5.2409,-5.2409,-5.2409,-5.2409,-5.2409,-5.2409,-5.2409,-5.2409,-5.2409,-5.2409,-5.2409,-5.248,-5.2624,-5.2729,-5.2903,-5.3161,-5.3298,-4.588,-4.588,-4.588,-4.588,-4.588,-4.588,-4.588,-4.588,-4.588,-4.588,-4.588,-4.588,-4.588,-4.588,-4.588,-4.588,-4.5866,-4.5634,-4.5329,-4.4574,-4.3384,-4.2847,-4.2687,-4.2382,-4.2121,-4.2092,-4.2092,-4.2092,-4.2092,-4.2092,-4.2092,-4.2092,-4.2092,-4.2092,-4.2092,-4.2092,-4.2092,-4.2092,-4.2092,-4.2092,-4.2092,-4.2092,-4.2092,-4.2092,-4.2092,-4.2092,-4.2092,-4.2092,-4.2092,-4.2092,-4.2092,-4.2092,-4.2092,-4.2092,-4.2092,-4.2107,-4.2136,-4.2324,-4.2716,-4.2992,-4.3442,-4.4298,-4.4676,-4.5097,-4.5634,-4.584,-4.6194,-4.6506,-4.6639,-4.6902,-4.7222,-4.7309,-4.7309,-4.7309,-4.7309,-4.7309,-4.7309,-4.7309,-4.7309,-4.7309,-4.7309,-4.7309,-4.7309,-4.7309,-4.7467,-4.7581,-4.7651,-4.7694,-4.8407,-4.9358,-4.99,-5.0384,-5.1508,-5.2338,-5.2338,-5.2266,-5.2069,-5.2053,-5.2089,-5.2373,-5.2373,-5.2409,-5.2409,-5.2409,-5.2409,-5.2409,-5.2409,-5.2409,-5.2409,-5.2499,-5.257,-5.2659,-5.2799,-5.3007,-5.3179,-4.588,-4.588,-4.588,-4.588,-4.588,-4.588,-4.588,-4.588,-4.588,-4.588,-4.588,-4.588,-4.588,-4.588,-4.588,-4.588,-4.5793,-4.5532,-4.5227,-4.4705,-4.3892,-4.3485,-4.3326,-4.2818,-4.2397,-4.2165,-4.2092,-4.2092,-4.2092,-4.2092,-4.2092,-4.2092,-4.2092,-4.2092,-4.2092,-4.2092,-4.2092,-4.2092,-4.2092,-4.2092,-4.2092,-4.2092,-4.2092,-4.2092,-4.2092,-4.2092,-4.2092,-4.2092,-4.2092,-4.2092,-4.2092,-4.2092,-4.2092,-4.2092,-4.2092,-4.2121,-4.2411,-4.26,-4.2963,-4.3573,-4.4226,-4.4821,-4.514,-4.5488,-4.5824,-4.597,-4.6225,-4.6491,-4.6712,-4.6902,-4.7266,-4.7309,-4.7309,-4.7309,-4.7309,-4.7309,-4.7309,-4.7309,-4.7309,-4.7309,-4.7309,-4.7309,-4.7309,-4.7309,-4.7309,-4.7467,-4.7467,-4.7495,-4.7934,-4.879,-4.9583,-5.0329,-5.1582,-5.2302,-5.2266,-5.2069,-5.1672,-5.1598,-5.1582,-5.198,-5.2285,-5.2338,-5.2409,-5.2409,-5.2409,-5.2409,-5.2409,-5.2409,-5.2409,-5.2445,-5.2499,-5.2605,-5.2746,-5.2903,-5.3076,-4.588,-4.588,-4.588,-4.588,-4.588,-4.588,-4.588,-4.588,-4.588,-4.588,-4.588,-4.588,-4.588,-4.588,-4.588,-4.588,-4.575,-4.5445,-4.5184,-4.5053,-4.4458,-4.4153,-4.3964,-4.3456,-4.2948,-4.2397,-4.2179,-4.2121,-4.2092,-4.2092,-4.2092,-4.2092,-4.2092,-4.2092,-4.2092,-4.2092,-4.2092,-4.2092,-4.2092,-4.2092,-4.2092,-4.2092,-4.2092,-4.2092,-4.2092,-4.2092,-4.2092,-4.2092,-4.2092,-4.2092,-4.2092,-4.2136,-4.2208,-4.2121,-4.2194,-4.2237,-4.2687,-4.3094,-4.3558,-4.4226,-4.485,-4.501,-4.5503,-4.5867,-4.597,-4.609,-4.6314,-4.658,-4.6844,-4.7077,-4.7266,-4.7309,-4.7309,-4.7309,-4.7309,-4.7309,-4.7309,-4.7309,-4.7309,-4.7309,-4.7309,-4.7309,-4.7309,-4.7309,-4.7309,-4.7309,-4.7309,-4.7381,-4.7779,-4.8324,-4.9101,-4.9662,-5.0691,-5.1252,-5.1306,-5.1306,-5.0951,-5.1065,-5.1027,-5.1545,-5.2053,-5.2285,-5.2338,-5.2409,-5.2409,-5.2409,-5.2409,-5.2409,-5.2409,-5.2409,-5.2445,-5.2499,-5.264,-5.2781,-5.2938,-4.588,-4.588,-4.588,-4.588,-4.588,-4.588,-4.588,-4.588,-4.588,-4.588,-4.588,-4.588,-4.588,-4.588,-4.588,-4.588,-4.5822,-4.5648,-4.5634,-4.5547,-4.5053,-4.4763,-4.4618,-4.411,-4.3747,-4.3398,-4.2789,-4.2266,-4.215,-4.2092,-4.2092,-4.2092,-4.2092,-4.2092,-4.2092,-4.2092,-4.2092,-4.2092,-4.2092,-4.2092,-4.2092,-4.2092,-4.2092,-4.2092,-4.2092,-4.2092,-4.2092,-4.2092,-4.2092,-4.2092,-4.2092,-4.2368,-4.2615,-4.2397,-4.2469,-4.2789,-4.3065,-4.3544,-4.4284,-4.4705,-4.5198,-4.5561,-4.5822,-4.5941,-4.609,-4.618,-4.6388,-4.6756,-4.7033,-4.7222,-4.7309,-4.7309,-4.7309,-4.7309,-4.7309,-4.7309,-4.7309,-4.7309,-4.7309,-4.7309,-4.7309,-4.7309,-4.7309,-4.7309,-4.7309,-4.7309,-4.7309,-4.7309,-4.751,-4.8003,-4.8682,-4.9157,-4.9543,-4.99,-5.0096,-5.0135,-5.0057,-5.0384,-5.0576,-5.114,-5.1619,-5.2089,-5.2285,-5.2373,-5.2409,-5.2409,-5.2409,-5.2409,-5.2409,-5.2409,-5.2409,-5.2445,-5.257,-5.2711,-5.292,-4.588,-4.588,-4.588,-4.588,-4.588,-4.588,-4.588,-4.588,-4.588,-4.588,-4.588,-4.588,-4.588,-4.588,-4.588,-4.588,-4.588,-4.588,-4.588,-4.5779,-4.5561,-4.5416,-4.53,-4.4734,-4.4501,-4.4197,-4.3529,-4.2847,-4.2542,-4.2223,-4.2179,-4.2092,-4.2092,-4.2092,-4.2092,-4.2092,-4.2121,-4.2121,-4.2107,-4.2107,-4.2092,-4.2092,-4.2092,-4.2092,-4.2092,-4.2092,-4.2092,-4.2092,-4.2092,-4.215,-4.2397,-4.2687,-4.2905,-4.3123,-4.3195,-4.3515,-4.3776,-4.4153,-4.4864,-4.5155,-4.5576,-4.5793,-4.588,-4.5925,-4.6046,-4.618,-4.6432,-4.68,-4.6975,-4.7164,-4.7266,-4.7309,-4.7309,-4.7309,-4.7309,-4.7309,-4.7309,-4.7309,-4.7309,-4.7309,-4.7309,-4.7309,-4.7309,-4.7309,-4.7309,-4.7309,-4.7309,-4.7309,-4.7309,-4.7822,-4.8407,-4.8682,-4.8994,-4.9116,-4.9303,-4.9343,-4.9463,-4.9742,-5.029,-5.0859,-5.1471,-5.2053,-5.2285,-5.2373,-5.2409,-5.2409,-5.2409,-5.2409,-5.2409,-5.2409,-5.2409,-5.2445,-5.2499,-5.264,-5.285,-4.588,-4.588,-4.588,-4.588,-4.588,-4.588,-4.588,-4.588,-4.588,-4.588,-4.588,-4.588,-4.588,-4.588,-4.588,-4.588,-4.588,-4.588,-4.588,-4.588,-4.5851,-4.5866,-4.5706,-4.543,-4.5082,-4.4995,-4.4414,-4.3834,-4.3239,-4.2847,-4.2557,-4.2629,-4.2528,-4.2469,-4.2571,-4.2687,-4.2455,-4.2295,-4.2281,-4.2252,-4.2121,-4.2092,-4.2092,-4.2092,-4.2092,-4.215,-4.2324,-4.2353,-4.2484,-4.2673,-4.2963,-4.3268,-4.3442,-4.3877,-4.4211,-4.44,-4.4719,-4.4893,-4.5227,-4.5503,-4.5793,-4.588,-4.588,-4.5925,-4.6046,-4.6254,-4.6565,-4.6887,-4.7019,-4.7121,-4.7266,-4.7309,-4.7309,-4.7309,-4.7309,-4.7309,-4.7309,-4.7309,-4.7309,-4.7309,-4.7309,-4.7309,-4.7309,-4.7309,-4.7309,-4.7309,-4.7309,-4.7309,-4.7352,-4.7666,-4.8103,-4.8297,-4.849,-4.8517,-4.8641,-4.8723,-4.8913,-4.9262,-5.0057,-5.0859,-5.1508,-5.2178,-5.2302,-5.2409,-5.2409,-5.2409,-5.2409,-5.2409,-5.2409,-5.2409,-5.2409,-5.2445,-5.2535,-5.2605,-5.2729,-4.588,-4.588,-4.588,-4.588,-4.588,-4.588,-4.588,-4.588,-4.588,-4.588,-4.588,-4.588,-4.588,-4.588,-4.588,-4.588,-4.588,-4.588,-4.588,-4.588,-4.588,-4.588,-4.588,-4.5851,-4.5648,-4.5561,-4.5068,-4.4472,-4.3993,-4.3776,-4.3674,-4.3631,-4.3558,-4.3718,-4.35,-4.3471,-4.3456,-4.2992,-4.289,-4.2658,-4.2281,-4.2223,-4.2223,-4.2208,-4.2252,-4.2455,-4.2847,-4.2919,-4.3094,-4.3602,-4.3776,-4.4139,-4.456,-4.4749,-4.5126,-4.53,-4.5314,-4.5155,-4.5605,-4.5808,-4.588,-4.588,-4.588,-4.6015,-4.618,-4.6432,-4.6785,-4.7207,-4.7207,-4.7222,-4.7266,-4.7309,-4.7309,-4.7309,-4.7309,-4.7309,-4.7309,-4.7309,-4.7309,-4.7309,-4.7309,-4.7309,-4.7309,-4.7309,-4.7309,-4.7309,-4.7309,-4.7309,-4.7352,-4.7624,-4.7752,-4.7907,-4.7934,-4.8019,-4.824,-4.8282,-4.8764,-4.9035,-4.9955,-5.0897,-5.1619,-5.2214,-5.2338,-5.2409,-5.2409,-5.2409,-5.2409,-5.2409,-5.2409,-5.2409,-5.2409,-5.2464,-5.2553,-5.2624,-5.2624,-4.588,-4.588,-4.588,-4.588,-4.588,-4.588,-4.588,-4.588,-4.588,-4.588,-4.588,-4.588,-4.588,-4.588,-4.588,-4.588,-4.588,-4.588,-4.588,-4.588,-4.588,-4.588,-4.588,-4.588,-4.588,-4.5808,-4.5619,-4.5416,-4.4937,-4.4342,-4.4008,-4.4052,-4.4023,-4.3935,-4.4139,-4.4023,-4.3834,-4.3616,-4.3544,-4.3427,-4.3239,-4.3152,-4.3152,-4.3152,-4.3137,-4.3297,-4.3456,-4.3558,-4.366,-4.4052,-4.4255,-4.4589,-4.4922,-4.5198,-4.5605,-4.5764,-4.5634,-4.5605,-4.5822,-4.588,-4.588,-4.588,-4.5925,-4.597,-4.618,-4.6388,-4.6697,-4.7004,-4.7062,-4.7121,-4.7266,-4.7309,-4.7309,-4.7309,-4.7309,-4.7309,-4.7309,-4.7309,-4.7309,-4.7309,-4.7309,-4.7309,-4.7309,-4.7309,-4.7309,-4.7309,-4.7309,-4.7309,-4.7309,-4.7396,-4.7424,-4.7424,-4.7467,-4.7467,-4.7822,-4.8046,-4.8913,-4.9383,-5.0229,-5.114,-5.1782,-5.2214,-5.2285,-5.2373,-5.2373,-5.2373,-5.2409,-5.2409,-5.2409,-5.2409,-5.2409,-5.2464,-5.2499,-5.2499,-5.2535,-4.588,-4.588,-4.588,-4.588,-4.588,-4.588,-4.588,-4.588,-4.588,-4.588,-4.588,-4.588,-4.588,-4.588,-4.588,-4.588,-4.588,-4.588,-4.588,-4.588,-4.588,-4.588,-4.588,-4.588,-4.588,-4.588,-4.5822,-4.575,-4.5518,-4.5082,-4.4603,-4.4458,-4.4661,-4.4589,-4.4516,-4.456,-4.4501,-4.4211,-4.4008,-4.3921,-4.3892,-4.3906,-4.3921,-4.395,-4.4008,-4.4066,-4.4197,-4.4211,-4.4226,-4.4632,-4.4908,-4.5169,-4.5285,-4.5576,-4.5779,-4.588,-4.5779,-4.5808,-4.5866,-4.588,-4.588,-4.588,-4.5925,-4.597,-4.618,-4.621,-4.6343,-4.6785,-4.6916,-4.7019,-4.7149,-4.7222,-4.7309,-4.7309,-4.7309,-4.7309,-4.7309,-4.7309,-4.7309,-4.7309,-4.7309,-4.7309,-4.7309,-4.7309,-4.7309,-4.7309,-4.7309,-4.7309,-4.7309,-4.7309,-4.7309,-4.7309,-4.7309,-4.7309,-4.7538,-4.8019,-4.8831,-4.9623,-5.0461,-5.1065,-5.1545,-5.198,-5.2214,-5.225,-5.225,-5.2373,-5.2409,-5.2409,-5.2409,-5.2409,-5.2409,-5.2409,-5.2409,-5.2409,-5.2445,-4.588,-4.588,-4.588,-4.588,-4.588,-4.588,-4.588,-4.588,-4.588,-4.588,-4.588,-4.588,-4.588,-4.588,-4.588,-4.588,-4.588,-4.588,-4.588,-4.588,-4.588,-4.588,-4.588,-4.588,-4.588,-4.588,-4.588,-4.588,-4.5851,-4.5692,-4.5576,-4.5735,-4.543,-4.5634,-4.5605,-4.5401,-4.5198,-4.485,-4.4487,-4.4226,-4.4197,-4.4182,-4.4168,-4.4124,-4.411,-4.424,-4.4821,-4.4835,-4.501,-4.5488,-4.559,-4.5663,-4.5677,-4.5793,-4.588,-4.588,-4.588,-4.588,-4.588,-4.588,-4.588,-4.588,-4.5925,-4.597,-4.6165,-4.621,-4.6343,-4.6624,-4.68,-4.6931,-4.7019,-4.7121,-4.7266,-4.7309,-4.7309,-4.7309,-4.7309,-4.7309,-4.7309,-4.7309,-4.7309,-4.7309,-4.7309,-4.7309,-4.7309,-4.7309,-4.7309,-4.7309,-4.7309,-4.7309,-4.7309,-4.7309,-4.7309,-4.7352,-4.7381,-4.7976,-4.8764,-4.9423,-5.0151,-5.0631,-5.1027,-5.1417,-5.1602,-5.1818,-5.1782,-5.2106,-5.2409,-5.2409,-5.2409,-5.2409,-5.2409,-5.2409,-5.2409,-5.2409,-5.2409,-4.588,-4.588,-4.588,-4.588,-4.588,-4.588,-4.588,-4.588,-4.588,-4.588,-4.588,-4.588,-4.588,-4.588,-4.588,-4.588,-4.588,-4.588,-4.588,-4.588,-4.588,-4.588,-4.588,-4.588,-4.588,-4.588,-4.588,-4.588,-4.588,-4.588,-4.588,-4.588,-4.588,-4.5866,-4.5866,-4.588,-4.5692,-4.5561,-4.5271,-4.514,-4.5155,-4.5155,-4.5155,-4.5155,-4.5155,-4.5242,-4.5474,-4.5503,-4.5677,-4.5808,-4.5866,-4.588,-4.588,-4.588,-4.588,-4.588,-4.588,-4.588,-4.588,-4.588,-4.588,-4.588,-4.5925,-4.597,-4.618,-4.621,-4.6358,-4.6535,-4.6756,-4.6887,-4.6931,-4.7121,-4.7309,-4.7309,-4.7309,-4.7309,-4.7309,-4.7309,-4.7309,-4.7309,-4.7309,-4.7309,-4.7309,-4.7309,-4.7309,-4.7309,-4.7309,-4.7309,-4.7309,-4.7309,-4.7309,-4.7309,-4.7309,-4.7309,-4.7337,-4.7976,-4.8682,-4.9237,-4.9837,-5.0073,-5.0306,-5.0329,-5.056,-5.0859,-5.1434,-5.1871,-5.2178,-5.2338,-5.2409,-5.2409,-5.2409,-5.2409,-5.2409,-5.2409,-5.2409,-4.588,-4.588,-4.588,-4.588,-4.588,-4.588,-4.588,-4.588,-4.588,-4.588,-4.588,-4.588,-4.588,-4.588,-4.588,-4.588,-4.588,-4.588,-4.588,-4.588,-4.588,-4.588,-4.588,-4.588,-4.588,-4.588,-4.588,-4.588,-4.588,-4.588,-4.588,-4.588,-4.588,-4.588,-4.588,-4.588,-4.588,-4.588,-4.588,-4.588,-4.5837,-4.5822,-4.5808,-4.5793,-4.575,-4.5764,-4.5793,-4.5779,-4.5808,-4.5866,-4.588,-4.588,-4.588,-4.588,-4.588,-4.588,-4.588,-4.588,-4.588,-4.588,-4.588,-4.588,-4.588,-4.597,-4.609,-4.618,-4.6314,-4.6447,-4.6712,-4.6887,-4.6931,-4.7121,-4.7309,-4.7309,-4.7309,-4.7309,-4.7309,-4.7309,-4.7309,-4.7309,-4.7309,-4.7309,-4.7309,-4.7309,-4.7309,-4.7309,-4.7309,-4.7309,-4.7309,-4.7309,-4.7309,-4.7309,-4.7309,-4.7309,-4.7352,-4.7737,-4.8172,-4.8764,-4.9197,-4.9318,-4.9463,-4.9567,-4.9884,-5.0384,-5.0989,-5.1619,-5.2053,-5.2338,-5.2409,-5.2409,-5.2409,-5.2409,-5.2409,-5.2409,-5.2409,-4.588,-4.588,-4.588,-4.588,-4.588,-4.588,-4.588,-4.588,-4.588,-4.588,-4.588,-4.588,-4.588,-4.588,-4.588,-4.588,-4.588,-4.588,-4.588,-4.588,-4.588,-4.588,-4.588,-4.588,-4.588,-4.588,-4.588,-4.588,-4.588,-4.588,-4.588,-4.588,-4.588,-4.588,-4.588,-4.588,-4.588,-4.588,-4.588,-4.588,-4.588,-4.588,-4.588,-4.588,-4.588,-4.588,-4.588,-4.588,-4.588,-4.588,-4.588,-4.588,-4.588,-4.588,-4.588,-4.588,-4.588,-4.588,-4.588,-4.588,-4.588,-4.588,-4.588,-4.5925,-4.597,-4.6046,-4.6165,-4.6269,-4.6565,-4.6785,-4.696,-4.7106,-4.7207,-4.7309,-4.7309,-4.7309,-4.7309,-4.7309,-4.7309,-4.7309,-4.7309,-4.7309,-4.7309,-4.7309,-4.7309,-4.7309,-4.7309,-4.7309,-4.7309,-4.7309,-4.7309,-4.7309,-4.7309,-4.7309,-4.7309,-4.7309,-4.7666,-4.8256,-4.8599,-4.8682,-4.9075,-4.9543,-4.9821,-5.0112,-5.0783,-5.1672,-5.2053,-5.2409,-5.2409,-5.2409,-5.2409,-5.2409,-5.2409,-5.2409,-5.2409,-4.588,-4.588,-4.588,-4.588,-4.588,-4.588,-4.588,-4.588,-4.588,-4.588,-4.588,-4.588,-4.588,-4.588,-4.588,-4.588,-4.588,-4.588,-4.588,-4.588,-4.588,-4.588,-4.588,-4.588,-4.588,-4.588,-4.588,-4.588,-4.588,-4.588,-4.588,-4.588,-4.588,-4.588,-4.588,-4.588,-4.588,-4.588,-4.588,-4.588,-4.588,-4.588,-4.588,-4.588,-4.588,-4.588,-4.588,-4.588,-4.588,-4.588,-4.588,-4.588,-4.588,-4.588,-4.588,-4.588,-4.588,-4.588,-4.588,-4.588,-4.588,-4.588,-4.588,-4.588,-4.5925,-4.597,-4.6015,-4.6046,-4.6343,-4.6565,-4.6668,-4.6887,-4.7062,-4.7266,-4.7309,-4.7309,-4.7309,-4.7309,-4.7309,-4.7309,-4.7309,-4.7309,-4.7309,-4.7309,-4.7309,-4.7309,-4.7309,-4.7309,-4.7309,-4.7309,-4.7309,-4.7309,-4.7309,-4.7309,-4.7309,-4.7309,-4.7309,-4.7737,-4.7976,-4.8046,-4.8573,-4.9358,-4.9994,-5.0384,-5.1027,-5.1672,-5.2089,-5.2409,-5.2409,-5.2409,-5.2409,-5.2409,-5.2409,-5.2409,-5.2409,-4.5677,-4.588,-4.588,-4.588,-4.588,-4.588,-4.588,-4.588,-4.588,-4.588,-4.588,-4.588,-4.588,-4.588,-4.588,-4.588,-4.588,-4.588,-4.588,-4.588,-4.588,-4.588,-4.588,-4.588,-4.588,-4.588,-4.588,-4.588,-4.588,-4.588,-4.588,-4.588,-4.588,-4.588,-4.588,-4.588,-4.588,-4.588,-4.588,-4.588,-4.588,-4.588,-4.588,-4.588,-4.588,-4.588,-4.588,-4.588,-4.588,-4.588,-4.588,-4.588,-4.588,-4.588,-4.588,-4.588,-4.588,-4.588,-4.588,-4.588,-4.588,-4.588,-4.588,-4.588,-4.5925,-4.6015,-4.6001,-4.609,-4.6165,-4.6358,-4.6594,-4.68,-4.6975,-4.7164,-4.7266,-4.7266,-4.7309,-4.7309,-4.7309,-4.7309,-4.7309,-4.7309,-4.7309,-4.7309,-4.7309,-4.7309,-4.7309,-4.7309,-4.7309,-4.7309,-4.7309,-4.7309,-4.7309,-4.7309,-4.7309,-4.7309,-4.7309,-4.7309,-4.7467,-4.7624,-4.8407,-4.9278,-4.9994,-5.0783,-5.1417,-5.198,-5.2214,-5.2409,-5.2409,-5.2409,-5.2409,-5.2409,-5.2409,-5.2409,-5.2409,-4.5242,-4.5779,-4.5822,-4.5779,-4.5837,-4.5851,-4.588,-4.588,-4.588,-4.588,-4.588,-4.588,-4.588,-4.588,-4.588,-4.588,-4.588,-4.588,-4.588,-4.588,-4.588,-4.588,-4.588,-4.588,-4.588,-4.588,-4.588,-4.588,-4.588,-4.588,-4.588,-4.588,-4.588,-4.588,-4.588,-4.588,-4.588,-4.588,-4.588,-4.588,-4.588,-4.588,-4.588,-4.588,-4.588,-4.588,-4.588,-4.588,-4.588,-4.588,-4.588,-4.588,-4.588,-4.588,-4.588,-4.588,-4.588,-4.588,-4.588,-4.588,-4.588,-4.588,-4.588,-4.588,-4.5925,-4.6001,-4.6046,-4.609,-4.6225,-4.6403,-4.6594,-4.6756,-4.6887,-4.7062,-4.7207,-4.7266,-4.7309,-4.7309,-4.7309,-4.7309,-4.7309,-4.7309,-4.7309,-4.7309,-4.7309,-4.7309,-4.7309,-4.7309,-4.7309,-4.7309,-4.7309,-4.7309,-4.7309,-4.7309,-4.7309,-4.7309,-4.7309,-4.7309,-4.7352,-4.7581,-4.8381,-4.9197,-5.0033,-5.0876,-5.1782,-5.225,-5.2373,-5.2409,-5.2409,-5.2409,-5.2409,-5.2409,-5.2409,-5.2409,-5.2409,-4.4356,-4.4531,-4.4531,-4.4777,-4.5213,-4.5677,-4.588,-4.588,-4.588,-4.588,-4.588,-4.588,-4.588,-4.588,-4.588,-4.588,-4.588,-4.588,-4.588,-4.588,-4.588,-4.588,-4.588,-4.588,-4.588,-4.588,-4.588,-4.588,-4.588,-4.588,-4.588,-4.588,-4.588,-4.588,-4.588,-4.588,-4.588,-4.588,-4.588,-4.588,-4.588,-4.588,-4.588,-4.588,-4.588,-4.588,-4.588,-4.588,-4.588,-4.588,-4.588,-4.588,-4.588,-4.588,-4.588,-4.588,-4.588,-4.588,-4.588,-4.588,-4.588,-4.588,-4.588,-4.588,-4.5925,-4.5956,-4.6015,-4.606,-4.6135,-4.6284,-4.6506,-4.6668,-4.6844,-4.7062,-4.7207,-4.7266,-4.7309,-4.7309,-4.7309,-4.7309,-4.7309,-4.7309,-4.7309,-4.7309,-4.7309,-4.7309,-4.7309,-4.7309,-4.7309,-4.7309,-4.7309,-4.7309,-4.7309,-4.7309,-4.7309,-4.7309,-4.7309,-4.7309,-4.7352,-4.7581,-4.8407,-4.9237,-5.0073,-5.0914,-5.1655,-5.2125,-5.2373,-5.2409,-5.2409,-5.2409,-5.2409,-5.2409,-5.2409,-5.2409,-5.2409,-4.3747,-4.3993,-4.4008,-4.4197,-4.456,-4.501,-4.514,-4.5213,-4.5663,-4.588,-4.588,-4.588,-4.588,-4.588,-4.588,-4.588,-4.588,-4.588,-4.588,-4.588,-4.588,-4.588,-4.588,-4.588,-4.588,-4.588,-4.588,-4.588,-4.588,-4.588,-4.588,-4.588,-4.588,-4.588,-4.588,-4.588,-4.588,-4.588,-4.588,-4.588,-4.588,-4.588,-4.588,-4.588,-4.588,-4.588,-4.588,-4.588,-4.588,-4.588,-4.588,-4.588,-4.588,-4.588,-4.588,-4.588,-4.588,-4.588,-4.588,-4.588,-4.588,-4.588,-4.588,-4.588,-4.588,-4.5925,-4.5925,-4.597,-4.6015,-4.615,-4.6358,-4.6624,-4.6844,-4.7077,-4.7207,-4.7309,-4.7309,-4.7309,-4.7309,-4.7309,-4.7309,-4.7309,-4.7309,-4.7309,-4.7309,-4.7309,-4.7309,-4.7309,-4.7309,-4.7309,-4.7309,-4.7309,-4.7309,-4.7309,-4.7309,-4.7309,-4.7309,-4.7309,-4.7309,-4.7709,-4.8449,-4.9035,-4.9678,-5.0554,-5.1471,-5.1855,-5.225,-5.2373,-5.2409,-5.2409,-5.2409,-5.2409,-5.2409,-5.2409,-5.2409,-4.3083,-4.3661,-4.3719,-4.3603,-4.3791,-4.3849,-4.3979,-4.4124,-4.5184,-4.575,-4.575,-4.5851,-4.588,-4.588,-4.588,-4.588,-4.588,-4.588,-4.588,-4.588,-4.588,-4.588,-4.588,-4.588,-4.588,-4.588,-4.588,-4.588,-4.588,-4.588,-4.588,-4.588,-4.588,-4.588,-4.588,-4.588,-4.588,-4.588,-4.588,-4.588,-4.588,-4.588,-4.588,-4.588,-4.588,-4.588,-4.588,-4.588,-4.588,-4.588,-4.588,-4.588,-4.588,-4.588,-4.588,-4.588,-4.588,-4.588,-4.588,-4.588,-4.588,-4.588,-4.588,-4.588,-4.588,-4.588,-4.588,-4.5925,-4.6015,-4.618,-4.6403,-4.6668,-4.6931,-4.7121,-4.7222,-4.7309,-4.7309,-4.7309,-4.7309,-4.7309,-4.7309,-4.7309,-4.7309,-4.7309,-4.7309,-4.7309,-4.7309,-4.7309,-4.7309,-4.7309,-4.7309,-4.7309,-4.7309,-4.7309,-4.7309,-4.7309,-4.7309,-4.7309,-4.7309,-4.7467,-4.8019,-4.8615,-4.9253,-5.0283,-5.1343,-5.1745,-5.2089,-5.225,-5.2409,-5.2409,-5.2409,-5.2409,-5.2409,-5.2409,-5.2409,-4.0596,-4.1368,-4.119,-4.1488,-4.2219,-4.2658,-4.3254,-4.4008,-4.4284,-4.4705,-4.5155,-4.5605,-4.588,-4.588,-4.588,-4.588,-4.588,-4.588,-4.588,-4.588,-4.588,-4.588,-4.588,-4.588,-4.588,-4.588,-4.588,-4.588,-4.588,-4.588,-4.588,-4.588,-4.588,-4.588,-4.588,-4.588,-4.588,-4.588,-4.588,-4.588,-4.588,-4.588,-4.588,-4.588,-4.588,-4.588,-4.588,-4.588,-4.588,-4.588,-4.588,-4.588,-4.588,-4.588,-4.588,-4.588,-4.588,-4.588,-4.588,-4.588,-4.588,-4.588,-4.588,-4.588,-4.588,-4.588,-4.5925,-4.597,-4.6046,-4.6269,-4.6447,-4.6712,-4.6931,-4.7077,-4.7222,-4.7266,-4.7309,-4.7309,-4.7309,-4.7309,-4.7309,-4.7309,-4.7309,-4.7309,-4.7309,-4.7309,-4.7309,-4.7309,-4.7309,-4.7309,-4.7309,-4.7309,-4.7309,-4.7309,-4.7309,-4.7309,-4.7309,-4.7309,-4.7309,-4.7467,-4.7666,-4.8324,-4.9075,-5.0267,-5.1215,-5.1655,-5.2017,-5.2285,-5.2409,-5.2409,-5.2409,-5.2409,-5.2409,-5.2409,-5.2409,-3.9505,-3.994,-3.983,-4.0069,-4.0537,-4.0886,-4.1379,-4.1946,-4.2609,-4.3141,-4.3659,-4.4744,-4.5576,-4.5822,-4.588,-4.5866,-4.588,-4.588,-4.588,-4.588,-4.588,-4.588,-4.588,-4.588,-4.588,-4.588,-4.588,-4.588,-4.588,-4.588,-4.588,-4.588,-4.588,-4.588,-4.588,-4.588,-4.588,-4.588,-4.588,-4.588,-4.588,-4.588,-4.588,-4.588,-4.588,-4.588,-4.588,-4.588,-4.588,-4.588,-4.588,-4.588,-4.588,-4.588,-4.588,-4.588,-4.588,-4.588,-4.588,-4.588,-4.588,-4.588,-4.588,-4.588,-4.588,-4.588,-4.588,-4.597,-4.609,-4.6269,-4.6358,-4.658,-4.6712,-4.6858,-4.699,-4.7121,-4.7207,-4.7309,-4.7309,-4.7309,-4.7309,-4.7309,-4.7309,-4.7309,-4.7309,-4.7309,-4.7309,-4.7309,-4.7309,-4.7309,-4.7309,-4.7309,-4.7309,-4.7309,-4.7309,-4.7309,-4.7309,-4.7309,-4.7309,-4.7396,-4.7538,-4.8214,-4.8994,-5.0057,-5.0935,-5.1582,-5.1944,-5.2285,-5.2409,-5.2409,-5.2409,-5.2409,-5.2409,-5.2409,-5.2409,-3.8796,-3.8854,-3.881,-3.8899,-3.9033,-3.9046,-3.922,-3.9554,-4.0669,-4.1371,-4.1725,-4.3394,-4.4684,-4.5561,-4.575,-4.5808,-4.5851,-4.588,-4.588,-4.588,-4.588,-4.588,-4.588,-4.588,-4.588,-4.588,-4.588,-4.588,-4.588,-4.588,-4.588,-4.588,-4.588,-4.588,-4.588,-4.588,-4.588,-4.588,-4.588,-4.588,-4.588,-4.588,-4.588,-4.588,-4.588,-4.588,-4.588,-4.588,-4.588,-4.588,-4.588,-4.588,-4.588,-4.588,-4.588,-4.588,-4.588,-4.588,-4.588,-4.588,-4.588,-4.588,-4.588,-4.588,-4.588,-4.588,-4.588,-4.597,-4.609,-4.6225,-4.6314,-4.6403,-4.6535,-4.6668,-4.6844,-4.6975,-4.7121,-4.7266,-4.7309,-4.7309,-4.7309,-4.7309,-4.7309,-4.7309,-4.7309,-4.7309,-4.7309,-4.7309,-4.7309,-4.7309,-4.7309,-4.7309,-4.7309,-4.7309,-4.7309,-4.7309,-4.7309,-4.7309,-4.7309,-4.7309,-4.7467,-4.813,-4.8872,-4.9702,-5.0538,-5.138,-5.1944,-5.2338,-5.2409,-5.2409,-5.2409,-5.2409,-5.2409,-5.2409,-5.2409,-3.6943,-3.6943,-3.6943,-3.7335,-3.7978,-3.8069,-3.8509,-3.9179,-3.9465,-3.9943,-4.0457,-4.0924,-4.2396,-4.5068,-4.5068,-4.5256,-4.5721,-4.5808,-4.588,-4.588,-4.588,-4.588,-4.588,-4.588,-4.588,-4.588,-4.588,-4.588,-4.588,-4.588,-4.588,-4.588,-4.588,-4.588,-4.588,-4.588,-4.588,-4.588,-4.588,-4.588,-4.588,-4.588,-4.588,-4.588,-4.588,-4.588,-4.588,-4.588,-4.588,-4.588,-4.588,-4.588,-4.588,-4.588,-4.588,-4.588,-4.588,-4.588,-4.588,-4.588,-4.588,-4.588,-4.588,-4.588,-4.588,-4.588,-4.5925,-4.5911,-4.6046,-4.6135,-4.6225,-4.6417,-4.655,-4.6639,-4.6756,-4.6887,-4.7019,-4.7164,-4.7309,-4.7309,-4.7309,-4.7309,-4.7309,-4.7309,-4.7309,-4.7309,-4.7309,-4.7309,-4.7309,-4.7309,-4.7309,-4.7309,-4.7309,-4.7309,-4.7309,-4.7309,-4.7309,-4.7309,-4.7309,-4.7309,-4.7553,-4.8103,-4.8846,-4.9702,-5.0576,-5.1471,-5.1944,-5.2409,-5.2409,-5.2409,-5.2409,-5.2409,-5.2409,-5.2409,-5.2409]}]]